     2              OBSERVATION DATA    G (GPS)             RINEX VERSION / TYPE
ASRINEXO V2.9.9 LH AIUB 01-FEB- 1 16:28                     PGM / RUN BY / DATE
BERN ASHTECH Z-12                                           COMMENT
BIT 2 OF LLI (+4) FLAGS DATA COLLECTED UNDER "AS" CONDITION COMMENT
USNB                                                        MARKER NAME
                                                            OBSERVER / AGENCY
? ASHTECH Z-XII3 1D15                                       REC # / TYPE / VERS
? CHOKE RING                                                ANT # / TYPE
  1112179.0500 -4842816.8800  3985525.1900                  APPROX POSITION XYZ
        0.0000        0.0000        0.0000                  ANTENNA: DELTA H/E/N
     1     1                                                WAVELENGTH FACT L1/2
     5    C1    L1    L2    P1    P2                        # / TYPES OF OBSERV
  2000     4    29     0     0   30.000000                  TIME OF FIRST OBS
                                                            END OF HEADER
 00  4 29  0  0 30.0000000  0  6 17 26 23 06 09 10
  20337492.344   -23682185.867 9 -18439079.72348  20337495.493    20337504.0424
  20257828.968   -22986416.894 9 -17884681.84848  20257832.484    20257840.6344
  22476457.612   -12979817.644 8  -9915017.84847  22476460.447    22476471.0784
  22764771.575   -11021790.099 8  -8572682.35346  22764772.289    22764785.0014
  23280087.092    -6918771.103 8  -5371815.37946  23280088.804    23280101.1974
  23950356.283    -6281911.372 8  -4876878.53945  23950370.248    23950382.7754
 00  4 29  0  1  0.0000000  0  6 17 26 23 06 09 10
  20329728.022   -23722987.779 9 -18470873.39448  20329730.904    20329740.3044
  20266094.008   -22942980.531 9 -17850835.33048  20266098.016    20266106.5674
  22466291.733   -13033219.718 8  -9956629.78347  22466298.177    22466308.8764
  22781509.081   -10933820.169 8  -8504134.46946  22781512.521    22781524.9134
  23260817.676    -7020033.581 8  -5450721.02846  23260819.251    23260832.1234
  23965186.875    -6204054.901 8  -4816211.21145  23965185.643    23965199.0014
 00  4 29  0  1 30.0000000  0  6 17 26 23 06 09 10
  20322051.715   -23763322.880 9 -18502303.32248  20322055.254    20322064.5274
  20274462.272   -22899015.582 9 -17816576.92648  20274464.083    20274472.3534
  22456156.636   -13086513.001 8  -9998156.97447  22456157.285    22456167.6454
  22798287.099   -10845629.132 8  -8435414.29246  22798294.781    22798307.5614
  23241575.844    -7121134.801 8  -5529501.01146  23241580.018    23241593.3614
  23980004.471    -6126142.728 8  -4755500.54445  23980012.616    23980025.8734
 00  4 29  0  2  0.0000000  0  6 17 26 23 06 09 10
  20314467.523   -23803181.557 9 -18533362.01748  20314470.429    20314479.4774
  20282922.525   -22854547.337 9 -17781926.34348  20282926.038    20282934.6854
  22446035.839   -13139699.305 8 -10039600.80347  22446036.458    22446045.9494
  22815121.239   -10757199.719 8  -8366508.38446  22815122.319    22815134.5744
  23222371.066    -7222070.985 8  -5608152.39546  23222372.678    23222384.9064
  23994842.739    -6048186.384 8  -4694755.40745  23994847.387    23994860.7624
 00  4 29  0  2 30.0000000  0  6 17 26 23 06 09 10
  20306969.567   -23842580.909 9 -18564062.78648  20306973.271    20306982.1744
  20291480.757   -22809578.403 9 -17746885.61548  20291482.801    20291491.5474
  22435936.423   -13192766.018 8 -10080951.45547  22435938.201    22435947.5704
  22831990.716   -10668513.704 8  -8297402.49946  22831998.144    22832010.9494
  23203194.483    -7322838.793 8  -5686672.58646  23203196.952    23203210.3294
  24009694.342    -5970188.644 8  -4633978.01245  24009689.510    24009701.4814
 00  4 29  0  3  0.0000000  0  6 17 26 23 06 09 10
  20299559.469   -23881518.458 9 -18594403.71048  20299563.389    20299572.4484
  20300127.205   -22764123.174 9 -17711465.94748  20300132.957    20300141.5164
  22425861.641   -13245710.180 8 -10122206.60847  22425863.229    22425873.5194
  22848921.746   -10579554.997 8  -8228084.14946  22848926.883    22848940.0324
  23184048.904    -7423450.352 8  -5765071.02746  23184051.077    23184064.1984
  24024530.697    -5892154.568 7  -4573172.30045  24024537.590    24024552.2734
 00  4 29  0  3 30.0000000  0  6 17 26 23 06 09 10
  20292241.824   -23919993.629 9 -18624384.33848  20292242.143    20292250.8914
  20308865.550   -22718220.736 9 -17675697.81948  20308868.119    20308876.4394
  22415805.898   -13298543.758 8 -10163375.58447  22415809.693    22415819.6724
  22865907.026   -10490313.428 8  -8158545.36646  22865909.844    22865921.4574
  23164933.216    -7523908.152 8  -5843349.65646  23164934.244    23164947.9074
  24039401.726    -5814082.835 8  -4512337.29345  24039394.365    24039408.2264
 00  4 29  0  4  0.0000000  0  6 17 26 23 06 09 10
  20285001.989   -23958023.843 9 -18654018.25448  20285004.984    20285013.9684
  20317685.094   -22671870.144 9 -17639580.46648  20317688.573    20317696.7184
  22405774.885   -13351258.314 8 -10204451.82347  22405778.347    22405787.7854
  22882940.894   -10400798.835 8  -8088793.85146  22882944.519    22882956.6344
  23145851.534    -7624206.229 8  -5921503.79446  23145848.718    23145861.2474
  24054259.795    -5735958.481 8  -4451461.26645  24054262.427    24054276.1634
 00  4 29  0  4 30.0000000  0  6 17 26 23 06 09 10
  20277849.729   -23995611.332 9 -18683307.18948  20277852.225    20277861.5144
  20326592.430   -22625063.392 9 -17603107.67848  20326595.594    20326603.9564
  22395764.697   -13403860.603 8 -10245440.59047  22395768.342    22395777.1434
  22900024.339   -10311028.314 8  -8018842.93146  22900026.690    22900038.2094
  23126788.583    -7724348.045 8  -5999536.17946  23126791.089    23126804.6354
  24069139.413    -5657775.662 7  -4390539.66345  24069140.412    24069153.5694
 00  4 29  0  5  0.0000000  0  6 17 26 23 06 09 10
  20270781.767   -24032746.582 9 -18712243.72548  20270786.166    20270794.7134
  20335585.654   -22577809.323 9 -17566286.32148  20335587.493    20335595.8514
  22385771.265   -13456373.377 8 -10286359.60547  22385774.384    22385784.6284
  22917153.576   -10221028.034 8  -7948712.92546  22917152.366    22917163.4944
  23107760.993    -7824326.672 8  -6077441.40446  23107765.753    23107778.6544
  24084016.519    -5579534.584 7  -4329572.68845  24084026.518    24084041.4844
 00  4 29  0  5 30.0000000  0  6 17 26 23 06 09 10
  20263801.660   -24069432.578 9 -18740830.19848  20263804.884    20263813.5944
  20344664.672   -22530097.683 9 -17529108.42348  20344666.988    20344675.1564
  22375799.095   -13508789.986 8 -10327203.69147  22375800.505    22375810.1304
  22934317.258   -10130820.718 8  -7878421.61646  22934318.803    22934331.5264
  23088767.956    -7924133.514 8  -6155212.78746  23088773.622    23088786.0424
  24098924.641    -5501226.785 8  -4268553.73045  24098929.639    24098943.9044
 00  4 29  0  6  0.0000000  0  6 17 26 23 06 09 10
  20256909.283   -24105649.071 9 -18769050.81148  20256912.698    20256921.7364
  20353832.457   -22481909.823 9 -17491559.45148  20353836.730    20353844.9914
  22365847.073   -13561091.448 8 -10367958.03847  22365847.764    22365856.8834
  22951510.768   -10040425.420 8  -7807983.84846  22951520.657    22951533.4154
  23069814.477    -8023780.161 8  -6232859.33646  23069812.350    23069824.1734
  24113842.110    -5422857.251 8  -4207486.60145  24113844.210    24113857.0214
 00  4 29  0  6 30.0000000  0  6 17 26 23 06 09 10
  20250112.116   -24141371.974 9 -18796886.81748  20250114.987    20250123.8544
  20363091.052   -22433256.795 9 -17453647.99348  20363094.932    20363103.9054
  22355914.013   -13613284.331 8 -10408627.77247  22355915.285    22355925.5864
  22968756.935    -9949839.577 8  -7737397.58746  22968759.124    22968771.1784
  23050874.425    -8123267.295 8  -6310381.58446  23050879.377    23050892.2034
  24128760.240    -5344445.321 8  -4146386.49045  24128764.216    24128780.3794
 00  4 29  0  7  0.0000000  0  6 17 26 23 06 09 10
  20243409.133   -24176594.459 9 -18824332.88548  20243412.110    20243421.1564
  20372437.893   -22384140.339 9 -17415375.43148  20372441.375    20372449.9644
  22346002.895   -13665361.292 8 -10449207.17347  22346005.420    22346016.0294
  22986027.196    -9859051.068 8  -7666653.44146  22986034.613    22986047.9274
  23031973.730    -8222584.570 8  -6387771.51546  23031979.108    23031992.0934
  24143689.041    -5265990.337 8  -4085252.82945  24143694.400    24143707.2974
 00  4 29  0  7 30.0000000  0  6 17 26 23 06 09 10
  20236803.244   -24211317.674 9 -18851389.91548  20236804.659    20236813.5814
  20381875.352   -22334557.290 9 -17376739.28648  20381876.989    20381885.3634
  22336120.309   -13717311.345 8 -10489687.69347  22336119.899    22336129.5144
  23003345.521    -9768048.463 8  -7595742.44646  23003351.341    23003363.9174
  23013106.967    -8321725.391 8  -6465023.87746  23013113.194    23013126.1364
  24158624.840    -5187501.049 7  -4024092.44745  24158629.850    24158644.4674
 00  4 29  0  8  0.0000000  0  6 17 26 23 06 09 10
  20230289.491   -24245543.093 9 -18878059.04948  20230291.785    20230300.5444
  20391394.832   -22284519.065 9 -17337748.44748  20391398.690    20391407.4024
  22326249.656   -13769146.984 8 -10530079.06247  22326255.365    22326265.3294
  23020706.810    -9676827.279 8  -7524661.09946  23020711.834    23020723.8114
  22994284.827    -8420676.977 8  -6542128.82746  22994284.771    22994295.5734
  24173570.109    -5108985.293 8  -3962911.37545  24173572.531    24173583.7794
 00  4 29  0  8 30.0000000  0  6 17 26 23 06 09 10
  20223866.920   -24279286.793 9 -18904352.80148  20223870.536    20223879.5684
  20401004.656   -22234026.304 9 -17298403.44248  20401007.510    20401015.9924
  22316411.748   -13820877.480 8 -10570388.48547  22316412.107    22316421.9014
  23038107.660    -9585392.270 8  -7453413.17246  23038111.536    23038123.0634
  22975497.880    -8519408.058 8  -6619061.97046  22975495.674    22975507.1224
  24188508.032    -5030437.765 7  -3901705.56045  24188518.822    24188531.9214
 00  4 29  0  9  0.0000000  0  6 17 26 23 06 09 10
  20217536.078   -24312563.595 9 -18930282.75748  20217538.338    20217547.0864
  20410699.196   -22183077.293 9 -17258702.91848  20410703.080    20410711.0604
  22306588.733   -13872493.792 9 -10610608.94247  22306590.080    22306599.5354
  23055551.872    -9493759.499 8  -7382011.11646  23055548.843    23055560.0914
  22956741.084    -8617902.232 8  -6695810.51046  22956751.393    22956764.1454
  24203468.893    -4951847.561 7  -3840466.51245  24203473.819    24203488.8004
 00  4 29  0  9 30.0000000  0  6 17 26 23 06 09 10
  20211292.739   -24345375.225 9 -18955850.22248  20211294.399    20211303.0174
  20420482.582   -22131673.473 9 -17218647.99248  20420484.775    20420492.8964
  22296785.992   -13924006.478 9 -10650748.64347  22296787.994    22296796.2284
  23073014.646    -9401944.243 8  -7310466.89346  23073020.654    23073032.3984
  22938043.555    -8716154.202 8  -6772370.31946  22938054.437    22938068.2674
  24218437.754    -4873213.619 8  -3779193.39745  24218437.612    24218451.6514
 00  4 29  0 10  0.0000000  0  6 17 26 23 06 09 10
  20205138.590   -24377711.638 9 -18981047.40148  20205140.892    20205149.7094
  20430349.051   -22079822.233 9 -17178244.42648  20430351.484    20430359.7734
  22286999.718   -13975419.422 9 -10690810.64147  22287004.137    22287013.3094
  23090525.307    -9309954.567 8  -7238786.74946  23090525.632    23090537.6444
  22919400.010    -8814169.964 8  -6848746.02146  22919402.716    22919416.1804
  24233404.791    -4794532.526 8  -3717883.53845  24233410.796    24233422.6844
 00  4 29  0 10 30.0000000  0  6 17 26 23 06 09 10
  20199074.550   -24409568.628 9 -19005871.00148  20199078.674    20199087.9914
  20440301.319   -22027520.960 9 -17137490.18848  20440303.901    20440312.3614
  22277239.482   -14026729.688 9 -10730792.61547  22277240.312    22277249.4264
  23108065.302    -9217789.848 8  -7166970.21446  23108064.773    23108076.2594
  22900786.396    -8911965.152 8  -6924949.87846  22900793.244    22900805.3994
  24248389.754    -4715810.626 8  -3656541.79445  24248390.597    24248402.8574
 00  4 29  0 11  0.0000000  0  6 17 26 23 06 09 10
  20193105.589   -24440940.695 9 -19030316.72448  20193108.856    20193117.9734
  20450340.238   -21974770.377 9 -17096385.84248  20450341.801    20450350.6234
  22267487.515   -14077943.764 8 -10770699.62147  22267493.656    22267503.7524
  23125636.423    -9125435.894 8  -7095006.21246  23125639.820    23125650.6934
  22882221.878    -9009562.506 8  -7000999.59846  22882221.853    22882232.9394
  24263381.661    -4637049.980 7  -3595169.94045  24263377.999    24263391.2304
 00  4 29  0 11 30.0000000  0  6 17 26 23 06 09 10
  20187230.147   -24471809.584 9 -19054370.37648  20187234.387    20187243.6604
  20460460.427   -21921572.639 9 -17054933.05848  20460464.732    20460473.8154
  22257762.614   -14129067.123 8 -10810535.95347  22257765.347    22257775.7124
  23143244.738    -9032893.036 8  -7022894.97946  23143249.142    23143260.8874
  22863677.375    -9106978.520 8  -7076908.01246  22863682.569    22863695.8024
  24278371.676    -4558253.567 8  -3533770.23245  24278372.245    24278386.0904
 00  4 29  0 12  0.0000000  0  6 17 26 23 06 09 10
  20181453.389   -24502178.151 9 -19078034.16848  20181455.705    20181464.3714
  20470669.945   -21867932.433 9 -17013135.49248  20470672.596    20470681.4244
  22248055.213   -14180082.750 9 -10850288.33747  22248057.323    22248067.0974
  23160890.089    -8940165.438 8  -6950639.84046  23160894.841    23160906.9534
  22845176.839    -9204214.707 8  -7152676.29346  22845180.062    22845192.2174
  24293372.988    -4479425.940 7  -3472346.17445  24293372.842    24293387.8044
 00  4 29  0 12 30.0000000  0  6 17 26 23 06 09 10
  20175769.247   -24532043.174 9 -19101305.58248  20175772.415    20175781.6444
  20480961.858   -21813847.496 9 -16970991.38348  20480964.854    20480973.4754
  22238368.981   -14230982.511 9 -10889950.44247  22238371.398    22238381.0284
  23178569.488    -8847257.404 8  -6878244.09746  23178574.775    23178586.1754
  22826707.045    -9301255.111 8  -7228292.00346  22826713.516    22826725.2674
  24308374.662    -4400567.866 8  -3410898.39945  24308379.422    24308394.0444
 00  4 29  0 13  0.0000000  0  6 17 26 23 06 09 10
  20170184.456   -24561391.302 9 -19124174.21748  20170187.425    20170196.5044
  20491337.433   -21759329.272 9 -16928509.65348  20491339.225    20491347.7684
  22228707.027   -14281764.264 9 -10929520.58447  22228708.091    22228718.0224
  23196285.679    -8754181.443 8  -6805717.51846  23196286.095    23196298.3254
  22808293.880    -9398075.558 8  -7303736.33546  22808288.961    22808300.4894
  24323398.810    -4321674.890 7  -3349423.40445  24323392.614    24323405.4584
 00  4 29  0 13 30.0000000  0  6 17 26 23 06 09 10
  20164699.279   -24590217.661 9 -19146636.27748  20164702.127    20164710.6154
  20501791.277   -21704382.685 9 -16885694.13148  20501795.417    20501803.9264
  22219063.661   -14332416.996 8 -10968990.20247  22219069.233    22219078.9224
  23214020.849    -8660958.418 8  -6733076.30446  23214025.722    23214037.7934
  22789910.339    -9494662.840 8  -7378998.98346  22789909.711    22789920.9654
  24338414.478    -4242747.507 7  -3287921.63245  24338412.312    24338424.7914
 00  4 29  0 14  0.0000000  0  6 17 26 23 06 09 10
  20159312.424   -24618526.637 9 -19168695.18348  20159315.148    20159323.9554
  20512327.304   -21649003.057 9 -16842541.17048  20512333.420    20512342.2214
  22209452.583   -14382938.167 9 -11008357.29747  22209454.765    22209464.7114
  23231796.952    -8567581.193 8  -6660314.94646  23231795.220    23231807.1194
  22771568.863    -9591001.481 8  -7454067.88746  22771576.211    22771588.2914
  24353433.603    -4163788.638 7  -3226395.31445  24353437.213    24353450.6004
 00  4 29  0 14 30.0000000  0  6 17 26 23 06 09 10
  20154026.211   -24646306.584 9 -19190341.86148  20154028.452    20154037.8034
  20522949.956   -21593191.374 9 -16799051.54948  20522953.944    20522962.6344
  22199857.891   -14433343.865 9 -11047634.40447  22199862.854    22199873.4514
  23249590.199    -8474042.327 8  -6587427.63446  23249594.789    23249607.8174
  22753282.611    -9687097.110 8  -7528947.42646  22753290.561    22753301.5874
  24368470.398    -4084797.572 7  -3164843.87045  24368468.836    24368481.8664
 00  4 29  0 15  0.0000000  0  6 17 26 23 06 09 10
  20148839.375   -24673563.966 9 -19211581.34848  20148841.660    20148850.4574
  20533655.423   -21536941.860 9 -16755220.76348  20533657.761    20533666.7454
  22190294.791   -14483638.166 9 -11086824.70847  22190293.181    22190302.8534
  23267427.801    -8380347.597 8  -6514418.89246  23267425.394    23267436.9304
  22735052.077    -9782961.119 8  -7603646.46946  22735047.803    22735059.0084
  24383504.325    -4005765.461 7  -3103260.47645  24383506.813    24383522.4234
 00  4 29  0 15 30.0000000  0  6 17 26 23 06 09 10
  20143747.391   -24700312.981 9 -19232424.70548  20143751.538    20143760.5454
  20544443.446   -21480242.552 9 -16711039.47848  20544447.538    20544455.8304
  22180741.765   -14533815.271 9 -11125923.69147  22180744.853    22180754.4664
  23285284.293    -8286490.056 8  -6441283.26646  23285286.429    23285298.2624
  22716839.064    -9878603.002 8  -7678172.42946  22716847.513    22716859.0324
  24398540.159    -3926684.878 7  -3041639.34745  24398555.212    24398570.4014
 00  4 29  0 16  0.0000000  0  6 17 26 23 06 09 10
  20138754.238   -24726561.646 9 -19252878.18148  20138756.524    20138765.3384
  20555318.514   -21423103.551 9 -16666515.58048  20555320.739    20555329.3444
  22171214.687   -14583881.276 9 -11164936.10447  22171216.776    22171226.4274
  23303179.177    -8192460.906 8  -6368013.91346  23303178.346    23303191.1024
  22698688.833    -9974028.576 8  -7752529.85646  22698688.746    22698699.7884
  24413617.894    -3847558.734 7  -2979982.67445  24413613.088    24413628.2434
 00  4 29  0 16 30.0000000  0  6 17 26 23 06 09 10
  20133854.137   -24752318.431 9 -19272948.37648  20133855.262    20133863.9554
  20566270.005   -21365530.587 9 -16621653.52848  20566275.764    20566284.8384
  22161707.143   -14633831.894 8 -11203858.60147  22161710.531    22161721.2194
  23321103.567    -8098272.460 8  -6294620.41646  23321102.763    23321114.8144
  22680574.780   -10069232.720 8  -7826714.74746  22680571.232    22680583.8144
  24428689.372    -3768380.518 7  -2918285.44045  24428681.364    24428694.5304
 00  4 29  0 17  0.0000000  0  6 17 26 23 06 09 10
  20129040.445   -24777596.581 9 -19292645.60648  20129044.988    20129053.5214
  20577309.755   -21307527.713 9 -16576456.48248  20577313.810    20577322.5324
  22152222.863   -14683665.737 8 -11242690.10447  22152227.931    22152238.5414
  23339056.221    -8003931.988 8  -6221108.50546  23339053.975    23339068.4504
  22662497.860   -10164197.366 8  -7900712.97346  22662500.205    22662511.8214
  24443747.908    -3689143.765 7  -2856542.60445  24443759.738    24443774.1534
 00  4 29  0 17 30.0000000  0  6 17 26 23 06 09 10
  20124322.807   -24802399.701 9 -19311972.68348  20124325.236    20124333.8414
  20588427.595   -21249114.069 9 -16530939.34948  20588429.722    20588437.8294
  22142763.761   -14733391.118 9 -11281437.08447  22142765.752    22142776.3674
  23357030.162    -7909434.162 8  -6147473.97146  23357037.650    23357049.6704
  22644464.994   -10258913.332 8  -7974517.44446  22644477.278    22644487.9704
  24458847.714    -3609858.871 7  -2794762.27045  24458847.446    24458860.6794
 00  4 29  0 18  0.0000000  0  6 17 26 23 06 09 10
  20119693.607   -24826717.141 9 -19330921.31348  20119697.676    20119706.2454
  20599620.826   -21190299.014 9 -16485109.44348  20599622.545    20599630.2304
  22133321.066   -14783013.053 9 -11320103.47347  22133322.660    22133333.2124
  23375045.931    -7814785.611 8  -6073721.98746  23375048.368    23375061.2534
  22626500.728   -10353363.353 8  -8048114.67946  22626501.920    22626513.7014
  24473935.970    -3530535.050 7  -2732951.58045  24473942.502    24473956.5974
 00  4 29  0 18 30.0000000  0  6 17 26 23 06 09 10
  20115162.871   -24850535.062 9 -19349480.70748  20115165.437    20115173.7474
  20610885.072   -21131082.942 9 -16438967.04048  20610890.486    20610898.7874
  22123895.870   -14832539.642 9 -11358695.54947  22123897.604    22123908.5364
  23393084.682    -7719989.343 8  -5999854.87946  23393087.761    23393100.7454
  22608586.633   -10447522.096 8  -8121484.97346  22608584.716    22608596.4154
  24489046.978    -3451172.157 7  -2671110.41745  24489044.230    24489057.6734
 00  4 29  0 19  0.0000000  0  6 17 26 23 06 09 10
  20110728.474   -24873835.444 9 -19367636.81748  20110731.355    20110739.7704
  20622227.025   -21071483.212 9 -16392525.67948  20622231.261    20622240.0564
  22114488.138   -14881983.388 9 -11397223.06847  22114489.635    22114498.7114
  23411155.095    -7625049.631 8  -5925876.00646  23411154.462    23411166.7004
  22590716.459   -10541397.010 8  -8194634.11846  22590721.865    22590731.5654
  24504155.611    -3371777.020 7  -2609244.18945  24504152.238    24504167.0324
 00  4 29  0 19 30.0000000  0  6 17 26 23 06 09 10
  20106399.625   -24896591.306 9 -19385368.63148  20106401.154    20106409.7864
  20633642.755   -21011503.871 9 -16345788.53648  20633645.155    20633653.8494
  22105099.048   -14931326.580 9 -11435672.27847  22105100.157    22105109.0004
  23429244.659    -7529968.362 8  -5851786.82146  23429247.400    23429259.3434
  22572909.445   -10634989.016 8  -8267562.80246  22572910.641    22572922.1024
  24519265.235    -3292360.421 7  -2547361.16245  24519263.848    24519278.4584
 00  4 29  0 20  0.0000000  0  6 17 26 23 06 09 10
  20102174.830   -24918781.128 9 -19402659.37848  20102178.082    20102187.3154
  20645127.426   -20951145.265 9 -16298755.86648  20645131.739    20645139.7244
  22095730.525   -14980560.180 9 -11474036.05347  22095731.366    22095740.0504
  23447370.276    -7434750.268 8  -5777591.01446  23447367.168    23447379.0714
  22555153.828   -10728289.977 8  -8340264.65146  22555155.734    22555167.6954
  24534375.079    -3212910.973 7  -2485452.57545  24534383.750    24534397.5074
 00  4 29  0 20 30.0000000  0  6 17 26 23 06 09 10
  20098063.514   -24940396.262 9 -19419502.32348  20098065.336    20098073.7194
  20656684.265   -20890417.316 9 -16251435.38948  20656687.554    20656696.0524
  22086379.569   -15029694.637 9 -11512322.60547  22086380.814    22086390.9764
  23465507.237    -7339399.345 8  -5703291.71645  23465512.202    23465523.1894
  22537446.385   -10821312.839 8  -8412749.82546  22537454.242    22537466.2764
  24549510.453    -3133425.441 7  -2423515.88345  24549510.095    24549524.6404
 00  4 29  0 21  0.0000000  0  6 17 26 23 06 09 10
  20094056.272   -24961436.278 9 -19435897.12048  20094061.433    20094069.8994
  20668312.374   -20829320.034 9 -16203827.12148  20668314.047    20668322.4214
  22077053.446   -15078715.411 9 -11550520.54747  22077052.766    22077062.8394
  23483675.979    -7243929.723 8  -5628899.88945  23483679.147    23483690.9184
  22519805.419   -10914073.037 8  -8485030.36146  22519803.740    22519813.6574
  24564646.329    -3053893.883 7  -2361543.31745  24564644.676    24564657.4914
 00  4 29  0 21 30.0000000  0  6 17 26 23 06 09 10
  20090163.000   -24981911.971 9 -19451852.19848  20090165.097    20090173.6454
  20680014.302   -20767826.533 9 -16155910.10048  20680015.894    20680024.8924
  22067743.787   -15127615.526 9 -11588624.49247  22067747.135    22067757.4594
  23501869.930    -7148332.572 8  -5554408.71946  23501871.159    23501884.0994
  22502202.005   -11006559.424 8  -8557097.52346  22502203.694    22502214.3094
  24579791.128    -2974309.232 7  -2299529.38245  24579788.326    24579803.0864
 00  4 29  0 22  0.0000000  0  6 17 26 23 06 09 10
  20086369.067   -25001846.071 9 -19467385.25648  20086371.640    20086380.4534
  20691791.950   -20705929.390 9 -16107678.57248  20691794.877    20691803.1134
  22058458.720   -15176416.681 9 -11626651.31647  22058460.413    22058470.0454
  23520080.487    -7052616.855 8  -5479825.16845  23520084.015    23520097.5134
  22484647.924   -11098771.477 8  -8628950.90446  22484654.989    22484666.5834
  24594927.578    -2894669.010 7  -2237472.10145  24594941.909    24594957.7604
 00  4 29  0 22 30.0000000  0  6 17 26 23 06 09 10
  20082676.696   -25021250.891 9 -19482505.88548  20082678.941    20082687.6654
  20703651.179   -20643617.196 9 -16059123.63148  20703652.668    20703660.3894
  22049194.037   -15225115.035 9 -11664598.05147  22049194.079    22049203.3424
  23538314.791    -6956792.558 8  -5405156.99745  23538320.194    23538331.0504
  22467154.631   -11190718.507 8  -8700597.79346  22467158.578    22467169.0504
  24610083.595    -2814982.735 7  -2175379.02844  24610103.930    24610124.3954
 00  4 29  0 23  0.0000000  0  6 17 26 23 06 09 10
  20079082.652   -25040135.743 9 -19497221.35848  20079085.221    20079094.1454
  20715589.753   -20580876.622 9 -16010234.89148  20715591.444    20715599.3024
  22039945.439   -15273694.134 9 -11702451.83047  22039948.724    22039959.1554
  23556574.904    -6860865.766 8  -5330408.95745  23556574.008    23556587.0454
  22449708.741   -11282397.605 8  -8772035.90646  22449713.325    22449723.1884
  24625277.750    -2735251.956 7  -2113251.19745  24625279.554    24625294.1564
 00  4 29  0 23 30.0000000  0  6 17 26 23 06 09 10
  20075587.712   -25058502.079 9 -19511532.78348  20075590.272    20075599.4334
  20727606.756   -20517712.074 9 -15961015.76348  20727611.020    20727619.8354
  22030724.139   -15322157.754 8 -11740215.66247  22030726.238    22030736.8124
  23574843.308    -6764829.037 8  -5255575.25145  23574849.381    23574861.1854
  22432314.837   -11373795.704 8  -8843255.06046  22432320.195    22432331.2494
  24640463.773    -2655492.661 7  -2051101.13645  24640458.313    24640471.2234
 00  4 29  0 24  0.0000000  0  6 17 26 23 06 09 10
  20072191.152   -25076346.745 9 -19525437.70948  20072194.378    20072203.1634
  20739702.338   -20454157.501 9 -15911492.74048  20739704.924    20739713.8444
  22021524.501   -15370505.335 9 -11777889.09747  22021526.970    22021535.1084
  23593140.905    -6668703.716 8  -5180672.48645  23593141.942    23593154.1084
  22414983.605   -11464909.269 8  -8914252.52546  22414981.544    22414992.5064
  24655643.096    -2575714.226 7  -1988936.19445  24655640.799    24655652.6894
 00  4 29  0 24 30.0000000  0  6 17 26 23 06 09 10
  20068897.754   -25093657.574 9 -19538926.65348  20068900.459    20068909.0304
  20751866.042   -20390235.533 9 -15861683.43447  20751868.925    20751877.1884
  22012350.939   -15418723.772 9 -11815461.87047  22012351.053    22012360.0734
  23611449.671    -6572493.478 8  -5105703.61745  23611449.996    23611464.5564
  22397693.414   -11555735.462 8  -8985026.04146  22397697.387    22397708.9244
  24670836.449    -2495904.197 7  -1926746.60245  24670826.152    24670838.9684
 00  4 29  0 25  0.0000000  0  6 17 26 23 06 09 10
  20065703.926   -25110434.024 9 -19551999.19848  20065707.848    20065716.8514
  20764099.287   -20325962.956 9 -15811600.91647  20764099.901    20764108.0474
  22003197.013   -15466816.664 9 -11852936.81847  22003198.455    22003208.5534
  23629777.921    -6476193.781 8  -5030665.04345  23629775.471    23629787.7294
  22380473.291   -11646250.864 8  -9055557.39546  22380473.116    22380483.5754
  24686013.961    -2416055.221 7  -1864526.68844  24686019.833    24686033.7414
 00  4 29  0 25 30.0000000  0  6 17 26 23 06 09 10
  20062615.950   -25126672.056 9 -19564652.20048  20062617.821    20062626.6794
  20776392.925   -20261350.845 9 -15761253.84647  20776395.036    20776402.9164
  21994068.938   -15514796.659 9 -11890323.78647  21994068.898    21994078.3774
  23648115.984    -6379805.868 8  -4955557.70345  23648118.180    23648129.0094
  22363307.471   -11736438.172 8  -9125833.08746  22363310.802    22363321.5584
  24701207.889    -2336162.555 7  -1802272.72545  24701223.691    24701237.0284
 00  4 29  0 26  0.0000000  0  6 17 26 23 06 09 10
  20059627.106   -25142374.760 9 -19576888.05248  20059629.934    20059638.3614
  20788754.695   -20196393.808 9 -15710637.98847  20788755.991    20788764.2804
  21984956.253   -15562670.151 9 -11927627.77847  21984958.801    21984968.1864
  23666467.692    -6283342.413 8  -4880391.46345  23666472.715    23666485.8284
  22346204.359   -11826298.629 8  -9195854.07846  22346210.170    22346222.0484
  24716430.229    -2256211.552 7  -1739973.30845  24716438.296    24716454.6044
 00  4 29  0 26 30.0000000  0  6 17 26 23 06 09 10
  20056742.770   -25157532.612 9 -19588699.34848  20056745.541    20056753.9644
  20801184.308   -20131070.464 9 -15659736.71247  20801187.104    20801194.9474
  21975867.049   -15610443.272 9 -11964853.58047  21975868.017    21975877.1034
  23684851.056    -6186790.619 8  -4805156.41445  23684847.099    23684859.9734
  22329173.893   -11915831.555 8  -9265619.86446  22329172.868    22329184.2764
  24731675.996    -2176192.816 7  -1677621.10745  24731665.513    24731679.5094
 00  4 29  0 27  0.0000000  0  6 17 26 23 06 09 10
  20053961.518   -25172147.330 9 -19600087.41148  20053964.094    20053973.0374
  20813688.432   -20065355.459 9 -15608530.22547  20813692.017    20813700.4114
  21966789.087   -15658129.137 9 -12002011.36447  21966793.631    21966802.4494
  23703234.311    -6090145.202 8  -4729848.45245  23703238.466    23703250.3334
  22312193.921   -12005033.642 8  -9335127.84647  22312198.913    22312209.2884
  24746915.475    -2096124.086 7  -1615229.96745  24746902.574    24746917.3204
 00  4 29  0 27 30.0000000  0  6 17 26 23 06 09 10
  20051285.943   -25186212.690 9 -19611047.41648  20051287.698    20051296.5434
  20826265.008   -19999254.088 9 -15557022.68847  20826270.029    20826279.0014
  21957734.022   -15705732.239 9 -12039104.65347  21957735.246    21957744.2234
  23721641.760    -5993414.414 8  -4654473.92745  23721645.025    23721658.0034
  22295274.986   -12093919.430 8  -9404389.39046  22295283.223    22295294.6194
  24762146.929    -2016015.086 7  -1552807.38844  24762145.747    24762161.5754
 00  4 29  0 28  0.0000000  0  6 17 26 23 06 09 10
  20048711.917   -25199728.317 9 -19621579.05648  20048715.720    20048724.6494
  20838917.948   -19932777.231 9 -15505222.55847  20838920.276    20838928.7694
  21948693.818   -15753234.815 9 -12076119.60847  21948695.271    21948704.7494
  23740066.083    -5896596.368 8  -4579031.40945  23740069.260    23740081.6114
  22278427.705   -12182496.048 8  -9473409.98047  22278428.603    22278438.8554
  24777393.801    -1935876.830 7  -1490362.08644  24777394.280    24777410.2174
 00  4 29  0 28 30.0000000  0  6 17 26 23 06 09 10
  20046249.730   -25212676.973 9 -19631668.89648  20046251.550    20046260.6434
  20851638.567   -19865928.380 9 -15453132.54447  20851641.447    20851649.3964
  21939675.525   -15800625.714 9 -12113047.53147  21939677.513    21939685.9064
  23758506.170    -5799681.885 8  -4503513.76445  23758511.910    23758525.2554
  22261625.649   -12270759.650 8  -9542186.71047  22261632.715    22261642.9734
  24792641.676    -1855714.881 7  -1427898.32744  24792649.569    24792665.1654
 00  4 29  0 29  0.0000000  0  5 17 26 23 06 09
  20043889.513   -25225067.005 9 -19641323.44048  20043893.435    20043902.5664
  20864426.376   -19798727.721 9 -15400768.41247  20864429.577    20864437.5704
  21930678.395   -15847897.047 9 -12149882.28147  21930681.331    21930691.0954
  23776966.572    -5702679.595 8  -4427927.67345  23776970.340    23776983.2644
  22244894.452   -12358703.117 8  -9610713.98146  22244896.576    22244906.6404
 00  4 29  0 29 30.0000000  0  5 17 26 23 06 09
  20041639.120   -25236893.728 9 -19650539.05148  20041643.414    20041652.0374
  20877276.055   -19731196.888 9 -15348147.00547  20877280.156    20877288.1484
  21921705.074   -15895038.197 8 -12186615.58547  21921710.404    21921720.2094
  23795438.934    -5605602.167 8  -4352283.05845  23795444.240    23795457.7554
  22228220.794   -12446324.450 8  -9678990.21546  22228223.415    22228233.5024
 00  4 29  0 30  0.0000000  0  5 17 26 23 06 09
  20039498.007   -25248154.651 9 -19659313.77548  20039500.545    20039509.0974
  20890192.230   -19663324.017 9 -15295259.06147  20890195.737    20890204.2684
  21912763.053   -15942044.892 9 -12223244.13147  21912765.754    21912775.0414
  23813923.169    -5508445.002 8  -4276576.27745  23813932.161    23813945.1794
  22211612.582   -12533612.708 8  -9747006.93546  22211613.264    22211623.3524
 00  4 29  0 30 30.0000000  0  5 17 26 23 06 09
  20037461.027   -25258850.032 9 -19667647.82348  20037464.941    20037473.5664
  20903171.497   -19595104.986 9 -15242101.37247  20903177.325    20903185.9584
  21903841.116   -15988931.265 9 -12259778.94847  21903843.621    21903852.9914
  23832421.276    -5411210.183 8  -4200809.00745  23832434.576    23832448.8164
  22195065.488   -12620559.681 8  -9814757.71946  22195067.061    22195076.7894
 00  4 29  0 31  0.0000000  0  5 17 26 23 06 09
  20035530.643   -25269003.500 9 -19675559.60248  20035532.763    20035541.4364
  20916218.512   -19526555.659 9 -15188686.31147  20916221.766    20916230.4784
  21894939.390   -16035708.315 9 -12296228.57847  21894942.426    21894951.4514
  23850960.220    -5313910.412 8  -4124991.11645  23850951.285    23850964.2454
  22178579.766   -12707166.577 8  -9882243.50846  22178585.968    22178595.8484
 00  4 29  0 31 30.0000000  0  5 17 26 23 06 09
  20033703.627   -25278602.806 9 -19683039.57348  20033705.961    20033714.8494
  20929325.825   -19457672.328 9 -15135010.99247  20929329.754    20929338.5284
  21886061.235   -16082372.628 9 -12332590.37347  21886062.129    21886071.8064
  23869485.212    -5216553.524 8  -4049128.74345  23869478.426    23869492.1064
  22162168.083   -12793433.872 8  -9949464.66446  22162169.879    22162180.2714
 00  4 29  0 32  0.0000000  0  5 17 26 23 06 09
  20031982.466   -25287642.762 9 -19690083.68748  20031986.131    20031994.7874
  20942499.245   -19388448.933 9 -15081070.69747  20942503.393    20942511.4974
  21877199.867   -16128927.896 9 -12368867.20847  21877203.143    21877212.7314
  23887997.326    -5119132.509 7  -3973216.44545  23888014.719    23888029.7984
  22145814.481   -12879352.573 8 -10016414.18347  22145819.914    22145830.7594
 00  4 29  0 32 30.0000000  0  5 17 26 23 06 09
  20030369.115   -25296118.768 9 -19696688.36048  20030372.925    20030381.6044
  20955737.690   -19318889.810 9 -15026868.79547  20955739.734    20955747.8984
  21868361.987   -16175373.886 9 -12405058.86847  21868364.329    21868374.4044
  23906557.615    -5021663.522 8  -3897266.72045  23906564.313    23906577.2824
  22129536.581   -12964924.007 8 -10083093.09347  22129536.763    22129547.4254
 00  4 29  0 33  0.0000000  0  5 17 26 23 06 09
  20028867.274   -25304011.501 9 -19702838.53248  20028871.059    20028879.7974
  20969036.624   -19248992.405 9 -14972403.28647  20969040.803    20969049.1564
  21859542.837   -16221707.416 9 -12441162.87347  21859547.155    21859556.3404
  23925118.854    -4924157.637 8  -3821288.22145  23925118.768    23925131.5524
  22113317.772   -13050149.582 8 -10149502.52147  22113318.813    22113329.3334
 00  4 29  0 33 30.0000000  0  6 17 03 26 23 06 09
  20027482.009   -25311299.001 9 -19708517.08248  20027484.309    20027493.0614
  24638070.634    -1400202.72118   -957138.85155  24638074.142    24638085.6144
  20982404.933   -19178746.487 9 -14917666.20547  20982407.875    20982416.3064
  21850750.600   -16267922.260 9 -12477174.40247  21850753.335    21850761.8074
  23943668.339    -4826612.151 8  -3745278.86845  23943681.985    23943695.2234
  22097166.215   -13135021.961 8 -10215636.70747  22097167.963    22097178.1814
 00  4 29  0 34  0.0000000  0  6 17 03 26 23 06 09
  20026207.665   -25317987.835 9 -19713729.13848  20026211.301    20026220.1174
  24630395.548    -1440524.184 7   -988558.01545  24630399.710    24630409.6894
  20995838.037   -19108143.861 9 -14862651.17447  20995842.949    20995851.5624
  21841974.744   -16314027.039 9 -12513100.20147  21841979.410    21841988.9034
  23962245.731    -4729021.577 8  -3669234.40645  23962251.395    23962266.0544
  22081077.681   -13219545.102 8 -10281498.77547  22081083.879    22081093.6634
 00  4 29  0 34 30.0000000  0  6 17 03 26 23 06 09
  20025044.602   -25324090.881 9 -19718484.72548  20025049.791    20025058.5324
  24622821.659    -1480341.407 7  -1019584.28245  24622821.067    24622834.5704
  21009343.172   -19037190.433 9 -14807362.79547  21009345.235    21009353.4354
  21833225.062   -16360023.058 9 -12548941.20447  21833227.163    21833236.2944
  23980830.260    -4631393.138 8  -3593160.44045  23980830.858    23980845.1774
  22065069.079   -13303711.499 8 -10347082.86647  22065067.435    22065077.1144
 00  4 29  0 35  0.0000000  0  6 17 03 26 23 06 09
  20023994.362   -25329618.593 9 -19722792.00448  20023998.001    20024006.7104
  24615337.445    -1519640.005 7  -1050206.44345  24615343.551    24615357.0604
  21022908.676   -18965891.321 9 -14751805.05147  21022912.748    21022921.8394
  21824492.645   -16405912.943 9 -12584699.52047  21824494.660    21824503.7974
  23999406.770    -4533716.616 7  -3517049.01845  23999418.386    23999430.9924
  22049116.402   -13387507.959 8 -10412378.71747  22049121.391    22049131.3194
 00  4 29  0 35 30.0000000  0  6 17 03 26 23 06 09
  20023048.790   -25334589.236 9 -19726665.20848  20023051.832    20023060.9344
  24607959.215    -1558418.846 7  -1080423.58345  24607963.057    24607977.1034
  21036540.916   -18894253.508 9 -14695983.37547  21036545.030    21036553.5924
  21815783.902   -16451688.321 9 -12620368.58747  21815784.017    21815793.2144
  24018009.339    -4435986.319 8  -3440895.64345  24018015.636    24018028.9894
  22033248.512   -13470922.879 8 -10477377.22447  22033247.705    22033258.1174
 00  4 29  0 36  0.0000000  0  6 17 03 26 23 06 09
  20022207.637   -25339011.438 9 -19730111.06348  20022210.067    20022219.2624
  24600676.793    -1596682.414 7  -1110239.23245  24600683.390    24600695.2994
  21050235.256   -18822289.100 9 -14639907.21647  21050239.419    21050248.0094
  21807093.073   -16497343.008 9 -12655943.61547  21807096.238    21807104.5114
  24036625.764    -4338206.097 8  -3364703.38045  24036623.317    24036634.7564
  22017445.215   -13553951.053 8 -10542074.41047  22017448.377    22017458.1814
 00  4 29  0 36 30.0000000  0  6 17 03 26 23 06 09
  20021469.195   -25342887.257 9 -19733131.15948  20021472.958    20021481.7934
  24593504.464    -1634427.316 7  -1139650.75445  24593500.847    24593514.3254
  21063990.702   -18750017.999 9 -14583592.07447  21063992.520    21064000.7194
  21798426.937   -16542863.139 9 -12691413.81147  21798433.151    21798442.1874
  24055229.294    -4240387.452 7  -3288481.17245  24055235.705    24055250.7504
  22001722.911   -13636578.328 8 -10606459.18847  22001724.258    22001734.7664
 00  4 29  0 37  0.0000000  0  6 17 03 26 23 06 09
  20020839.173   -25346210.555 9 -19735720.72048  20020840.596    20020849.2604
  24586412.843    -1671659.199 7  -1168662.46645  24586415.865    24586428.2654
  21077798.056   -18677452.609 9 -14527047.62247  21077801.099    21077809.6054
  21789794.859   -16588236.445 9 -12726769.59247  21789798.749    21789808.3074
  24073861.892    -4142548.939 8  -3212243.48745  24073855.838    24073869.8794
  21986069.539   -13718813.682 8 -10670538.55847  21986075.388    21986086.0644
 00  4 29  0 37 30.0000000  0  7 17 03 26 23 06 09 21
  20020311.038   -25348975.747 9 -19737875.40048  20020314.187    20020323.0074
  24579422.173    -1708383.711 7  -1197278.85045  24579427.673    24579440.5194
  21091661.059   -18604603.519 9 -14470282.09047  21091663.448    21091672.1984
  21781191.654   -16633464.335 9 -12762012.02447  21781192.728    21781201.8054
  24092475.471    -4044707.665 7  -3136003.64745  24092473.652    24092488.3594
  21970496.267   -13800662.859 8 -10734317.02347  21970500.257    21970510.3504
  24974476.824     -187371.71417   -137134.13055  24974478.937    24974491.8204
 00  4 29  0 38  0.0000000  0  7 17 03 26 23 06 09 21
  20019893.030   -25351172.558 9 -19739587.19048  20019896.405    20019905.2824
  24572531.329    -1744609.515 7  -1225506.65745  24572533.028    24572545.2364
  21105578.654   -18531469.657 9 -14413294.68847  21105580.189    21105589.3364
  21772610.853   -16678559.008 9 -12797150.67747  21772611.583    21772620.8584
  24111063.067    -3946879.570 7  -3059774.14345  24111089.179    24111104.7654
  21954993.596   -13882134.614 8 -10797801.40147  21954995.567    21955006.7284
  24959750.355     -264744.181 7   -197424.25745  24959753.689    24959767.8324
 00  4 29  0 38 30.0000000  0  7 17 03 26 23 06 09 21
  20019584.527   -25352794.616 9 -19740851.10648  20019587.818    20019596.6564
  24565729.938    -1780342.955 7  -1253350.81645  24565733.897    24565745.6504
  21119548.248   -18458050.725 9 -14356085.12247  21119551.119    21119560.2594
  21764051.026   -16723537.717 9 -12832198.95747  21764052.379    21764061.1794
  24129681.277    -3849071.956 7  -2983560.55245  24129701.464    24129715.7134
  21939562.455   -13963230.289 8 -10860992.72947  21939563.684    21939573.7234
  24945026.269     -342131.128 7   -257725.66145  24945029.572    24945040.1574
 00  4 29  0 39  0.0000000  0  7 17 03 26 23 06 09 21
  20019388.833   -25353828.231 9 -19741656.50148  20019390.834    20019399.7014
  24559028.120    -1815577.924 8  -1280806.53245  24559029.059    24559041.6934
  21133574.190   -18384346.155 9 -14298653.00247  21133577.503    21133585.3194
  21755509.679   -16768418.472 9 -12867170.93747  21755511.374    21755521.0624
  24148313.583    -3751270.854 7  -2907352.00845  24148313.302    24148327.3544
  21924199.851   -14043958.000 8 -10923897.31847  21924202.139    21924212.1124
  24930290.852     -419531.344 7   -318037.42545  24930297.721    24930311.9774
 00  4 29  0 39 30.0000000  0  7 17 03 26 23 06 09 21
  20019305.829   -25354255.786 9 -19741989.65448  20019309.536    20019318.4194
  24552411.787    -1850318.164 7  -1307876.77545  24552417.730    24552427.9134
  21147658.004   -18310344.365 9 -14240989.28547  21147660.057    21147668.0684
  21746983.353   -16813211.988 9 -12902074.94447  21746987.478    21746996.8644
  24166923.831    -3653448.635 7  -2831127.05945  24166928.507    24166942.9074
  21908910.204   -14124315.573 8 -10986513.50247  21908910.215    21908919.9244
  24915565.681     -496950.555 7   -378363.99645  24915567.306    24915580.0494
 00  4 29  0 40  0.0000000  0  7 17 03 26 23 06 09 21
  20019339.631   -25354077.773 9 -19741850.93848  20019343.483    20019352.3224
  24545898.496    -1884571.434 7  -1334567.54545  24545898.282    24545911.0024
  21161796.018   -18236036.396 9 -14183087.01447  21161799.853    21161808.2804
  21738477.830   -16857915.554 9 -12936908.83847  21738480.368    21738490.0404
  24185548.724    -3555597.852 8  -2754879.85045  24185548.613    24185564.3774
  21893684.681   -14204298.788 8 -11048837.98247  21893689.837    21893699.9154
  24900825.217     -574399.383 7   -438713.61445  24900829.176    24900841.9164
 00  4 29  0 40 30.0000000  0  7 17 03 26 23 06 09 21
  20019488.143   -25353303.773 9 -19741247.81048  20019491.022    20019499.6074
  24539471.153    -1918326.918 8  -1360870.48945  24539477.809    24539486.3324
  21175994.101   -18161428.690 9 -14124951.15847  21175996.982    21176005.4864
  21729986.315   -16902525.753 9 -12971669.95847  21729991.226    21730000.9604
  24204165.803    -3457706.648 7  -2678601.13045  24204176.006    24204192.0884
  21878542.107   -14283892.865 8 -11110859.23047  21878543.730    21878553.8314
  24886081.927     -651886.922 7   -499093.42645  24886085.181    24886097.4034
 00  4 29  0 41  0.0000000  0  7 17 03 26 23 06 09 21
  20019748.247   -25351940.547 9 -19740185.54948  20019750.496    20019758.9874
  24533143.938    -1951586.230 7  -1386786.79045  24533146.841    24533157.9404
  21190252.342   -18086511.435 9 -14066574.09347  21190253.649    21190261.9704
  21721520.296   -16947026.380 9 -13006345.74447  21721523.504    21721532.8864
  24222805.859    -3359770.958 7  -2602287.75745  24222813.533    24222828.8904
  21863469.408   -14363086.934 8 -11172568.78447  21863473.075    21863483.4994
  24871330.760     -729410.657 7   -559501.42645  24871330.552    24871342.7504
 00  4 29  0 41 30.0000000  0  7 17 03 26 23 06 09 21
  20020116.179   -25350002.698 9 -19738675.52848  20020119.117    20020127.6464
  24526905.500    -1984359.198 7  -1412324.04645  24526909.451    24526921.8014
  21204571.082   -18011266.547 9 -14007941.70647  21204571.342    21204580.4514
  21713076.174   -16991410.194 9 -13040930.44147  21713077.334    21713086.6354
  24241443.427    -3261819.514 7  -2525962.08345  24241452.815    24241467.3904
  21848484.232   -14441863.527 9 -11233953.04447  21848483.077    21848492.6624
  24856569.945     -806966.272 7   -619934.27745  24856570.918    24856582.8054
 00  4 29  0 42  0.0000000  0  7 17 03 26 23 06 09 21
  20020590.308   -25347512.247 9 -19736734.90948  20020592.616    20020601.7554
  24520766.640    -2016629.330 7  -1437469.53345  24520767.840    24520781.0044
  21218947.902   -17935702.152 9 -13949060.36447  21218951.181    21218960.0224
  21704650.401   -17035682.075 9 -13075427.89147  21704652.789    21704662.3924
  24260090.237    -3163878.656 7  -2449644.62645  24260091.259    24260106.0514
  21833570.211   -14520211.602 9 -11295003.37747  21833573.893    21833583.5604
  24841807.276     -884548.013 7   -680387.51245  24841810.775    24841821.7454
 00  4 29  0 42 30.0000000  0  7 17 03 26 23 06 09 21
  20021169.044   -25344463.457 9 -19734359.21748  20021172.872    20021181.9684
  24514720.390    -2048384.682 7  -1462213.88045  24514726.295    24514737.2344
  21233385.300   -17859826.569 9 -13889936.55147  21233389.713    21233399.4064
  21696249.313   -17079835.363 9 -13109833.00947  21696250.973    21696260.0144
  24278724.847    -3065951.698 7  -2373338.07645  24278726.518    24278740.0254
  21818743.923   -14598130.307 8 -11355719.13947  21818745.735    21818755.4824
  24827038.711     -962153.326 7   -740859.15245  24827040.659    24827053.3684
 00  4 29  0 43  0.0000000  0  8 17 03 26 23 06 09 21 29
  20021861.953   -25340835.266 9 -19731532.04148  20021863.385    20021872.3644
  24508778.119    -2079629.478 7  -1486560.36245  24508781.957    24508792.7144
  21247884.319   -17783635.997 9 -13830567.29847  21247888.587    21247897.4884
  21687867.074   -17123869.613 9 -13144145.32347  21687871.140    21687880.4454
  24297363.671    -2968060.552 7  -2297059.40545  24297354.297    24297367.1004
  21803991.487   -14675621.032 8 -11416101.44347  21803999.738    21804009.6274
  24812269.007    -1039792.917 7   -801357.39445  24812267.082    24812276.9444
  24548757.920    -1245990.55117   -956974.74055  24548760.103    24548774.9394
 00  4 29  0 43 30.0000000  0  8 17 03 26 23 06 09 21 29
  20022662.340   -25336617.205 9 -19728245.23148  20022666.020    20022674.8914
  24502929.417    -2110358.963 7  -1510505.33545  24502931.803    24502944.8364
  21262444.002   -17707150.729 9 -13770968.41347  21262443.584    21262452.1524
  21679511.974   -17167785.568 9 -13178365.47347  21679514.208    21679523.6564
  24315979.965    -2870208.809 7  -2220811.37645  24315974.653    24315989.6914
  21789330.066   -14752686.328 8 -11476152.18947  21789334.302    21789344.4194
  24797477.857    -1117474.971 7   -861888.80845  24797483.623    24797497.1074
  24530783.444    -1340418.093 7  -1030554.43245  24530791.965    24530806.7184
 00  4 29  0 44  0.0000000  0  8 17 03 26 23 06 09 21 29
  20023580.606   -25331794.718 9 -19724487.43048  20023583.651    20023592.4404
  24497181.241    -2140567.121 7  -1534044.11145  24497183.638    24497195.1604
  21277045.883   -17630395.216 9 -13711158.93447  21277050.106    21277057.8804
  21671179.609   -17211578.148 9 -13212489.50947  21671180.689    21671189.8544
  24334594.411    -2772390.554 7  -2144589.49345  24334588.649    24334602.6924
  21774745.208   -14829336.238 8 -11535879.27947  21774748.166    21774758.6724
  24782698.818    -1195196.215 7   -922450.80345  24782697.387    24782705.8744
  24512860.259    -1434689.890 7  -1104012.81345  24512851.616    24512867.5424
 00  4 29  0 44 30.0000000  0  8 17 03 26 23 06 09 21 29
  20024614.973   -25326360.372 9 -19720252.86148  20024617.994    20024626.7854
  24491537.296    -2170255.230 7  -1557177.65345  24491536.251    24491547.8224
  21291706.463   -17553373.362 9 -13651141.92147  21291707.070    21291714.9984
  21662867.976   -17255238.303 9 -13246510.37447  21662872.006    21662881.4094
  24353198.760    -2674601.916 7  -2068390.66145  24353196.708    24353211.6564
  21760242.646   -14905560.601 8 -11595274.78247  21760243.376    21760253.1734
  24767891.224    -1272957.267 7   -983043.73445  24767897.184    24767909.0544
  24494941.069    -1528789.932 8  -1177337.34245  24494948.674    24494960.1724
 00  4 29  0 45  0.0000000  0  8 17 03 26 23 06 09 21 29
  20025763.089   -25320321.810 9 -19715547.47748  20025767.057    20025775.8394
  24485982.116    -2199417.990 7  -1579901.78345  24485984.687    24485995.2804
  21306411.684   -17476088.544 9 -13590920.01847  21306413.402    21306421.5714
  21654586.154   -17298774.424 9 -13280434.59047  21654588.056    21654597.0044
  24371793.599    -2576839.220 7  -1992212.10545  24371800.916    24371814.5414
  21745815.358   -14981347.672 8 -11654329.54547  21745821.472    21745831.0334
  24753087.314    -1350753.731 7  -1043664.29145  24753094.263    24753105.4904
  24477073.289    -1622721.388 8  -1250530.50545  24477072.403    24477084.9984
 00  4 29  0 45 30.0000000  0  8 17 03 26 23 06 09 21 29
  20027021.720   -25313701.170 9 -19710388.52048  20027026.702    20027035.6424
  24480532.864    -2228047.686 7  -1602210.55245  24480537.287    24480548.2594
  21321164.047   -17398550.157 9 -13530500.50347  21321168.115    21321176.9734
  21646323.777   -17342181.317 9 -13314258.09247  21646327.779    21646337.1064
  24390397.313    -2479089.265 7  -1916043.46845  24390402.855    24390418.2614
  21731480.580   -15056699.143 8 -11713044.87447  21731482.311    21731492.4614
  24738289.701    -1428581.096 7  -1104308.93445  24738283.059    24738296.0494
  24459238.328    -1716486.590 7  -1323594.10645  24459228.032    24459242.2684
 00  4 29  0 46  0.0000000  0  8 17 03 26 23 06 09 21 29
  20028395.273   -25306500.495 9 -19704777.59148  20028397.262    20028405.7944
  24475187.794    -2256143.195 7  -1624103.05845  24475189.908    24475201.7204
  21335968.702   -17320748.745 9 -13469876.05747  21335973.100    21335982.1864
  21638086.597   -17385471.889 9 -13347990.95647  21638089.140    21638098.6014
  24408995.222    -2381354.263 7  -1839886.45845  24409000.119    24409015.3444
  21717227.757   -15131608.705 9 -11771415.85547  21717228.094    21717238.1044
  24723458.677    -1506440.649 7  -1164978.63745  24723465.831    24723477.9804
  24441403.835    -1810093.362 7  -1396534.25245  24441415.052    24441427.5764
 00  4 29  0 46 30.0000000  0  8 17 03 26 23 06 09 21 29
  20029877.509   -25298716.498 9 -19698712.13148  20029878.599    20029886.9784
  24469937.143    -2283705.521 7  -1645580.13145  24469944.926    24469957.0184
  21350825.897   -17242686.234 9 -13409048.14647  21350827.515    21350837.0884
  21629871.164   -17428645.868 9 -13381632.97547  21629874.153    21629883.0274
  24427594.574    -2283614.168 7  -1763725.45445  24427601.044    24427615.8254
  21703056.134   -15206077.043 9 -11829443.03247  21703057.217    21703066.9104
  24708639.426    -1584335.221 7  -1225675.58545  24708643.520    24708654.9394
  24423622.112    -1903551.981 7  -1469358.97645  24423630.935    24423643.4044
 00  4 29  0 47  0.0000000  0  8 17 03 26 23 06 09 21 29
  20031470.040   -25290336.668 9 -19692182.38348  20031472.812    20031481.5114
  24464792.046    -2310741.632 7  -1666647.19945  24464801.241    24464812.9664
  21365727.516   -17164366.860 9 -13348020.08447  21365731.767    21365740.2184
  21621679.813   -17471701.134 9 -13415182.47747  21621680.910    21621689.5564
  24446194.039    -2185870.335 7  -1687561.62045  24446200.123    24446215.3134
  21688963.160   -15280121.396 9 -11887139.81747  21688967.185    21688976.2604
  24693819.096    -1662261.454 7  -1286397.25045  24693815.298    24693828.1284
  24405855.911    -1996883.742 7  -1542084.89045  24405868.928    24405882.6134
 00  4 29  0 47 30.0000000  0  8 17 03 26 23 06 09 21 29
  20033178.237   -25281355.534 9 -19685184.09148  20033181.831    20033190.7424
  24459762.333    -2337265.967 7  -1687315.39445  24459753.595    24459763.9874
  21380680.619   -17085793.519 9 -13286794.10647  21380683.597    21380692.5524
  21613510.995   -17514626.101 9 -13448630.44547  21613512.131    21613521.3364
  24464794.844    -2088138.475 7  -1611407.02645  24464797.314    24464814.2404
  21674952.843   -15353748.769 9 -11944511.69147  21674955.286    21674965.3544
  24678979.622    -1740220.685 7  -1347144.67445  24678979.754    24678992.5144
  24388138.041    -2090086.110 7  -1614709.87045  24388135.035    24388148.6864
 00  4 29  0 48  0.0000000  0  8 17 03 26 23 06 09 21 29
  20035004.591   -25271762.633 9 -19677709.09548  20035007.446    20035016.1824
  24454799.110    -2363279.836 7  -1707585.86345  24454803.289    24454814.3874
  21395679.977   -17006978.196 9 -13225379.58147  21395681.321    21395690.4964
  21605365.931   -17557419.405 9 -13481975.75347  21605368.785    21605377.7944
  24483383.298    -1990426.475 7  -1535267.90745  24483392.152    24483406.5814
  21661023.887   -15426960.141 9 -12001559.41447  21661023.973    21661033.6064
  24664131.764    -1818199.073 7  -1407906.97345  24664140.640    24664154.3614
  24370421.434    -2183152.584 8  -1687229.05045  24370425.665    24370437.9304
 00  4 29  0 48 30.0000000  0  8 17 03 26 23 06 09 21 29
  20036944.672   -25261565.505 9 -19669763.27748  20036948.043    20036956.5724
  24449948.873    -2388782.322 7  -1727457.86545  24449949.364    24449962.4964
  21410720.983   -16927933.512 9 -13163786.34347  21410723.416    21410732.5164
  21597250.809   -17600069.488 9 -13515209.52147  21597252.814    21597261.7834
  24501976.698    -1892748.070 7  -1459155.03845  24501978.756    24501993.6554
  21647171.414   -15499749.202 9 -12058278.07347  21647173.041    21647183.1514
  24649295.477    -1896182.971 7  -1468673.56045  24649300.457    24649314.4844
  24352742.567    -2276067.675 7  -1759630.21145  24352743.229    24352756.5304
 00  4 29  0 49  0.0000000  0  8 17 03 26 23 06 09 21 29
  20038995.807   -25250780.186 9 -19661359.12448  20039000.293    20039009.0274
  24445186.806    -2413780.453 7  -1746936.85345  24445193.038    24445204.8574
  21425804.958   -16848653.510 9 -13102009.73847  21425809.993    21425819.0194
  21589159.922   -17642583.189 9 -13548337.03047  21589162.532    21589171.3494
  24520557.052    -1795131.455 7  -1383090.24345  24520556.999    24520571.4074
  21633402.537   -15572092.467 9 -12114649.36147  21633406.026    21633415.4774
  24634457.937    -1974169.188 7  -1529441.97445  24634460.051    24634473.0934
  24335088.215    -2368831.883 8  -1831913.86345  24335092.003    24335103.5534
 00  4 29  0 49 30.0000000  0  7 17 03 26 23 09 21 29
  20041160.733   -25239413.584 9 -19652502.02648  20041163.454    20041172.0154
  24440533.447    -2438268.942 7  -1766018.69845  24440532.730    24440545.9664
  21440937.990   -16769126.721 9 -13040040.83647  21440943.566    21440952.4834
  21581094.145   -17684964.113 9 -13581361.04747  21581097.302    21581106.6224
  21619724.868   -15643974.319 9 -12170661.10647  21619727.688    21619736.6774
  24619621.226    -2052166.045 7  -1590218.67445  24619616.376    24619630.1654
  24317467.442    -2461425.430 7  -1904064.47945  24317471.925    24317482.4504
 00  4 29  0 50  0.0000000  0  7 17 03 26 23 09 21 29
  20043435.243   -25227459.521 9 -19643187.16148  20043438.228    20043446.6564
  24435968.873    -2462237.174 7  -1784695.14745  24435971.198    24435983.2614
  21456124.850   -16689351.700 9 -12977878.49847  21456124.949    21456132.9204
  21573053.618   -17727227.048 9 -13614293.21547  21573055.385    21573064.6704
  21606135.657   -15715388.633 9 -12226308.52247  21606138.030    21606146.7074
  24604770.367    -2130171.737 7  -1651002.23845  24604774.482    24604787.9974
  24299889.560    -2553836.505 7  -1976072.92145  24299884.514    24299896.7844
 00  4 29  0 50 30.0000000  0  7 17 03 26 23 09 21 29
  20045820.844   -25214920.649 9 -19633416.60448  20045823.920    20045832.6894
  24431506.134    -2485690.528 7  -1802970.43545  24431507.717    24431521.7524
  21471357.185   -16609302.563 9 -12915502.56847  21471357.938    21471366.0464
  21565030.340   -17769373.130 9 -13647134.30847  21565035.053    21565044.5484
  21592637.261   -15786325.150 9 -12281583.64447  21592638.793    21592648.2934
  24589922.185    -2208197.396 7  -1711801.36645  24589924.380    24589939.2194
  24282314.795    -2646061.564 7  -2047936.41045  24282334.904    24282347.4184
 00  4 29  0 51  0.0000000  0  7 17 03 26 23 09 21 29
  20048320.785   -25201784.238 9 -19623180.44348  20048323.904    20048332.7314
  24427141.801    -2508628.732 7  -1820844.25845  24427143.955    24427155.7154
  21486639.720   -16528966.924 9 -12852903.38547  21486645.254    21486653.3614
  21557036.121   -17811406.197 9 -13679887.34947  21557037.078    21557045.6884
  21579224.696   -15856792.669 9 -12336493.29747  21579229.364    21579238.2544
  24575065.617    -2286257.542 7  -1772627.38945  24575072.511    24575082.8774
  24264819.943    -2738116.760 7  -2119667.53045  24264817.085    24264830.2664
 00  4 29  0 51 30.0000000  0  7 17 03 26 23 09 21 29
  20050936.629   -25188037.163 9 -19612468.42748  20050939.949    20050948.6804
  24422871.137    -2531042.334 7  -1838309.24845  24422878.876    24422889.2764
  21501979.438   -16448351.321 9 -12790086.05047  21501985.216    21501994.2054
  21549059.361   -17853319.960 9 -13712547.44547  21549061.042    21549069.6634
  21565904.784   -15926801.039 9 -12391045.17747  21565907.069    21565916.4944
  24560206.272    -2364354.329 7  -1833481.95145  24560208.610    24560223.7464
  24247311.820    -2829993.995 7  -2191259.95845  24247332.818    24247346.1204
 00  4 29  0 52  0.0000000  0  7 17 03 26 23 09 21 29
  20053669.669   -25173680.135 9 -19601281.13148  20053671.901    20053680.6134
  24418709.134    -2552934.845 7  -1855368.27545  24418713.699    24418724.4164
  21517370.313   -16367477.158 9 -12727067.24047  21517374.895    21517383.7024
  21541104.929   -17895117.124 9 -13745116.67747  21541106.715    21541115.9404
  21552667.813   -15996337.913 9 -12445229.66847  21552674.820    21552684.1114
  24545340.830    -2442478.205 7  -1894357.64445  24545344.670    24545356.1984
  24229876.257    -2921714.703 7  -2262730.45045  24229877.852    24229892.2354
 00  4 29  0 52 30.0000000  0  7 17 03 26 23 09 21 29
  20056518.457   -25158710.685 9 -19589616.61548  20056520.741    20056529.0534
  24414640.938    -2574306.340 7  -1872021.31045  24414645.285    24414656.8064
  21532812.913   -16286349.058 9 -12663850.56847  21532813.533    21532821.4784
  21533172.614   -17936791.997 9 -13777590.57847  21533176.521    21533185.4454
  21539534.684   -16065390.226 9 -12499036.56447  21539534.551    21539543.7784
  24530464.784    -2520637.740 7  -1955261.10345  24530470.855    24530482.7314
  24212446.240    -3013302.351 7  -2334097.22845  24212450.053    24212462.7074
 00  4 29  0 53  0.0000000  0  7 17 03 26 23 09 21 29
  20059484.697   -25143120.907 9 -19577468.72848  20059487.285    20059495.6384
  24410682.711    -2595154.098 7  -1888266.24545  24410678.418    24410689.9414
  21548293.819   -16204991.048 9 -12600454.72747  21548295.111    21548303.0024
  21525270.185   -17978338.830 9 -13809964.71147  21525270.672    21525279.1924
  21526486.283   -16133953.068 9 -12552462.07247  21526487.354    21526496.1684
  24515588.524    -2598844.200 7  -2016201.09945  24515586.625    24515598.5854
  24195049.640    -3104760.472 7  -2405363.11645  24195045.773    24195059.2244
 00  4 29  0 53 30.0000000  0  7 17 03 26 23 09 21 29
  20062569.541   -25126917.942 9 -19564843.05248  20062570.731    20062579.1454
  24406803.347    -2615480.331 7  -1904104.77045  24406810.573    24406822.4874
  21563815.706   -16123417.504 9 -12536890.94547  21563818.470    21563826.4004
  21517385.043   -18019756.025 9 -13842237.76947  21517388.694    21517397.3724
  21513531.235   -16202017.257 9 -12605499.01247  21513534.166    21513544.1384
  24500694.383    -2677097.790 7  -2077177.84045  24500695.681    24500708.8104
  24177666.473    -3196074.491 7  -2476516.71845  24177670.840    24177681.6884
 00  4 29  0 54  0.0000000  0  7 17 03 26 23 09 21 29
  20065767.068   -25110103.835 9 -19551741.16848  20065770.288    20065778.8834
  24403038.405    -2635292.831 7  -1919542.99945  24403040.695    24403049.4584
  21579379.568   -16041627.864 9 -12473158.78547  21579383.008    21579390.8004
  21509532.851   -18061035.916 9 -13874403.91247  21509533.901    21509541.7774
  21500672.858   -16269590.198 9 -12658153.17347  21500675.970    21500685.2124
  24485780.953    -2755410.462 7  -2138200.60445  24485794.156    24485806.2364
  24160313.281    -3287247.249 7  -2547560.20945  24160319.260    24160332.2474
 00  4 29  0 54 30.0000000  0  7 17 03 26 23 09 21 29
  20069083.376   -25092676.856 9 -19538161.70648  20069086.432    20069095.0004
  24399363.134    -2654600.201 7  -1934587.65045  24399367.416    24399375.7794
  21594985.589   -15959605.798 9 -12409245.50547  21594990.712    21594998.8624
  21501703.536   -18102173.372 9 -13906459.05047  21501705.787    21501713.8574
  21487901.109   -16336695.322 9 -12710442.79447  21487906.484    21487915.8774
  24470865.657    -2833789.417 7  -2199275.01645  24470879.029    24470891.7754
  24142993.897    -3378262.146 7  -2618480.67845  24142999.947    24143013.6094
 00  4 29  0 55  0.0000000  0  7 17 03 26 23 09 21 29
  20072515.097   -25074644.435 9 -19524110.46848  20072518.220    20072526.4764
  24395777.208    -2673412.504 7  -1949246.52145  24395786.730    24395797.2034
  21610638.267   -15877360.598 9 -12345158.33847  21610641.338    21610649.8534
  21493900.672   -18143172.915 9 -13938406.68747  21493903.552    21493911.9204
  21475221.896   -16403348.327 9 -12762380.11347  21475222.757    21475231.8584
  24455955.843    -2912217.970 7  -2260388.08545  24455956.862    24455966.4134
  24125702.762    -3469104.299 7  -2689266.60845  24125714.510    24125725.3564
 00  4 29  0 55 30.0000000  0  7 17 03 26 23 09 21 29
  20076060.921   -25056012.854 9 -19509592.33748  20076063.356    20076072.0074
  24392304.724    -2691724.462 7  -1963515.54745  24392301.071    24392312.5444
  21626332.959   -15794889.990 8 -12280895.55347  21626334.590    21626343.4274
  21486122.141   -18184042.980 9 -13970253.36047  21486126.218    21486134.6554
  21462623.795   -16469546.179 9 -12813962.76247  21462625.084    21462634.7534
  24441022.431    -2990675.983 7  -2321524.08445  24441024.047    24441036.0254
  24108458.000    -3559772.359 8  -2759916.89945  24108461.033    24108472.5474
 00  4 29  0 56  0.0000000  0  7 17 03 26 23 09 21 29
  20079718.541   -25036786.690 9 -19494610.90948  20079721.293    20079730.6064
  24388911.935    -2709528.238 7  -1977388.57945  24388913.830    24388924.8704
  21642065.798   -15712192.237 9 -12216455.78247  21642071.849    21642080.1784
  21478372.033   -18224783.654 9 -14001999.26047  21478373.919    21478381.4644
  21450117.404   -16535284.496 9 -12865187.33647  21450115.800    21450125.4784
  24426099.157    -3069142.515 7  -2382666.77245  24426094.497    24426104.7144
  24091238.707    -3650262.144 8  -2830428.24945  24091241.129    24091252.4774
 00  4 29  0 56 30.0000000  0  7 17 03 26 23 09 21 29
  20083486.705   -25016979.794 9 -19479176.97048  20083490.687    20083499.6194
  24385615.427    -2726812.493 7  -1990856.76345  24385625.089    24385635.9444
  21657847.987   -15629276.839 9 -12151846.39247  21657850.140    21657858.2294
  21470639.665   -18265405.438 9 -14033652.53047  21470643.179    21470652.0514
  21437696.437   -16600536.041 9 -12916032.61747  21437698.885    21437707.6324
  24411163.104    -3147591.618 7  -2443795.84545  24411165.607    24411174.7014
  24074052.971    -3740565.685 7  -2900794.44245  24074056.669    24074069.4114
 00  4 29  0 57  0.0000000  0  7 17 03 26 23 09 21 29
  20087366.957   -24996600.994 9 -19463297.38848  20087369.123    20087377.8674
  24382430.338    -2743558.254 7  -2003905.41445  24382436.182    24382450.0864
  21673663.303   -15546160.491 9 -12087080.41947  21673667.110    21673675.2824
  21462935.842   -18305899.572 9 -14065206.32847  21462937.539    21462946.1524
  21425375.261   -16665282.445 9 -12966484.27447  21425377.564    21425386.8054
  24396234.922    -3226021.331 7  -2504909.83745  24396238.543    24396251.4944
  24056897.289    -3830674.997 7  -2971009.34645  24056907.555    24056920.2744
 00  4 29  0 57 30.0000000  0  7 17 03 26 23 09 21 29
  20091353.494   -24975648.240 9 -19446970.56948  20091356.272    20091365.1054
  24379355.120    -2759755.745 7  -2016526.79345  24379353.830    24379366.9044
  21689520.107   -15462829.292 9 -12022147.01047  21689524.219    21689532.7194
  21455256.641   -18346254.005 9 -14096651.29147  21455258.707    21455267.4864
  21413155.965   -16729512.012 9 -13016533.22747  21413155.227    21413163.9564
  24381320.514    -3304436.425 7  -2566012.37145  24381317.234    24381328.5944
  24039802.003    -3920580.044 8  -3041065.05245  24039800.637    24039813.4774
 00  4 29  0 58  0.0000000  0  7 17 03 26 23 09 21 29
  20095448.946   -24954123.416 9 -19430197.97948  20095452.135    20095460.6964
  24376372.410    -2775416.013 7  -2028729.60645  24376374.669    24376387.4124
  21705423.795   -15379287.634 8 -11957049.62247  21705421.569    21705430.0094
  21447605.372   -18386470.710 9 -14127988.85747  21447605.525    21447613.7444
  21401028.811   -16793223.391 9 -13066178.38447  21401031.896    21401041.0484
  24366387.030    -3382846.780 7  -2627111.25545  24366396.571    24366408.1174
  24022726.384    -4010276.844 7  -3110958.49945  24022731.065    24022744.4994
 00  4 29  0 58 30.0000000  0  7 17 03 26 23 09 21 29
  20099657.142   -24932011.771 9 -19412968.12248  20099659.991    20099668.3704
  24373485.582    -2790548.621 7  -2040521.21345  24373495.268    24373506.9424
  21721353.748   -15295540.742 8 -11891792.32647  21721357.484    21721366.5364
  21439974.507   -18426551.201 9 -14159220.37648  21439978.275    21439987.1584
  21389002.354   -16856422.720 9 -13115424.52947  21389004.882    21389014.1814
  24351468.424    -3461277.161 7  -2688225.76645  24351472.051    24351484.7654
  24005700.309    -4099771.592 7  -3180694.48745  24005701.045    24005711.1124
 00  4 29  0 59  0.0000000  0  7 17 03 26 23 09 21 29
  20103982.191   -24909282.332 9 -19395256.86948  20103985.219    20103993.6984
  24370711.338    -2805162.334 7  -2051908.51445  24370715.689    24370725.8314
  21737330.390   -15211584.883 8 -11826372.19247  21737333.799    21737343.1664
  21432372.781   -18466499.081 9 -14190348.63948  21432376.465    21432385.1374
  21377069.675   -16919126.685 9 -13164284.67847  21377072.633    21377081.5204
  24336541.284    -3539743.531 8  -2749368.33645  24336541.358    24336552.2864
  23988711.863    -4189061.969 8  -3250271.26045  23988709.101    23988720.7654
 00  4 29  0 59 30.0000000  0  7 17 03 26 23 09 21 29
  20108427.657   -24885918.546 9 -19377051.32548  20108431.271    20108439.7494
  24368030.551    -2819266.618 7  -2062898.84245  24368032.076    24368041.1924
  21753349.961   -15127416.851 9 -11760786.74347  21753350.989    21753359.3184
  21424797.134   -18506322.591 9 -14221379.86447  21424797.888    21424807.0084
  21365232.303   -16981329.291 9 -13212754.17247  21365235.699    21365244.6564
  24321601.054    -3618247.463 7  -2810540.17145  24321601.502    24321613.3484
  23971745.471    -4278164.406 8  -3319701.55245  23971754.834    23971765.5614
 00  4 29  1  0  0.0000000  0  7 17 03 26 23 09 21 29
  20112994.772   -24861924.224 9 -19358354.45748  20112997.522    20113005.8434
  24365444.307    -2832852.462 7  -2073485.20145  24365444.971    24365457.7894
  21769401.248   -15043048.476 9 -11695045.15847  21769406.129    21769413.9234
  21417240.873   -18546028.567 9 -14252319.55647  21417242.269    21417251.1374
  21353490.540   -17043025.926 9 -13260829.40147  21353495.300    21353504.2354
  24306642.900    -3696801.839 7  -2871751.24745  24306652.285    24306664.7494
  23954829.725    -4367097.613 8  -3389000.04145  23954830.953    23954841.6174
 00  4 29  1  0 30.0000000  0  7 17 03 26 23 09 21 29
  20117682.248   -24837289.455 9 -19339158.52748  20117685.197    20117693.4764
  24362958.233    -2845906.195 7  -2083656.91045  24362961.925    24362972.1204
  21785498.744   -14958476.491 9 -11629144.91347  21785499.851    21785507.8684
  21409708.155   -18585604.933 9 -14283158.19148  21409711.093    21409719.6734
  21341850.756   -17104215.916 9 -13308509.83247  21341851.288    21341860.6024
  24291694.873    -3775409.736 8  -2933004.05945  24291694.148    24291707.3304
  23937935.982    -4455862.618 8  -3458167.45945  23937939.447    23937951.8114
 00  4 29  1  1  0.0000000  0  7 17 03 26 23 09 21 29
  20122489.804   -24812026.350 9 -19319473.00348  20122492.172    20122500.9074
  24360578.964    -2858421.671 7  -2093409.23145  24360580.597    24360591.8384
  21801629.340   -14873696.794 8 -11563082.82947  21801632.770    21801641.1444
  21402205.021   -18625041.626 9 -14313887.93747  21402206.520    21402215.1704
  21330301.715   -17164886.250 9 -13355785.34047  21330305.792    21330314.9164
  24276721.630    -3854056.887 7  -2994287.51845  24276727.510    24276741.0604
  23921077.869    -4544464.882 7  -3527208.02745  23921078.147    23921090.4724
 00  4 29  1  1 30.0000000  0  7 17 03 26 23 09 21 29
  20127407.424   -24786176.888 9 -19299330.58148  20127411.526    20127419.8294
  24358294.650    -2870395.129 7  -2102739.16645  24358300.963    24358313.0014
  21817804.679   -14788707.911 8 -11496857.76447  21817805.021    21817814.3564
  21394728.965   -18664327.497 9 -14344500.27147  21394730.545    21394739.0074
  21318861.987   -17225019.644 9 -13402642.47247  21318862.839    21318871.9394
  24261746.016    -3932745.303 8  -3055603.13345  24261754.150    24261766.4204
  23904244.188    -4632922.491 7  -3596135.86845  23904243.421    23904256.4254
 00  4 29  1  2  0.0000000  0  7 17 03 26 23 09 21 29
  20132434.641   -24759757.488 9 -19278744.04848  20132438.990    20132447.4664
  24356125.635    -2881832.367 7  -2111651.27945  24356124.835    24356136.4194
  21834014.484   -14703517.148 8 -11430475.37547  21834015.980    21834025.4974
  21387281.071   -18703465.376 9 -14374997.28747  21387283.312    21387291.5384
  21307519.301   -17284613.951 9 -13449079.52447  21307522.173    21307531.6304
  24246767.609    -4011469.707 7  -3116946.74645  24246773.311    24246784.9724
  23887440.882    -4721225.419 8  -3664943.18645  23887441.264    23887453.1594
 00  4 29  1  2 30.0000000  0  7 17 03 26 23 09 21 29
  20137572.184   -24732766.734 9 -19257712.29348  20137575.072    20137583.5784
  24354050.199    -2892745.305 7  -2120154.85045  24354049.292    24354059.9784
  21850260.336   -14618127.654 8 -11363938.12747  21850265.274    21850274.2884
  21379863.108   -18742448.996 9 -14405374.13048  21379864.921    21379873.0694
  21296283.528   -17343666.997 9 -13495094.81747  21296284.989    21296293.9994
  24231774.068    -4090217.425 7  -3178308.51845  24231786.824    24231801.3044
  23870668.725    -4809364.099 8  -3733622.52445  23870669.829    23870680.3404
 00  4 29  1  3  0.0000000  0  7 17 03 26 23 09 21 29
  20142813.971   -24705217.058 9 -19236245.02448  20142817.206    20142825.9734
  24352065.561    -2903146.314 7  -2128259.51345  24352068.511    24352081.5164
  21866550.364   -14532543.190 9 -11297248.94447  21866552.179    21866560.6914
  21372472.159   -18781286.791 9 -14435637.35047  21372473.782    21372482.4204
  21285146.841   -17402178.222 9 -13540687.89747  21285150.175    21285159.6184
  24216795.606    -4168974.822 8  -3239677.88545  24216801.545    24216812.5854
  23853922.875    -4897344.241 8  -3802178.36345  23853926.449    23853937.6714
 00  4 29  1  3 30.0000000  0  7 17 03 26 23 09 21 29
  20148166.414   -24677096.367 9 -19214332.79548  20148169.019    20148177.0564
  24350184.461    -2913033.070 7  -2135963.45945  24350187.470    24350199.2664
  21882873.712   -14446768.086 9 -11230411.22147  21882874.679    21882883.1644
  21365105.860   -18819985.722 9 -14465792.35147  21365109.627    21365117.5744
  21274117.055   -17460152.497 9 -13585862.58747  21274118.347    21274127.4084
  24201804.435    -4247743.666 8  -3301056.17045  24201812.521    24201824.8144
  23837211.980    -4985154.298 8  -3870601.61045  23837217.178    23837228.6984
 00  4 29  1  4  0.0000000  0  7 17 03 26 23 09 21 29
  20153633.734   -24648363.326 9 -19191943.41148  20153636.599    20153644.8534
  24348398.186    -2922401.880 7  -2143263.82045  24348403.827    24348414.8114
  21899226.025   -14360809.794 8 -11163430.75647  21899231.336    21899240.0604
  21357768.692   -18858555.063 9 -14495846.34647  21357770.455    21357778.4074
  21263185.479   -17517601.077 9 -13630627.65447  21263186.540    21263195.0044
  24186822.386    -4326515.981 8  -3362437.19545  24186822.648    24186832.8214
  23820538.043    -5072770.655 8  -3938873.96545  23820543.568    23820554.7494
 00  4 29  1  4 30.0000000  0  7 17 03 26 23 09 21 29
  20159220.884   -24619005.466 9 -19169067.15748  20159223.302    20159231.7924
  24346710.506    -2931250.439 7  -2150158.79645  24346720.147    24346733.2754
  21915619.115   -14274673.072 8 -11096311.23947  21915622.515    21915631.2474
  21350453.244   -18896994.402 9 -14525799.04747  21350455.268    21350463.9404
  21252348.999   -17574535.014 9 -13674991.68647  21252351.741    21252360.8464
  24171827.009    -4405290.311 8  -3423819.75745  24171832.844    24171843.2374
  23803904.944    -5160192.671 8  -4006994.85945  23803908.376    23803919.2794
 00  4 29  1  5  0.0000000  0  7 17 03 26 23 09 21 29
  20164927.930   -24589015.409 9 -19145698.28248  20164929.947    20164938.7524
  24345134.131    -2939578.975 7  -2156648.54145  24345136.388    24345145.1814
  21932043.008   -14188363.400 8 -11029056.97447  21932047.110    21932055.9744
  21343160.314   -18935311.517 9 -14555656.50547  21343163.423    21343171.9194
  21241613.052   -17630956.201 9 -13718956.18547  21241615.080    21241624.2114
  24156835.486    -4484069.698 8  -3485206.25145  24156841.548    24156852.1674
  23787306.023    -5247421.382 8  -4074965.14145  23787310.279    23787319.5514
 00  4 29  1  5 30.0000000  0  7 17 03 26 23 09 21 29
  20170755.619   -24558387.161 9 -19121832.11948  20170758.008    20170767.1874
  24343647.134    -2947391.660 7  -2162736.34245  24343649.120    24343660.3404
  21948502.594   -14101887.589 8 -10961673.25947  21948503.254    21948511.4914
  21335893.631   -18973506.819 9 -14585419.03647  21335895.707    21335903.9754
  21230972.348   -17686857.864 9 -13762515.84847  21230977.645    21230986.7644
  24141846.247    -4562867.128 8  -3546606.78845  24141846.668    24141857.3174
  23770748.524    -5334448.280 8  -4142778.16445  23770748.046    23770758.5914
 00  4 29  1  6  0.0000000  0  7 17 03 26 23 09 21 29
  20176700.912   -24527137.674 9 -19097481.87548  20176704.931    20176713.5694
  24342261.657    -2954696.128 7  -2168428.11745  24342257.593    24342269.8544
  21964987.405   -14015251.951 8 -10894164.98747  21964988.968    21964997.8514
  21328645.083   -19011581.775 9 -14615087.86347  21328649.896    21328658.4734
  21220436.088   -17742236.940 9 -13805668.31047  21220438.906    21220448.3584
  24126839.545    -4641691.571 8  -3608028.40845  24126846.226    24126857.1714
  23754217.825    -5421286.297 8  -4210443.99845  23754222.854    23754235.8214
 00  4 29  1  6 30.0000000  0  7 17 03 26 23 09 21 29
  20182762.897   -24495291.205 9 -19072666.44248  20182765.491    20182773.7054
  24340957.182    -2961496.118 7  -2173726.80045  24340965.173    24340975.4204
  21981503.104   -13928456.452 8 -10826532.16847  21981505.711    21981514.3034
  21321427.565   -19049525.861 9 -14644654.68247  21321429.619    21321437.5854
  21209997.404   -17797097.926 9 -13848417.06247  21209999.620    21210008.5024
  24111836.942    -4720547.423 8  -3669474.54145  24111840.605    24111849.6724
  23737732.015    -5507939.973 8  -4277966.16845  23737732.947    23737744.8824
 00  4 29  1  7  0.0000000  0  7 17 03 26 23 09 21 29
  20188936.985   -24462851.276 9 -19047388.58048  20188938.345    20188946.9654
  24339761.575    -2967795.340 7  -2178635.28645  24339766.213    24339777.9614
  21998053.308   -13841479.957 8 -10758758.30547  21998057.038    21998065.8914
  21314232.831   -19087328.963 9 -14674111.62247  21314235.663    21314244.1084
  21199659.499   -17851425.885 9 -13890750.46447  21199661.152    21199670.2464
  24096821.759    -4799435.042 8  -3730945.38245  24096828.210    24096839.0394
  23721271.417    -5594402.438 8  -4345339.36145  23721280.250    23721291.4024
 00  4 29  1  7 30.0000000  0  7 17 03 26 23 09 21 29
  20195220.675   -24429825.107 9 -19021653.90248  20195222.993    20195231.4344
  24338661.646    -2973591.908 7  -2183152.09245  24338662.443    24338675.4184
  22014635.124   -13754312.911 8 -10690835.97747  22014643.936    22014652.9944
  21307065.636   -19124990.475 9 -14703458.24347  21307069.011    21307077.4914
  21189422.896   -17905210.284 9 -13932660.31947  21189426.477    21189435.3294
  24081814.625    -4878351.166 8  -3792438.42845  24081811.400    24081823.3364
  23704862.068    -5680660.524 8  -4412553.31145  23704865.703    23704876.4004
 00  4 29  1  8  0.0000000  0  7 17 03 26 23 09 21 29
  20201614.382   -24396215.603 9 -18995464.67448  20201618.678    20201626.8964
  24337657.881    -2978872.204 7  -2187266.58945  24337658.750    24337669.7844
  22031267.171   -13666953.021 8 -10622763.36847  22031267.155    22031276.8434
  21299926.701   -19162503.459 9 -14732689.15147  21299930.690    21299938.6334
  21179294.658   -17958451.337 9 -13974146.78747  21179294.999    21179303.5294
  24066784.127    -4957285.476 8  -3853945.64445  24066790.782    24066801.1704
  23688489.527    -5766708.154 8  -4479603.25745  23688491.926    23688501.6794
 00  4 29  1  8 30.0000000  0  7 17 03 26 23 09 21 29
  20208125.411   -24362008.285 9 -18968809.61948  20208128.271    20208136.2764
  24336750.905    -2983640.037 7  -2190981.74645  24336750.587    24336764.1584
  22047926.974   -13579404.180 8 -10554543.53046  22047927.561    22047936.1364
  21292818.494   -19199863.059 9 -14761800.51547  21292821.291    21292829.3974
  21169264.917   -18011138.391 9 -14015201.57047  21169269.172    21169277.2264
  24051768.717    -5036230.075 8  -3915460.90445  24051768.947    24051779.3874
  23672158.426    -5852530.838 8  -4546477.92445  23672159.696    23672170.5714
 00  4 29  1  9  0.0000000  0  7 17 03 26 23 09 21 29
  20214750.907   -24327196.374 9 -18941683.45748  20214752.658    20214760.8914
  24335938.991    -2987892.382 7  -2194295.26845  24335941.722    24335953.0574
  22064618.151   -13491672.216 8 -10486180.99546  22064623.229    22064631.6834
  21285738.453   -19237072.245 9 -14790794.67147  21285740.599    21285749.0804
  21159347.361   -18063246.403 9 -14055805.15647  21159352.533    21159362.0714
  24036742.506    -5115185.592 8  -3976984.63546  24036744.387    24036754.8194
  23655864.267    -5938139.775 8  -4613185.99845  23655868.463    23655880.6714
 00  4 29  1  9 30.0000000  0  7 17 03 26 23 09 21 29
  20221488.149   -24291783.795 9 -18914089.23848  20221491.225    20221499.9384
  24335230.626    -2991614.493 7  -2197195.66545  24335232.753    24335245.2094
  22081341.209   -13403785.747 8 -10417698.07447  22081347.436    22081355.9424
  21278686.204   -19274135.276 9 -14819674.95747  21278687.484    21278695.9294
  21149544.517   -18114775.104 9 -14095957.33147  21149547.245    21149556.0504
  24021709.259    -5194153.329 8  -4038517.90545  24021717.130    24021726.6844
  23639613.197    -6023546.194 8  -4679736.31445  23639616.525    23639627.2784
 00  4 29  1 10  0.0000000  0  7 17 03 26 23 09 21 29
  20228342.563   -24255766.146 9 -18886023.53848  20228345.434    20228353.7034
  24334623.265    -2994803.501 7  -2199680.55045  24334624.577    24334638.0594
  22098093.322   -13315769.178 8 -10349113.76447  22098096.694    22098105.4344
  21271662.631   -19311047.280 9 -14848437.53547  21271663.305    21271671.6084
  21139847.946   -18165727.112 9 -14135660.12947  21139851.386    21139859.8424
  24006683.024    -5273133.016 8  -4100060.49745  24006686.547    24006698.1924
  23623395.079    -6108769.505 8  -4746143.96545  23623398.884    23623410.2854
 00  4 29  1 10 30.0000000  0  7 17 03 26 23 09 21 29
  20235312.350   -24219140.951 9 -18857484.42648  20235314.950    20235323.6014
  24334117.094    -2997461.226 7  -2201751.49445  24334121.636    24334133.8854
  22114864.071   -13227632.928 8 -10280436.20747  22114869.019    22114877.4854
  21264661.937   -19347809.066 9 -14877083.09547  21264667.198    21264676.3604
  21130261.246   -18216101.574 9 -14174912.89347  21130265.075    21130274.0384
  23991653.232    -5352128.149 8  -4161615.10145  23991655.508    23991665.1114
  23607213.450    -6193822.007 8  -4812418.53145  23607213.169    23607225.7274
 00  4 29  1 11  0.0000000  0  7 17 03 26 23 09 21 29
  20242394.284   -24181927.166 9 -18828486.68148  20242396.487    20242405.0044
  24333718.528    -2999581.614 7  -2203403.75745  24333717.527    24333729.0684
  22131662.019   -13139370.973 8 -10211660.71047  22131663.851    22131672.7144
  21257696.985   -19384429.593 9 -14905618.59447  21257699.020    21257707.6254
  21120785.527   -18265908.498 9 -14213723.42047  21120787.509    21120796.1534
  23976615.776    -5431129.864 8  -4223174.80545  23976620.486    23976633.2524
  23591056.016    -6278710.374 8  -4878565.17245  23591059.870    23591070.9914
 00  4 29  1 11 30.0000000  0  7 17 03 26 23 09 21 29
  20249587.064   -24144129.696 9 -18799034.10348  20249589.119    20249597.5274
  24333411.802    -3001169.243 7  -2204640.83645  24333416.383    24333426.8554
  22148477.628   -13050987.231 8 -10142790.29847  22148482.820    22148492.1644
  21250755.702   -19420904.019 9 -14934040.24447  21250758.293    21250767.0034
  21111409.947   -18315167.126 9 -14252106.70047  21111413.834    21111422.4874
  23961588.582    -5510127.426 8  -4284731.29646  23961588.846    23961599.9644
  23574939.588    -6363420.861 8  -4944573.18045  23574940.067    23574950.8884
 00  4 29  1 12  0.0000000  0  7 17 03 26 23 09 21 29
  20256890.214   -24105753.602 9 -18769130.65748  20256891.894    20256900.1994
  24333212.947    -3002234.115 7  -2205470.64045  24333212.074    24333222.3124
  22165328.649   -12962462.965 8 -10073810.38746  22165328.452    22165336.5154
  21243843.330   -19457228.879 9 -14962345.32747  21243845.893    21243854.1854
  21102142.987   -18363887.160 9 -14290070.30247  21102142.852    21102151.4134
  23946551.753    -5589131.815 8  -4346293.12146  23946555.224    23946565.4344
  23558853.106    -6447941.318 8  -5010433.14945  23558856.646    23558866.6484
 00  4 29  1 12 30.0000000  0  7 17 03 26 23 09 21 29
  20264299.200   -24066805.163 9 -18738781.22748  20264303.485    20264311.8804
  24333105.401    -3002773.649 7  -2205891.02445  24333110.602    24333121.8634
  22182202.488   -12873774.448 8 -10004702.48247  22182205.627    22182214.8434
  21236959.141   -19493396.277 9 -14990527.54747  21236963.362    21236971.4314
  21092968.002   -18412076.483 9 -14327620.37547  21092972.253    21092981.0544
  23931513.003    -5668151.340 8  -4407866.70645  23931518.006    23931528.7904
  23542806.652    -6532251.465 8  -5076129.20045  23542812.957    23542822.7964
 00  4 29  1 13  0.0000000  0  7 17 03 26 23 09 21 29
  20271822.785   -24027276.825 9 -18707979.93748  20271825.451    20271833.8204
  24333102.171    -3002789.428 7  -2205903.35245  24333105.871    24333119.3444
  22199112.846   -12784912.760 8  -9935459.63946  22199115.135    22199123.9844
  21230111.146   -19529399.780 9 -15018582.11848  21230112.028    21230120.3504
  21083899.700   -18459731.183 9 -14364753.84547  21083903.921    21083912.9324
  23916470.194    -5747193.951 8  -4469458.26345  23916476.513    23916487.0664
  23526812.575    -6616335.702 8  -5141649.23745  23526810.981    23526822.8324
 00  4 29  1 13 30.0000000  0  7 17 03 26 23 09 21 29
  20279459.094   -23987145.840 9 -18676709.04948  20279462.294    20279470.3954
  24333199.457    -3002283.808 7  -2205509.31045  24333202.548    24333212.0914
  22216054.096   -12695886.857 8  -9866088.85047  22216056.459    22216065.6654
  21223293.193   -19565221.067 9 -15046494.80148  21223295.901    21223303.9354
  21074935.656   -18506843.927 9 -14401465.01547  21074938.306    21074947.5194
  23901425.419    -5826279.377 8  -4531083.21345  23901425.819    23901438.0444
  23510852.144    -6700192.802 8  -5206992.31745  23510853.387    23510864.0984
 00  4 29  1 14  0.0000000  0  7 17 03 26 23 09 21 29
  20287210.607   -23946400.455 9 -18644959.41148  20287216.021    20287224.2384
  24333396.367    -3001266.423 7  -2204716.54345  24333397.297    24333408.1574
  22233022.897   -12606692.419 8  -9796586.74546  22233028.991    22233038.5034
  21216511.470   -19600865.146 9 -15074269.45348  21216513.068    21216521.1974
  21066079.776   -18553392.492 9 -14437736.56847  21066080.765    21066089.5914
  23886365.077    -5905420.004 8  -4592751.19045  23886366.820    23886376.2644
  23494935.451    -6783832.980 8  -5272166.39545  23494937.024    23494948.2424
 00  4 29  1 14 30.0000000  0  7 17 03 26 23 09 21 29
  20295084.875   -23905031.649 9 -18612723.99548  20295088.087    20295096.4184
  24333688.287    -2999743.570 7  -2203529.88845  24333687.705    24333696.8614
  22250031.377   -12517352.541 8  -9726971.28446  22250030.082    22250039.6874
  21209760.011   -19636335.822 9 -15101908.87248  21209763.152    21209770.7924
  21057334.644   -18599350.151 9 -14473547.67947  21057335.455    21057343.7514
  23871296.954    -5984602.190 8  -4654451.50946  23871299.175    23871309.3034
  23479054.501    -6867265.988 8  -5337179.00245  23479060.251    23479071.6934
 00  4 29  1 15  0.0000000  0  7 17 03 26 23 09 21 29
  20303077.560   -23863038.295 9 -18580001.92448  20303079.096    20303087.5014
  24334062.717    -2997737.743 7  -2201966.92745  24334068.824    24334077.0414
  22267048.422   -12427878.446 8  -9657251.25846  22267056.655    22267065.7034
  21203042.723   -19671644.528 9 -15129422.00748  21203044.056    21203052.1204
  21048704.117   -18644693.696 9 -14508880.25247  21048707.075    21048715.7684
  23856223.183    -6063811.179 8  -4716172.73645  23856225.212    23856236.7084
  23463222.813    -6950508.842 8  -5402043.42945  23463220.272    23463232.2074
 00  4 29  1 15 30.0000000  0  7 17 03 26 23 09 21 29
  20311181.947   -23820439.464 9 -18546808.05148  20311185.218    20311193.7604
  24334548.714    -2995259.046 7  -2200035.49745  24334542.060    24334551.5534
  22284101.953   -12338279.690 8  -9587434.07846  22284106.972    22284116.3774
  21196352.593   -19706802.611 9 -15156817.87648  21196353.905    21196361.8504
  21040197.287   -18689408.557 9 -14543722.95447  21040198.050    21040206.2404
  23841147.912    -6143029.629 8  -4777901.31745  23841150.217    23841160.9354
  23447409.018    -7033577.207 8  -5466771.89045  23447412.248    23447423.5684
 00  4 29  1 16  0.0000000  0  7 17 03 26 23 09 21 29
  20319400.200   -23777253.691 9 -18513156.80648  20319403.040    20319411.9404
  24335095.186    -2992304.356 7  -2197733.08945  24335102.814    24335112.4244
  22301181.117   -12248555.257 8  -9517518.97346  22301181.164    22301189.3904
  21189685.787   -19741825.886 9 -15184108.64748  21189689.088    21189697.2664
  21031806.952   -18733492.886 9 -14578074.32047  21031808.643    21031816.9834
  23826075.542    -6222246.015 8  -4839628.31045  23826076.163    23826086.1054
  23431633.651    -7116463.562 8  -5531358.50646  23431640.315    23431651.4124
 00  4 29  1 16 30.0000000  0  7 17 03 26 23 09 21 29
  20327729.926   -23733493.513 9 -18479057.98148  20327730.434    20327739.0574
  24335757.627    -2988851.615 7  -2195042.63545  24335758.717    24335767.7804
  22318275.831   -12158704.736 8  -9447505.62546  22318279.376    22318287.0974
  21183047.187   -19776714.038 9 -15211294.10548  21183049.631    21183058.1584
  21023531.833   -18776968.646 9 -14611951.47747  21023535.787    21023544.2114
  23811005.550    -6301441.292 8  -4901338.87345  23811006.096    23811015.0424
  23415901.959    -7199163.328 8  -5595799.72446  23415902.510    23415913.3224
 00  4 29  1 17  0.0000000  0  7 17 03 26 23 09 21 29
  20336162.449   -23689163.139 9 -18444514.84848  20336166.452    20336174.9934
  24336507.622    -2984890.825 7  -2191956.25745  24336511.398    24336523.4114
  22335403.899   -12068713.883 8  -9377382.88346  22335403.875    22335411.8504
  21176434.146   -19811466.139 9 -15238373.58248  21176436.861    21176444.8554
  21015372.523   -18819857.681 9 -14645371.45047  21015374.319    21015382.6174
  23795933.937    -6380618.450 8  -4963035.33845  23795938.073    23795948.7744
  23400199.827    -7281670.679 8  -5660091.01246  23400202.319    23400213.3454
 00  4 29  1 17 30.0000000  0  7 17 03 26 23 09 21 29
  20344710.834   -23644256.593 9 -18409522.74248  20344711.856    20344720.4724
  24337368.438    -2980403.572 7  -2188459.67445  24337367.706    24337379.1844
  22352552.178   -11978585.581 8  -9307153.06946  22352554.330    22352563.3024
  21169847.732   -19846079.185 9 -15265344.77248  21169850.552    21169858.1994
  21007319.614   -18862173.655 9 -14678344.88947  21007321.764    21007330.0484
  23780873.177    -6459784.611 8  -5024723.17846  23780873.697    23780885.3994
  23384539.079    -7363968.769 8  -5724219.24946  23384541.459    23384551.5834
 00  4 29  1 18  0.0000000  0  7 17 03 26 23 09 21 29
  20353366.143   -23598763.994 9 -18374073.97548  20353368.932    20353377.2864
  24338322.123    -2975380.610 7  -2184545.72645  24338323.443    24338334.0604
  22369726.061   -11888313.098 8  -9236810.90946  22369732.538    22369741.0544
  21163287.817   -19880551.408 9 -15292206.14548  21163290.145    21163298.1514
  20999369.442   -18903940.519 9 -14710890.42747  20999373.351    20999381.6324
  23765807.192    -6538954.045 8  -5086413.56646  23765808.636    23765819.1774
  23368920.929    -7446050.435 8  -5788178.82846  23368921.872    23368931.1844
 00  4 29  1 18 30.0000000  0  7 17 03 26 23 09 21 29
  20362136.794   -23552678.815 9 -18338163.45448  20362138.916    20362147.1594
  24339372.270    -2969841.027 7  -2180229.15045  24339376.613    24339384.7204
  22386934.249   -11797899.939 8  -9166359.13146  22386937.677    22386946.7304
  21156754.452   -19914874.012 9 -15318951.00348  21156758.422    21156766.6574
  20991528.527   -18945146.953 9 -14742999.28147  20991532.430    20991540.6184
  23750737.204    -6618135.103 8  -5148113.01646  23750741.093    23750751.7284
  23353338.677    -7527921.938 8  -5851974.65146  23353342.346    23353351.6684
 00  4 29  1 19  0.0000000  0  7 17 03 26 23 09 21 29
  20371019.999   -23506002.930 9 -18301792.63748  20371020.694    20371029.4774
  24340527.003    -2963805.300 7  -2175525.97945  24340527.618    24340535.4844
  22404166.464   -11707362.724 8  -9095810.71246  22404166.222    22404175.3124
  21150257.421   -19949031.391 9 -15345567.13448  21150258.611    21150266.8634
  20983798.638   -18985769.672 9 -14774653.30247  20983801.992    20983809.9844
  23735666.132    -6697345.101 8  -5209835.05546  23735667.613    23735677.6194
  23337800.718    -7609579.079 8  -5915603.40846  23337802.762    23337813.3714
 00  4 29  1 19 30.0000000  0  7 17 03 26 23 09 21 29
  20380010.324   -23458745.873 9 -18264968.95948  20380012.806    20380021.4934
  24341764.939    -2957281.928 7  -2170442.79445  24341768.821    24341778.3244
  22421405.958   -11616713.568 8  -9025175.03946  22421415.932    22421425.7564
  21143791.528   -19983008.131 9 -15372042.54148  21143792.893    21143801.4014
  20976179.819   -19025804.438 9 -14805849.17747  20976183.475    20976191.6844
  23720582.840    -6776584.921 8  -5271580.31646  23720587.889    23720599.5604
  23322294.414    -7691029.209 8  -5979070.91246  23322302.020    23322312.4844
 00  4 29  1 20  0.0000000  0  7 17 03 26 23 09 21 29
  20389111.262   -23410917.652 9 -18227700.22448  20389114.435    20389122.9094
  24343092.749    -2950275.222 7  -2164983.06445  24343100.902    24343112.7154
  22438685.980   -11525960.378 8  -8954458.31346  22438685.531    22438695.0464
  21137362.091   -20016792.185 9 -15398367.65248  21137363.730    21137372.1354
  20968676.957   -19065247.220 9 -14836583.76547  20968678.228    20968685.9354
  23705497.831    -6855850.979 8  -5333346.01546  23705504.750    23705514.9414
  23306840.197    -7772277.206 8  -6042380.86946  23306841.421    23306852.7094
 00  4 29  1 20 30.0000000  0  7 17 03 26 23 09 21 29
  20398322.775   -23362519.916 9 -18189987.71848  20398324.507    20398333.1914
  24344514.875    -2942788.201 7  -2159148.96744  24344523.389    24344535.3254
  22455971.155   -11435113.785 8  -8883668.81646  22455974.250    22455983.4034
  21130970.327   -20050372.574 9 -15424534.09648  21130973.542    21130982.0504
  20961285.602   -19104077.782 9 -14866841.29248  20961288.697    20961296.6994
  23690419.041    -6935134.759 8  -5395125.54346  23690417.607    23690429.1114
  23291414.207    -7853319.345 8  -6105530.42346  23291420.038    23291429.9764
 00  4 29  1 21  0.0000000  0  7 17 03 26 23 09 21 29
  20407639.157   -23313554.039 9 -18151832.51648  20407642.353    20407651.0024
  24346048.451    -2934794.107 7  -2152919.83144  24346047.225    24346057.2574
  22473277.346   -11344170.254 8  -8812803.76146  22473279.783    22473288.9224
  21124620.094   -20083756.342 9 -15450547.33448  21124621.024    21124629.3884
  20954011.927   -19142303.438 9 -14896627.47548  20954013.904    20954023.1594
  23675330.849    -7014411.521 8  -5456899.60446  23675332.860    23675341.8964
  23276035.519    -7934155.775 8  -6168519.69146  23276037.503    23276047.9714
 00  4 29  1 21 30.0000000  0  7 17 03 26 23 09 21 29
  20417068.526   -23264007.069 9 -18113224.50548  20417070.978    20417079.2984
  24347664.281    -2926286.348 7  -2146290.35245  24347666.318    24347677.7764
  22490597.894   -11253113.045 8  -8741850.12946  22490607.360    22490616.9154
  21118298.249   -20116972.661 9 -15476430.14148  21118300.111    21118308.0484
  20946849.936   -19179926.367 9 -14925943.98748  20946854.797    20946863.4294
  23660248.246    -7093672.789 8  -5518661.58346  23660249.277    23660258.3704
  23260686.821    -8014785.351 8  -6231347.77446  23260693.778    23260703.7144
 00  4 29  1 22  0.0000000  0  7 17 03 26 23 09 21 29
  20426610.843   -23213867.369 9 -18074154.62448  20426612.318    20426620.5654
  24349387.426    -2917258.445 7  -2139255.56145  24349384.675    24349391.7724
  22507952.471   -11161936.164 8  -8670803.25546  22507957.821    22507967.6494
  21112005.428   -20150042.171 9 -15502198.49748  21112007.192    21112015.2014
  20939810.977   -19216935.887 9 -14954782.51047  20939811.900    20939820.3824
  23645166.134    -7172912.635 8  -5580406.86146  23645168.845    23645179.6414
  23245391.446    -8095196.204 8  -6294005.39746  23245391.595    23245402.1944
 00  4 29  1 22 30.0000000  0  7 17 03 26 23 09 21 29
  20436262.154   -23163137.060 9 -18034624.52748  20436265.829    20436274.4344
  24351199.279    -2907704.115 7  -2131810.60245  24351204.301    24351211.9504
  22525328.096   -11070638.964 8  -8599662.61546  22525331.049    22525340.7514
  21105737.093   -20182981.574 9 -15527865.59648  21105739.180    21105747.6104
  20932882.149   -19253336.786 9 -14983146.80547  20932884.891    20932893.4374
  23630096.184    -7252127.249 8  -5642132.48446  23630096.112    23630105.7614
  23230125.736    -8175396.786 8  -6356499.20446  23230129.236    23230139.7724
 00  4 29  1 23  0.0000000  0  7 17 03 26 23 09 21 29
  20446029.005   -23111815.312 9 -17994633.57348  20446031.989    20446040.5724
  24353121.699    -2897629.939 7  -2123960.52845  24353116.529    24353129.3394
  22542724.285   -10979224.840 8  -8528430.86746  22542726.565    22542735.3994
  21099493.081   -20215796.692 9 -15553435.87848  21099494.781    21099502.8414
  20926069.719   -19289144.778 9 -15011049.09247  20926071.079    20926079.0884
  23615025.593    -7331321.829 8  -5703842.47746  23615025.368    23615035.1784
  23214905.330    -8255386.705 8  -6418828.83446  23214907.560    23214918.2584
 00  4 29  1 23 30.0000000  0  7 17 03 26 23 09 21 29
  20455906.837   -23059905.131 9 -17954184.09648  20455910.173    20455918.6464
  24355122.478    -2887056.956 7  -2115721.80045  24355130.861    24355139.3704
  22560142.089   -10887704.209 8  -8457116.10446  22560142.121    22560151.5844
  21093274.412   -20248469.616 9 -15578895.33648  21093276.763    21093285.4164
  20919364.655   -19324370.409 9 -15038497.59147  20919368.241    20919376.0534
  23599949.849    -7410520.038 8  -5765555.29846  23599954.502    23599964.9114
  23199722.372    -8335160.930 8  -6480990.38046  23199728.531    23199738.8924
 00  4 29  1 24  0.0000000  0  7 17 03 26 23 09 21 29
  20465895.700   -23007429.319 9 -17913293.87848  20465896.257    20465904.8334
  24357231.688    -2875994.971 7  -2107102.03645  24357234.828    24357246.0654
  22577574.208   -10796094.920 8  -8385732.28146  22577575.603    22577584.9874
  21087088.200   -20280977.319 9 -15604226.03648  21087091.294    21087099.5564
  20912770.370   -19359024.387 9 -15065500.63947  20912773.460    20912781.9404
  23584875.946    -7489725.331 8  -5827273.66846  23584882.240    23584892.7084
  23184588.541    -8414715.471 8  -6542980.78846  23184589.137    23184598.6874
 00  4 29  1 24 30.0000000  0  7 17 03 26 23 09 21 29
  20475983.705   -22954401.570 9 -17871973.56748  20475986.779    20475995.5984
  24359425.866    -2864457.350 7  -2098111.68345  24359431.138    24359441.3204
  22595019.081   -10704403.258 8  -8314284.23846  22595023.627    22595032.4664
  21080937.087   -20313301.392 9 -15629413.62548  21080939.986    21080948.3244
  20906285.283   -19393103.299 9 -15092055.59147  20906288.480    20906296.8904
  23569805.375    -7568941.618 8  -5889000.56446  23569807.880    23569818.0374
  23169487.368    -8494053.391 8  -6604802.37546  23169490.732    23169501.2454
 00  4 29  1 25  0.0000000  0  7 17 03 26 23 09 21 29
  20486179.319   -22900820.302 9 -17830221.94648  20486183.208    20486191.5814
  24361711.294    -2852463.674 7  -2088765.90945  24361714.274    24361724.3514
  22612483.458   -10612626.172 8  -8242769.63846  22612488.617    22612498.0604
  21074822.605   -20345433.843 9 -15654451.93348  21074824.846    21074833.6294
  20899912.152   -19426585.716 9 -15118145.73848  20899916.852    20899925.2314
  23554725.220    -7648180.745 8  -5950745.25746  23554728.494    23554739.9924
  23154432.763    -8573162.884 8  -6666445.97646  23154437.067    23154446.6964
 00  4 29  1 25 30.0000000  0  7 17 03 26 23 09 21 29
  20496478.682   -22846698.963 9 -17788049.49448  20496482.506    20496490.6014
  24364084.727    -2840006.780 7  -2079059.19845  24364084.059    24364096.3474
  22629966.292   -10520758.943 8  -8171184.80146  22629970.108    22629979.4914
  21068744.068   -20377374.921 9 -15679341.12448  21068747.137    21068755.4484
  20893659.854   -19459451.569 9 -15143755.44648  20893662.701    20893670.8054
  23539642.012    -7727429.496 8  -6012497.44246  23539647.935    23539659.1264
  23139421.027    -8652042.050 8  -6727910.11946  23139426.085    23139436.9004
 00  4 29  1 26  0.0000000  0  7 17 03 26 23 09 21 29
  20506881.069   -22792035.784 9 -17745454.81748  20506884.177    20506892.9424
  24366537.332    -2827072.681 7  -2068980.63345  24366544.660    24366556.5074
  22647468.105   -10428798.538 8  -8099527.37046  22647469.825    22647478.4994
  21062701.955   -20409139.225 9 -15704092.56348  21062702.940    21062710.9974
  20887527.208   -19491686.873 9 -15168873.82647  20887528.171    20887536.7624
  23524560.661    -7806683.996 8  -6074254.09546  23524565.845    23524577.5394
  23124452.369    -8730695.428 8  -6789198.29446  23124458.017    23124468.5474
 00  4 29  1 26 30.0000000  0  7 17 03 26 23 09 21 29
  20517392.001   -22736804.365 9 -17702417.37248  20517394.398    20517403.0984
  24369093.722    -2813652.953 7  -2058523.68845  24369098.293    24369110.9984
  22664983.382   -10336728.656 8  -8027784.62046  22664990.075    22664997.4764
  21056690.670   -20440733.853 9 -15728711.76348  21056690.721    21056698.3694
  20881512.882   -19523274.663 9 -15193487.64347  20881517.462    20881525.4984
  23509485.486    -7885941.179 8  -6136012.86646  23509484.059    23509495.8004
  23109527.868    -8809140.751 8  -6850324.39646  23109531.283    23109541.8404
 00  4 29  1 27  0.0000000  0  7 17 03 26 23 09 21 29
  20528012.149   -22680991.420 9 -17658926.78348  20528015.405    20528023.7124
  24371746.897    -2799744.100 7  -2047685.60144  24371742.620    24371756.8944
  22682529.269   -10244546.780 8  -7955954.57646  22682531.349    22682540.6924
  21050704.257   -20472166.172 9 -15753204.38848  21050709.018    21050716.6284
  20875625.689   -19554222.451 9 -15217602.76948  20875628.587    20875636.6024
  23494402.407    -7965192.746 8  -6197767.24646  23494402.460    23494414.2334
  23094636.330    -8887382.512 8  -6911291.86246  23094641.748    23094652.5374
 00  4 29  1 27 30.0000000  0  7 17 03 26 23 09 21 29
  20538742.952   -22624587.264 9 -17614975.51948  20538748.480    20538757.2374
  24374468.089    -2785333.359 7  -2036456.43744  24374484.891    24374497.1864
  22700089.257   -10152252.376 8  -7884036.87446  22700094.068    22700103.6254
  21044758.710   -20503423.214 9 -15777560.36348  21044760.954    21044768.6854
  20869851.618   -19584550.634 9 -15241235.06848  20869857.154    20869865.4974
  23479323.067    -8044428.404 8  -6259509.21446  23479324.388    23479335.8214
  23079794.945    -8965424.105 8  -6972103.33346  23079791.681    23079801.1164
 00  4 29  1 28  0.0000000  0  7 17 03 26 23 09 21 29
  20549592.221   -22567575.942 9 -17570551.13348  20549597.603    20549606.1414
  24377325.616    -2770434.850 7  -2024847.21445  24377322.307    24377332.2474
  22717678.595   -10059848.869 8  -7812034.13646  22717678.277    22717686.6914
  21038847.245   -20534499.126 9 -15801775.24048  21038847.497    21038855.1854
  20864201.208   -19614264.082 9 -15264388.36648  20864203.001    20864210.9334
  23464243.907    -8123663.624 8  -6321250.88446  23464247.225    23464258.3484
  23064972.385    -9043271.114 8  -7032763.23046  23064977.336    23064986.8524
 00  4 29  1 28 30.0000000  0  7 17 03 26 23 09 21 29
  20560559.890   -22509963.624 9 -17525658.41648  20560560.943    20560569.4234
  24380245.876    -2755062.629 7  -2012868.81444  24380248.623    24380258.5614
  22735278.235    -9967336.786 8  -7739946.85346  22735282.539    22735292.7274
  21032968.579   -20565386.780 9 -15825843.45048  21032969.720    21032977.4724
  20858662.202   -19643360.510 9 -15287060.86848  20858665.601    20858673.8584
  23449170.611    -8202889.049 8  -6382984.91346  23449170.553    23449181.3384
  23050196.387    -9120917.003 8  -7093266.39646  23050200.888    23050209.8874
 00  4 29  1 29  0.0000000  0  7 17 03 26 23 09 21 29
  20571631.916   -22451774.107 9 -17480315.93848  20571633.768    20571642.4864
  24383265.664    -2739213.746 7  -2000519.03844  24383263.348    24383272.8894
  22752900.522    -9874743.944 8  -7667796.63946  22752902.423    22752911.7754
  21027125.167   -20596090.903 9 -15849768.60748  21027126.957    21027134.4114
  20853241.252   -19671847.081 9 -15309258.15947  20853244.633    20853252.7344
  23434095.602    -8282109.516 8  -6444715.07146  23434095.379    23434105.4484
  23035465.649    -9198342.003 8  -7153597.42346  23035467.226    23035476.7024
 00  4 29  1 29 30.0000000  0  7 17 03 26 23 09 21 29
  20582810.179   -22393019.199 9 -17434532.90548  20582814.304    20582823.4854
  24386370.160    -2722880.994 7  -1987792.20445  24386373.285    24386382.6354
  22770530.298    -9782082.634 8  -7595593.03046  22770535.253    22770544.8674
  21021316.272   -20626615.503 9 -15873553.98548  21021318.055    21021325.7054
  20847938.395   -19699714.644 9 -15330973.10647  20847941.875    20847949.1514
  23419016.438    -8361337.202 8  -6506450.87646  23419018.869    23419029.3444
  23020776.970    -9275537.440 8  -7213749.60446  23020779.096    23020787.8794
 00  4 29  1 30  0.0000000  0  7 17 03 26 23 09 21 29
  20594095.878   -22333715.760 9 -17388322.44748  20594099.539    20594108.8274
  24389565.894    -2706062.021 7  -1974686.57345  24389570.194    24389582.6394
  22788177.305    -9689367.317 8  -7523347.33746  22788179.034    22788187.9584
  21015538.592   -20656976.626 9 -15897211.85248  21015539.984    21015548.1234
  20842758.669   -19726937.472 9 -15352185.66048  20842761.813    20842769.3134
  23403934.135    -8440575.505 8  -6568194.96046  23403939.886    23403950.1694
  23006131.242    -9352506.493 8  -7273725.38446  23006132.295    23006140.4824
 00  4 29  1 30 30.0000000  0  7 17 03 26 23 09 21 29
  20605481.631   -22273880.624 9 -17341697.69648  20605485.782    20605494.7604
  24392865.657    -2688748.792 7  -1961195.75845  24392866.585    24392880.4604
  22805830.197    -9596607.837 8  -7451067.21346  22805830.452    22805839.2824
  21009789.700   -20687179.834 9 -15920746.65848  21009792.757    21009801.1644
  20837700.894   -19753518.677 9 -15372898.25048  20837703.520    20837711.2894
  23388858.691    -8519819.120 8  -6629943.15246  23388860.956    23388870.8404
  22991524.320    -9429236.796 8  -7333515.13546  22991530.299    22991539.2484
 00  4 29  1 31  0.0000000  0  7 17 03 26 23 09 21 29
  20616973.339   -22213509.269 9 -17294655.10548  20616974.035    20616983.1444
  24396252.712    -2670939.462 7  -1947318.32944  24396255.795    24396266.2834
  22823488.470    -9503811.390 8  -7378758.31146  22823488.843    22823497.7984
  21004074.702   -20717219.790 9 -15944154.45848  21004076.522    21004084.8424
  20832766.162   -19779459.545 9 -15393111.87448  20832767.040    20832775.2924
  23373777.123    -8599074.776 8  -6691700.76446  23373779.194    23373789.1084
  22976972.365    -9505721.809 8  -7393113.70646  22976976.107    22976985.1404
 00  4 29  1 31 30.0000000  0  7 17 03 26 23 09 21 29
  20628563.953   -22152602.139 9 -17247195.02648  20628564.453    20628573.5094
  24399735.630    -2652644.337 7  -1933062.40844  24399737.151    24399746.2354
  22841150.844    -9410962.419 8  -7306408.44346  22841157.678    22841165.9784
  20998391.317   -20747081.069 9 -15967423.11048  20998394.105    20998402.4634
  20827947.451   -19804763.519 9 -15412829.21548  20827951.228    20827959.9054
  23358693.020    -8678331.590 8  -6753459.23946  23358696.658    23358706.8954
  22962467.106    -9581964.060 8  -7452523.12246  22962467.834    22962476.1744
 00  4 29  1 32  0.0000000  0  7 17 03 26 23 09 21 29
  20640253.765   -22091150.721 9 -17199310.83948  20640258.136    20640267.0794
  24403297.511    -2633873.671 7  -1918435.92845  24403311.136    24403318.1914
  22858834.567    -9318048.828 8  -7234008.24246  22858838.157    22858847.2154
  20992742.591   -20776751.106 9 -15990542.64748  20992747.498    20992756.1924
  20823252.770   -19829440.305 9 -15432057.83148  20823255.427    20823264.0534
  23343614.129    -8757582.740 8  -6815213.30346  23343616.768    23343625.7934
  22948001.877    -9657960.979 8  -7511741.41246  22948006.024    22948014.2134
 00  4 29  1 32 30.0000000  0  7 17 03 26 23 09 21 29
  20652055.723   -22029142.632 9 -17150992.86947  20652057.837    20652067.1884
  24406973.722    -2614640.767 7  -1903449.24944  24406967.729    24406980.2904
  22876531.690    -9225054.411 8  -7161545.08246  22876534.257    22876543.5384
  20987137.831   -20806218.726 9 -16013504.46348  20987140.358    20987148.7904
  20818673.571   -19853514.380 9 -15450816.81148  20818674.149    20818682.8874
  23328535.276    -8836815.802 8  -6876953.26846  23328539.450    23328548.1824
  22933588.114    -9733708.896 8  -7570765.63546  22933591.054    22933600.3754
 00  4 29  1 33  0.0000000  0  7 17 03 26 23 09 21 29
  20663963.729   -21966575.085 9 -17102238.96247  20663964.452    20663973.2374
  24410713.112    -2594948.518 7  -1888104.61845  24410717.283    24410726.9914
  22894240.876    -9131970.225 8  -7089011.96846  22894247.811    22894257.0284
  20981572.839   -20835469.302 9 -16036297.12248  20981574.359    20981582.4884
  20814206.375   -19876979.659 9 -15469101.41248  20814209.164    20814217.4224
  23313467.261    -8916020.416 8  -6938671.08446  23313467.929    23313475.5844
  22919215.208    -9809230.393 8  -7629613.43646  22919219.654    22919229.1624
 00  4 29  1 33 30.0000000  0  7 17 03 26 23 09 21 29
  20675973.433   -21903452.682 9 -17053052.69248  20675976.311    20675985.0394
  24414551.533    -2574793.936 7  -1872399.74645  24414551.918    24414562.7624
  22911982.017    -9038784.618 8  -7016399.82246  22911980.212    22911988.9354
  20976044.723   -20864514.247 9 -16058929.47948  20976047.344    20976055.6114
  20809857.592   -19899839.543 9 -15486914.27348  20809858.822    20809867.3524
  23298396.150    -8995186.915 8  -7000359.23846  23298401.663    23298410.8744
  22904884.690    -9884546.565 8  -7688301.23246  22904887.651    22904896.4654
 00  4 29  1 34  0.0000000  0  7 17 03 26 23 09 21 29
  20688093.099   -21839761.774 9 -17003423.44248  20688096.172    20688105.1984
  24418472.668    -2554178.186 7  -1856335.55545  24418473.880    24418484.6514
  22929730.095    -8945497.052 8  -6943708.22546  22929732.401    22929740.8744
  20970553.079   -20893365.492 9 -16081410.98448  20970556.947    20970565.4404
  20805619.898   -19922090.788 9 -15504252.86548  20805624.877    20805633.0644
  23283337.334    -9074328.868 8  -7062028.19446  23283340.368    23283351.0484
  22890589.255    -9959669.057 8  -7746838.13246  22890592.267    22890600.8324
 00  4 29  1 34 30.0000000  0  7 17 03 26 23 09 21 29
  20700317.015   -21775519.339 9 -16953364.42048  20700320.990    20700329.6354
  24422481.563    -2533104.149 7  -1839914.25445  24422483.952    24422495.3494
  22947495.800    -8852122.963 8  -6870949.22246  22947501.075    22947510.1434
  20965100.802   -20922029.622 9 -16103746.72948  20965102.603    20965110.8354
  20801506.997   -19943719.126 9 -15521106.07748  20801509.239    20801517.0974
  23268287.384    -9153441.076 8  -7123673.95446  23268286.731    23268297.2904
  22876328.975   -10034617.293 8  -7805239.25346  22876330.851    22876339.3594
 00  4 29  1 35  0.0000000  0  7 17 03 26 23 09 21 29
  20712645.273   -21710739.577 9 -16902886.70547  20712648.450    20712656.7324
  24426561.961    -2511573.456 7  -1823137.10644  24426580.770    24426590.9994
  22965279.646    -8758678.302 8  -6798135.21346  22965281.825    22965291.1054
  20959678.994   -20950521.771 9 -16125948.45648  20959680.436    20959688.9384
  20797513.461   -19964701.522 9 -15537455.95448  20797515.968    20797524.0824
  23253228.943    -9232540.514 8  -7185309.79346  23253234.344    23253243.9474
  22862101.005   -10109384.539 8  -7863499.34446  22862102.257    22862111.1364
 00  4 29  1 35 30.0000000  0  7 17 03 26 23 09 21 29
  20725076.873   -21645412.595 9 -16851982.58047  20725080.034    20725088.1634
  24430762.939    -2489591.939 7  -1806008.63745  24430767.585    24430776.0814
  22983068.895    -8665169.957 8  -6725271.58846  22983076.502    22983085.2754
  20954285.711   -20978856.569 9 -16148027.57648  20954288.608    20954296.9564
  20793644.241   -19985035.585 9 -15553300.64748  20793646.792    20793654.9404
  23238179.188    -9311633.272 8  -7246940.44046  23238183.140    23238192.9524
  22847909.578   -10183946.497 8  -7921599.46746  22847912.920    22847921.5684
 00  4 29  1 36  0.0000000  0  7 17 03 26 23 09 21 29
  20737611.773   -21579540.085 9 -16800653.37747  20737614.662    20737623.1104
  24435027.751    -2467165.865 7  -1788533.80345  24435032.043    24435041.7914
  23000875.195    -8571614.496 8  -6652371.25946  23000880.638    23000889.5814
  20948927.410   -21007016.790 9 -16169970.67248  20948930.102    20948938.0494
  20789902.509   -20004709.052 9 -15568630.58548  20789903.060    20789911.1884
  23223130.517    -9390727.005 8  -7308571.81146  23223131.497    23223142.6664
  22833768.870   -10258279.266 8  -7979520.97846  22833767.928    22833775.9764
 00  4 29  1 36 30.0000000  0  7 17 03 26 23 09 21 29
  20750248.745   -21513140.394 9 -16748913.37847  20750250.073    20750258.9514
  24439386.522    -2444291.331 7  -1770709.55645  24439387.336    24439397.0884
  23018692.472    -8478019.937 8  -6579440.51446  23018691.212    23018699.6884
  20943603.481   -21034993.677 9 -16191770.85148  20943606.308    20943614.3114
  20786285.915   -20023710.058 9 -15583436.53648  20786287.656    20786295.3364
  23208079.560    -9469807.414 8  -7370192.87246  23208083.529    23208093.5044
  22819662.219   -10332371.216 8  -8037254.85846  22819668.461    22819677.1644
 00  4 29  1 37  0.0000000  0  7 17 03 26 23 09 21 29
  20762983.602   -21446204.563 9 -16696755.61447  20762987.266    20762996.4604
  24443824.717    -2420961.604 7  -1752530.52244  24443825.107    24443834.4034
  23036508.850    -8384379.209 8  -6506473.73846  23036510.712    23036518.4624
  20938315.306   -21062778.806 9 -16213421.57748  20938319.128    20938326.9154
  20782792.203   -20042052.282 9 -15597729.14148  20782796.694    20782804.2584
  23193030.964    -9548879.258 8  -7431807.23546  23193035.761    23193046.8844
  22805616.544   -10406207.713 8  -8094789.67246  22805617.131    22805627.7124
 00  4 29  1 37 30.0000000  0  7 17 03 26 23 09 21 29
  20775824.814   -21378730.760 9 -16644178.66247  20775827.052    20775836.3254
  24448350.917    -2397164.751 7  -1733987.54945  24448354.996    24448363.7294
  23054336.551    -8290682.702 8  -6433463.49146  23054339.741    23054348.3084
  20933070.940   -21090354.617 9 -16234909.13448  20933071.370    20933079.3474
  20779426.451   -20059757.125 9 -15611525.08448  20779427.826    20779435.2484
  23177988.966    -9627927.245 8  -7493402.98546  23177993.348    23178004.6544
  22791610.185   -10479802.992 8  -8152136.51046  22791612.496    22791622.0594
 00  4 29  1 38  0.0000000  0  7 17 03 26 23 09 21 29
  20788764.029   -21310735.032 9 -16591195.01047  20788766.277    20788775.1534
  24452970.291    -2372894.111 7  -1715075.39445  24452972.416    24452981.5614
  23072179.748    -8196928.301 8  -6360408.15646  23072179.731    23072190.5564
  20927861.353   -21117717.117 9 -16256230.49548  20927864.586    20927872.2274
  20776176.293   -20076827.113 9 -15624826.34348  20776179.398    20776187.5994
  23162952.496    -9706950.750 8  -7554979.65846  23162955.528    23162966.6784
  22777646.403   -10553174.388 8  -8209308.91446  22777650.574    22777659.3184
 00  4 29  1 38 30.0000000  0  7 17 03 26 23 09 21 29
  20801800.876   -21242226.670 9 -16537811.91447  20801803.370    20801811.5434
  24457679.527    -2348147.518 7  -1695792.33945  24457679.918    24457693.0124
  23090029.509    -8103103.036 8  -6287297.59346  23090034.491    23090044.1894
  20922693.983   -21144872.955 9 -16277390.83948  20922696.908    20922704.7394
  20773046.674   -20093273.038 9 -15637641.32048  20773049.628    20773057.7014
  23147923.243    -9785939.018 8  -7616528.92146  23147926.082    23147935.5104
  22763725.152   -10626334.711 8  -8266316.85146  22763728.348    22763738.2384
 00  4 29  1 39  0.0000000  0  7 17 03 26 23 09 21 29
  20814935.682   -21173202.003 9 -16484026.47947  20814938.637    20814946.6364
  24462479.439    -2322932.217 7  -1676144.08445  24462480.965    24462491.9924
  23107902.293    -8009202.058 8  -6214128.04846  23107903.554    23107913.0164
  20917563.591   -21171825.779 9 -16298392.94548  20917567.832    20917575.7764
  20770035.920   -20109110.173 9 -15649981.90648  20770036.193    20770043.9444
  23132894.262    -9864897.897 8  -7678055.27646  23132899.806    23132909.6874
  22749849.947   -10699274.225 8  -8323152.72646  22749849.273    22749857.4804
 00  4 29  1 39 30.0000000  0  7 17 03 26 23 09 21 29
  20828170.747   -21103663.802 9 -16429840.89047  20828171.472    20828179.8784
  24467362.148    -2297251.036 7  -1656132.78845  24467364.336    24467377.3254
  23125780.023    -7915224.839 8  -6140899.07946  23125786.399    23125795.6924
  20912471.547   -21198588.787 9 -16319247.15448  20912474.984    20912482.7744
  20767137.091   -20124328.817 9 -15661840.54548  20767139.558    20767148.0394
  23117877.262    -9943824.999 8  -7739556.84546  23117880.528    23117890.3564
  22736007.285   -10771983.973 8  -8379809.55846  22736011.997    22736022.2984
 00  4 29  1 40  0.0000000  0  7 17 03 26 23 09 21 29
  20841498.583   -21033609.702 9 -16375253.30847  20841502.299    20841510.8214
  24472339.397    -2271111.843 7  -1635764.61945  24472339.489    24472351.8504
  23143678.233    -7821182.267 8  -6067619.20746  23143682.446    23143692.1084
  20907415.965   -21225160.707 9 -16339952.41748  20907418.444    20907426.2784
  20764362.489   -20138912.674 9 -15673204.55648  20764364.534    20764372.6754
  23102863.190   -10022728.151 8  -7801039.77146  23102865.864    23102876.6024
  22722218.875   -10844446.044 8  -8436273.42046  22722222.208    22722231.8544
 00  4 29  1 40 30.0000000  0  7 17 03 26 23 09 21 29
  20854933.856   -20963028.831 9 -16320255.25847  20854933.721    20854942.0404
  24477398.948    -2244523.345 7  -1615046.28945  24477399.189    24477412.2854
  23161591.973    -7727088.724 8  -5994299.60746  23161588.222    23161597.1904
  20902396.734   -21251536.424 9 -16360504.76148  20902398.970    20902406.9984
  20761707.195   -20152869.611 9 -15684080.05748  20761708.792    20761716.7104
  23087852.077   -10101605.026 8  -7862502.16646  23087857.101    23087867.2174
  22708483.935   -10916648.154 8  -8492534.68146  22708482.823    22708492.9394
 00  4 29  1 41  0.0000000  0  7 17 03 26 23 09 21 29
  20868464.187   -20891907.414 9 -16264836.01147  20868467.302    20868476.2244
  24482539.699    -2217493.433 7  -1593984.06945  24482544.618    24482555.4674
  23179492.908    -7632964.890 8  -5920956.40246  23179499.252    23179507.8674
  20897414.211   -21277714.176 9 -16380902.87748  20897417.286    20897425.4664
  20759168.706   -20166198.008 9 -15694465.78848  20759172.621    20759180.0404
  23072850.579   -10180466.151 8  -7923952.31146  23072850.305    23072858.4664
  22694789.982   -10988589.632 8  -8548592.85346  22694793.021    22694802.2794
 00  4 29  1 41 30.0000000  0  7 17 03 26 23 09 21 29
  20882101.761   -20820242.496 9 -16208993.26147  20882104.652    20882113.3924
  24487773.109    -2190019.248 7  -1572575.56045  24487771.951    24487783.0874
  23197406.239    -7538832.080 8  -5847606.18246  23197411.790    23197420.9664
  20892473.950   -21303679.708 9 -16401135.62548  20892476.285    20892484.4434
  20756754.492   -20178885.381 9 -15704352.02348  20756758.250    20756765.8494
  23057847.802   -10259304.362 8  -7985384.61446  23057846.857    23057856.6014
  22681140.255   -11060299.963 8  -8604470.92946  22681146.766    22681156.3544
 00  4 29  1 42  0.0000000  0  7 17 03 26 23 09 21 29
  20895843.439   -20748037.056 9 -16152729.32647  20895844.918    20895853.7404
  24493079.855    -2162118.828 7  -1550835.04945  24493081.794    24493091.1264
  23215323.515    -7444706.766 8  -5774261.86646  23215323.582    23215333.3704
  20887575.752   -21329415.918 9 -16421189.72648  20887578.638    20887587.1434
  20754462.482   -20190936.679 9 -15713742.61048  20754464.845    20754472.2464
  23042845.201   -10338123.057 8  -8046801.66746  23042848.188    23042858.2654
  22667541.299   -11131793.122 8  -8660179.78446  22667542.508    22667551.3774
 00  4 29  1 42 30.0000000  0  7 17 03 26 23 09 21 29
  20909683.356   -20675296.720 9 -16096048.58447  20909686.552    20909695.7234
  24498458.256    -2133804.947 7  -1528772.35144  24498467.236    24498479.5664
  23233230.817    -7350591.746 8  -5700925.55546  23233233.420    23233242.3634
  20882719.695   -21354934.519 9 -16441074.28248  20882722.688    20882730.9084
  20752288.037   -20202353.027 9 -15722638.43848  20752291.901    20752299.8634
  23027847.567   -10416928.113 8  -8108208.07446  23027851.772    23027862.1574
  22653969.844   -11203088.975 8  -8715734.89746  22653974.902    22653983.9644
 00  4 29  1 43  0.0000000  0  7 17 03 26 23 09 21 29
  20923625.032   -20602037.631 9 -16038963.61247  20923628.084    20923636.7954
  24503931.173    -2105075.898 7  -1506386.02744  24503935.169    24503950.0144
  23251138.188    -7256474.529 8  -5627587.49546  23251143.300    23251151.8404
  20877905.162   -21380242.166 9 -16460794.40148  20877906.738    20877914.6294
  20750240.357   -20213123.242 9 -15731030.77648  20750242.886    20750250.7974
  23012856.166   -10495726.880 8  -8169609.59846  23012857.695    23012867.4334
  22640442.753   -11274193.990 8  -8771141.28146  22640444.529    22640454.1674
 00  4 29  1 43 30.0000000  0  7 17 03 26 23 09 21 29
  20937663.581   -20528270.470 9 -15981482.74647  20937665.060    20937673.9614
  24509481.795    -2075931.346 7  -1483676.05744  24509480.516    24509493.0924
  23269055.629    -7162338.105 8  -5554234.48046  23269057.256    23269065.5894
  20873129.214   -21405342.442 9 -16480352.97148  20873130.498    20873138.0954
  20748317.711   -20223237.953 9 -15738912.33648  20748318.366    20748325.9104
  22997859.028   -10574522.332 8  -8231008.58246  22997862.600    22997872.7984
  22626950.009   -11345097.121 8  -8826390.38046  22626952.041    22626961.7184
 00  4 29  1 44  0.0000000  0  7 17 03 26 23 09 21 29
  20951793.864   -20454000.605 9 -15923610.16447  20951797.872    20951807.2834
  24515107.404    -2046372.881 7  -1460643.48844  24515107.260    24515117.5734
  23286967.991    -7068157.355 8  -5480846.94646  23286978.853    23286988.5894
  20868386.494   -21430260.423 9 -16499769.47948  20868388.519    20868396.3434
  20746516.178   -20232694.976 9 -15746281.41848  20746518.427    20746526.1104
  22982858.130      -59156.75518    -29259.70856                  22982877.7364
  22613499.439   -11415770.034 8  -8881460.06946  22613503.191    22613512.5654
 00  4 29  1 44 30.0000000  0  7 17 03 26 23 09 21 29
  20966022.197   -20379233.989 9 -15865350.50047  20966025.964    20966034.4524
  24520807.648    -2016376.789 7  -1437269.93544  24520814.530    24520824.4884
  23304913.282    -6973917.527 8  -5407413.36346  23304913.089    23304921.1054
  20863679.083   -21455000.755 9 -16519047.69548  20863680.720    20863688.4394
  20744841.206   -20241490.593 9 -15753135.11448  20744844.613    20744852.2124
  22967871.992     -137947.021 8    -90654.67046  22967872.958    22967883.9584
  22600097.646   -11486204.365 8  -8936343.88646  22600100.057    22600108.2924
 00  4 29  1 45  0.0000000  0  7 17 03 26 23 09 21 29
  20980345.705   -20303973.775 9 -15806706.21747  20980347.367    20980355.8124
  24526610.467    -1985929.271 7  -1413544.61644  24526610.120    24526623.1614
  23322851.646    -6879608.630 8  -5333925.94046  23322858.721    23322867.8744
  20859008.903   -21479541.357 9 -16538170.32148  20859010.697    20859018.3174
  20743292.854   -20249624.091 9 -15759472.87448  20743297.017    20743304.7444
  22952884.003     -216696.054 8   -152017.53046  22952887.785    22952898.2864
  22586746.787   -11556378.991 8  -8991025.30446  22586746.656    22586755.1114
 00  4 29  1 45 30.0000000  0  7 17 03 26 23 09 21 29
  20994759.436   -20228213.077 9 -15747671.94447  20994764.460    20994773.1994
  24532488.201    -1955031.562 7  -1389468.50844  24532491.448    24532498.7264
  23340813.326    -6785236.134 8  -5260389.02046  23340817.404    23340827.1944
  20854376.493   -21503876.588 9 -16557132.86448  20854379.927    20854387.3454
  20741874.448   -20257092.172 9 -15765292.12848  20741876.056    20741883.4064
  22937910.700     -295383.421 8   -213332.30846  22937913.604    22937924.0914
  22573442.146   -11626297.853 8  -9045507.43246  22573441.562    22573450.4704
 00  4 29  1 46  0.0000000  0  7 17 03 26 23 09 21 29
  21009271.711   -20151960.502 9 -15688254.39947  21009274.380    21009283.4104
  24538460.076    -1923685.450 7  -1365042.99844  24538450.997    24538464.3004
  23358788.675    -6690815.468 8  -5186814.57146  23358785.823    23358794.6014
  20849786.623   -21527999.859 9 -16575930.23448  20849789.413    20849797.1604
  20740574.851   -20263905.012 9 -15770600.80748  20740578.875    20740586.5614
  22922949.795     -373996.054 8   -274588.87946  22922953.756    22922965.0534
  22560179.854   -11695979.267 8  -9099804.53446  22560181.063    22560190.1794
 00  4 29  1 46 30.0000000  0  7 17 03 26 23 09 21 29
  21023874.788   -20075223.154 9 -15628459.10047  21023877.329    21023886.2144
  24544495.278    -1891898.664 7  -1340274.12044  24544503.764    24544512.9664
  23376750.920    -6596350.685 8  -5113205.69646  23376761.239    23376770.3734
  20845243.042   -21551888.332 9 -16594544.71948  20845243.583    20845251.3294
  20739401.433   -20270070.370 9 -15775404.95148  20739405.576    20739414.1164
  22908009.770     -452525.541 8   -335780.63346  22908011.332    22908020.6284
  22546962.665   -11765438.184 8  -9153928.25946  22546963.271    22546972.3234
 00  4 29  1 47  0.0000000  0  7 17 03 26 23 09 21 29
  21038568.714   -19998001.194 9 -15568286.18747  21038572.331    21038580.8334
  24550627.195    -1859689.659 7  -1315176.18544  24550632.769    24550644.9904
  23394741.736    -6501841.632 8  -5039562.30246  23394746.130    23394755.3004
  20840737.181   -21575547.666 9 -16612980.62048  20840741.373    20840749.2324
  20738355.764   -20275585.637 9 -15779702.53448  20738356.193    20738364.7234
  22893078.121     -530993.261 8   -396924.23546  22893079.386    22893088.3074
  22533785.599   -11834675.417 8  -9207879.25646  22533787.775    22533797.4164
 00  4 29  1 47 30.0000000  0  7 17 03 26 23 09 21 29
  21053356.012   -19920293.855 9 -15507735.06747  21053359.459    21053368.6674
  24556835.718    -1827065.133 7  -1289754.55244  24556839.667    24556852.0174
  23412735.145    -6407298.403 8  -4965892.35146  23412736.694    23412747.1124
  20836278.202   -21598995.104 9 -16631251.38048  20836279.548    20836287.1784
  20737425.846   -20280456.440 9 -15783497.92548  20737429.275    20737437.2994
  22878151.279     -609426.329 8   -458040.86146  22878153.514    22878163.4134
  22520647.463   -11903704.848 8  -9261668.31846  22520651.367    22520660.9474
 00  4 29  1 48  0.0000000  0  7 17 03 26 23 09 21 29
  21068235.283   -19842101.676 9 -15446806.14147  21068238.915    21068248.0114
  24563124.441    -1794026.102 7  -1264009.84044  24563132.051    24563141.1364
  23430730.056    -6312723.579 8  -4892197.77146  23430733.965    23430743.5144
  20831856.153   -21622230.192 9 -16649356.63548  20831858.286    20831865.8034
  20736622.401   -20284692.826 9 -15786798.97648  20736623.155    20736631.2584
  22863229.917     -687838.679 8   -519141.26246  22863232.373    22863242.0674
  22507554.213   -11972510.829 8  -9315283.25046  22507557.765    22507567.3784
 00  4 29  1 48 30.0000000  0  7 17 03 26 23 09 21 29
  21083211.212   -19763411.659 9 -15385489.30247  21083213.371    21083222.6734
  24569492.608    -1760574.541 7  -1237943.76844  24569493.978    24569501.9074
  23448732.585    -6218121.101 8  -4818481.59946  23448735.672    23448744.9124
  20827476.637   -21645247.076 9 -16667291.91248  20827478.452    20827485.8194
  20735933.394   -20288301.210 9 -15789610.67448  20735936.414    20735944.4844
  22848312.097     -766227.078 8   -580222.99346  22848316.136    22848324.6064
  22494509.328   -12041071.185 8  -9368706.78246  22494511.318    22494520.2784
 00  4 29  1 49  0.0000000  0  7 17 03 26 23 09 21 29
  21098281.872   -19684216.091 9 -15323778.51547  21098284.063    21098292.2084
  24575934.112    -1726715.279 7  -1211559.95044  24575937.426    24575947.4954
  23466737.124    -6123515.889 8  -4744763.28046  23466738.941    23466747.5174
  20823136.618   -21668046.574 9 -16685057.83648  20823139.913    20823147.1804
  20735366.528   -20291281.253 9 -15791932.75748  20735369.736    20735377.3804
  22833406.078     -844580.896 8   -641277.84046  22833406.482    22833414.3924
  22481511.402   -12109381.018 8  -9421935.15646  22481512.991    22481521.4224
 00  4 29  1 49 30.0000000  0  7 17 03 26 23 09 21 29
  21113450.469   -19604512.433 9 -15261671.80947  21113451.281    21113459.8444
  24582459.183    -1692444.455 7  -1184855.38044  24582458.634    24582469.6424
  23484732.590    -6028927.585 8  -4671058.14046  23484737.201    23484747.9054
  20818842.276   -21690619.678 9 -16702647.21248  20818843.857    20818851.9994
  20734918.294   -20293640.775 9 -15793771.31448  20734920.439    20734928.8664
  22818502.314     -922883.939 8   -702293.15446  22818504.411    22818514.3774
  22468557.735   -12177437.677 8  -9474966.18946  22468562.324    22468570.9024
 00  4 29  1 50  0.0000000  0  7 17 03 26 23 09 21 29
  21128709.316   -19524304.251 9 -15199171.95847  21128713.838    21128722.4284
  24589057.050    -1657771.188 7  -1157837.29244  24589054.080    24589068.5724
  23502735.906    -5934354.309 8  -4597364.77246  23502735.719    23502744.5744
  20814592.133   -21712950.802 9 -16720047.98848  20814594.441    20814602.4404
  20734587.937   -20295382.580 9 -15795128.53148  20734588.992    20734596.8244
  22803615.866    -1001127.061 8   -763261.74846  22803614.635    22803624.5474
  22455659.615   -12245230.325 8  -9527791.53146  22455661.289    22455669.8694
 00  4 29  1 50 30.0000000  0  7 17 03 26 23 09 21 29
  21144071.258   -19443598.420 9 -15136284.33547  21144071.910    21144080.9724
  24595720.651    -1622706.242 7  -1130513.99844  24595728.946    24595734.9214
  23520726.338    -5839789.957 8  -4523678.31945  23520730.088    23520739.4284
  20810390.643   -21735040.440 9 -16737260.61148  20810391.102    20810398.7504
  20734377.709   -20296489.231 9 -15795990.82648  20734378.365    20734386.1104
  22788734.589    -1079303.775 8   -824178.58446  22788738.634    22788747.9174
  22442805.565   -12312776.860 8  -9580425.07646  22442807.274    22442815.4684
 00  4 29  1 51  0.0000000  0  7 17 03 26 23 09 21 29
  21159518.607   -19362410.416 9 -15073021.01247  21159521.510    21159530.2464
  24602470.248    -1587249.596 7  -1102885.42444  24602476.554    24602486.8494
  23538722.222    -5745220.230 8  -4449987.66145  23538726.113    23538735.8294
  20806227.251   -21756900.891 9 -16754294.79148  20806231.158    20806238.8624
  20734290.896   -20296943.521 9 -15796344.78948  20734292.007    20734299.7154
  22773868.151    -1157429.021 8   -885055.36146  22773872.760    22773881.3504
  22429995.848   -12380088.093 8  -9632875.26846  22429997.907    22430007.2744
 00  4 29  1 51 30.0000000  0  7 17 03 26 23 09 21 29
  21175057.816   -19280745.420 9 -15009385.99247  21175061.781    21175070.9694
  24609293.962    -1551398.379 7  -1074949.43044  24609296.830    24609309.9564
  23556723.715    -5650627.141 8  -4376278.83745  23556726.177    23556736.3344
  20802111.857   -21778539.802 9 -16771156.35248  20802113.471    20802120.7074
  20734327.488   -20296742.911 9 -15796188.44348  20734330.060    20734337.7194
  22759004.870    -1235521.944 8   -945906.87046  22759010.862    22759019.3784
  22417230.814   -12447160.214 8  -9685139.14846  22417235.475    22417243.6264
 00  4 29  1 52  0.0000000  0  8 17 15 03 26 23 09 21 29
  21190690.658   -19198608.619 9 -14945383.33747  21190692.084    21190701.1564
  24243877.308    -1376127.64217   -801418.80955  24243880.478    24243890.6924
  24616196.883    -1515161.919 7  -1046713.22044  24616195.236    24616206.5674
  23574734.289    -5555997.897 8  -4302541.83845  23574734.894    23574744.0144
  20798035.085   -21799962.055 9 -16787848.97748  20798037.145    20798044.6114
  20734490.194   -20295881.934 9 -15795517.52648  20734493.967    20734501.7164
  22744151.044    -1313588.652 8  -1006738.04446  22744155.480    22744164.5404
  22404508.710   -12514013.038 8  -9737232.16146  22404513.577    22404522.1764
 00  4 29  1 52 30.0000000  0  8 17 15 03 26 23 09 21 29
  21206406.408   -19116010.966 9 -14881021.58247  21206409.562    21206418.7884
  24223707.595    -1482165.874 7   -884045.90445  24223701.494    24223712.7194
  24623154.113    -1478538.667 7  -1018175.61944  24623160.681    24623171.6944
  23592743.311    -5461338.186 8  -4228781.06345  23592748.300    23592756.4434
  20793995.756   -21821185.249 9 -16804386.52348  20793998.250    20794006.0704
  20734780.253   -20294357.460 9 -15794329.59948  20734784.009    20734791.7774
  22729302.606    -1391629.646 8  -1067549.16546  22729304.693    22729314.0514
  22391827.482   -12580656.958 8  -9789162.38646  22391831.612    22391840.3304
 00  4 29  1 53  0.0000000  0  8 17 15 03 26 23 09 21 29
  21222212.113   -19032950.022 9 -14816298.80647  21222215.866    21222224.7074
  24203542.686    -1588006.083 7   -966518.62145  24203560.375    24203573.0644
  24630202.727    -1441523.715 7   -989332.80644  24630207.149    24630217.1594
  23610764.447    -5366655.433 8  -4155002.35245  23610764.130    23610773.9184
  20789993.994   -21842204.430 9 -16820765.10548  20789998.183    20790006.3864
  20735193.430   -20292188.043 9 -15792639.12148  20735196.892    20735204.3934
  22714457.239    -1469641.492 8  -1128337.57346  22714460.298    22714468.9954
  22379186.333   -12647080.872 8  -9840921.17646  22379191.413    22379199.8174
 00  4 29  1 53 30.0000000  0  8 17 15 03 26 23 09 21 29
  21238106.524   -18949428.455 9 -14751217.11447  21238109.528    21238118.4904
  24183453.719    -1693645.603 7  -1048834.94845  24183456.584    24183470.7944
  24637325.287    -1404120.554 7   -960187.50844  24637325.064    24637336.5504
  23628779.739    -5271961.811 8  -4081215.14945  23628784.250    23628794.4564
  20786036.533   -21863009.226 9 -16836976.61648  20786039.170    20786047.3184
  20735728.323   -20289388.492 9 -15790457.62448  20735729.572    20735737.0534
  22699619.236    -1547618.430 8  -1189098.65846  22699621.242    22699629.8184
  22366589.402   -12713294.320 8  -9892515.96346  22366590.590    22366599.7194
 00  4 29  1 54  0.0000000  0  8 17 15 03 26 23 09 21 29
  21254085.898   -18865456.538 9 -14685784.49847  21254088.903    21254097.7634
  24163386.143    -1799081.579 7  -1130992.65345  24163393.313    24163406.5644
  24644521.567    -1366334.755 7   -930744.03144  24644512.429    24644526.0764
  23646793.209    -5177268.674 8  -4007428.35145  23646803.590    23646814.1224
  20782118.812   -21883592.422 9 -16853015.44948  20782122.467    20782130.4384
  20736380.827   -20285955.026 9 -15787782.17548  20736382.881    20736390.6034
  22684789.060    -1625552.096 8  -1249826.08046  22684790.602    22684798.6184
  22354026.328   -12779298.833 8  -9943947.93446  22354030.237    22354039.9104
 00  4 29  1 54 30.0000000  0  8 17 15 03 26 23 09 21 29
  21270152.357   -18781032.590 9 -14619999.65747  21270154.108    21270163.3824
  24143363.463    -1904311.161 7  -1212989.60645  24143368.524    24143380.6524
  24651786.227    -1328149.288 7   -900989.17744  24651778.975    24651791.1594
  23664822.435    -5082576.170 7  -3933642.03645  23664822.025    23664833.2914
  20778247.460   -21903943.378 9 -16868873.32448  20778249.670    20778257.6904
  20737153.453   -20281883.304 9 -15784609.37748  20737157.608    20737165.1774
  22669963.218    -1703436.410 8  -1310515.09546  22669970.407    22669977.3124
  22341514.072   -12845069.797 8  -9995197.91946  22341515.534    22341524.6194
 00  4 29  1 55  0.0000000  0  8 17 15 03 26 23 09 21 29
  21286306.443   -18696142.046 9 -14553851.22647  21286307.944    21286317.4164
  24123382.776    -2009331.620 7  -1294823.59245  24123383.648    24123396.2214
  24659121.043    -1289559.644 7   -870919.31944  24659124.151    24659133.8664
  23682839.228    -4987883.945 8  -3859855.97045  23682841.522    23682852.5714
  20774422.943   -21924037.508 9 -16884531.07048  20774425.837    20774433.6084
  20738054.164   -20277162.538 9 -15780930.83348  20738055.839    20738064.1464
  22655158.794    -1781264.465 8  -1371160.22546  22655159.881    22655168.3084
  22329042.930   -12910609.154 8 -10046267.43646  22329042.997    22329052.5474
 00  4 29  1 55 30.0000000  0  7 17 15 26 23 09 21 29
  21302549.386   -18610783.381 9 -14487338.03447  21302551.568    21302560.8144
  24103438.408    -2114140.171 7  -1376492.42445  24103439.868    24103451.4474
  23700857.274    -4893193.061 8  -3786070.87345  23700862.242    23700872.0364
  20770649.387   -21943872.729 9 -16899986.97448  20770651.500    20770659.1034
  20739077.518   -20271779.230 9 -15776736.02848  20739080.207    20739088.2904
  22640355.947    -1859041.590 8  -1431765.65646  22640358.900    22640368.5634
  22316610.767   -12975923.515 8 -10097161.62146  22316613.763    22316623.0584
 00  4 29  1 56  0.0000000  0  7 17 15 26 23 09 21 29
  21318882.903   -18524953.190 9 -14420457.39847  21318884.653    21318893.4674
  24083528.086    -2218734.020 7  -1457993.95445  24083535.032    24083547.8144
  23718883.374    -4798498.059 8  -3712282.61345  23718882.640    23718891.6184
  20766920.908   -21963458.946 9 -16915248.88548  20766923.836    20766931.7634
  20740230.579   -20265722.580 9 -15772016.54548  20740232.811    20740240.2804
  22625564.966    -1936762.968 8  -1492327.69346  22625568.988    22625578.2074
  22304222.873   -13041005.693 8 -10147874.90846  22304229.180    22304237.5054
 00  4 29  1 56 30.0000000  0  7 17 15 26 23 09 21 29
  21335305.059   -18438644.918 9 -14353204.24347  21335308.711    21335317.6884
  24063677.956    -2323110.201 7  -1539325.86145  24063673.610    24063683.6014
  23736904.384    -4703796.184 8  -3638488.97645  23736903.408    23736912.9034
  20763240.216   -21982798.975 9 -16930318.95348  20763243.599    20763251.3854
  20741508.478   -20258997.869 9 -15766776.47948  20741512.562    20741520.1534
  22610791.104    -2014414.069 8  -1552834.93146  22610792.147    22610800.5674
  22291882.543   -13105867.501 8 -10198416.47646  22291886.031    22291894.1874
 00  4 29  1 57  0.0000000  0  7 17 15 26 23 09 21 29
  21351820.102   -18351870.275 9 -14285587.70447  21351820.790    21351830.3674
  24043848.043    -2427265.981 7  -1620486.05445  24043851.896    24043863.5784
  23754926.551    -4609093.723 8  -3564694.91745  23754924.438    23754934.9534
  20759604.223   -22001906.622 9 -16945207.97748  20759607.670    20759615.3414
  20742913.665   -20251616.530 9 -15761024.75948  20742917.170    20742924.8864
  22596027.666    -2092000.993 8  -1613292.20846  22596028.183    22596036.1584
  22279581.238   -13170509.968 8 -10248787.13146  22279584.960    22279593.2784
 00  4 29  1 57 30.0000000  0  7 17 15 26 23 09 21 29
  21368416.737   -18264644.757 9 -14217619.81847  21368419.769    21368428.7074
  24024067.206    -2531198.422 7  -1701472.19345  24024074.942    24024086.4974
  23772941.550    -4514386.000 8  -3490896.72345  23772946.402    23772957.3404
  20756008.410   -22020810.060 9 -16959937.95948  20756010.441    20756018.0314
  20744441.098   -20243593.275 9 -15754772.86048  20744443.722    20744451.5854
  22581270.341    -2169525.268 8  -1673700.58746  22581276.445    22581284.1024
  22267324.761   -13234912.068 8 -10298970.48846  22267329.615    22267338.8124
 00  4 29  1 58  0.0000000  0  7 17 15 26 23 09 21 29
  21385097.771   -18176980.151 8 -14149309.79447  21385101.266    21385110.9844
  24004333.845    -2634904.561 7  -1782282.01545  24004340.310    24004352.0294
  23790963.853    -4419673.839 8  -3417095.09045  23790969.460    23790979.7174
  20752446.509   -22039518.624 9 -16974516.04248  20752450.292    20752457.7674
  20746087.296   -20234942.298 9 -15748031.81748  20746089.973    20746097.8264
  22566537.069    -2246969.590 8  -1734046.67746  22566538.248    22566547.3634
  22255120.576   -13299059.828 8 -10348955.64846  22255122.455    22255131.8314
 00  4 29  1 58 30.0000000  0  7 17 15 26 23 09 21 29
  21401865.536   -18088877.385 8 -14080658.34847  21401866.692    21401876.3114
  23984646.565    -2738381.865 8  -1862913.50545  23984649.595    23984661.0414
  23808987.737    -4324957.770 8  -3343290.38345  23808994.248    23809002.9934
  20748929.074   -22058015.476 9 -16988929.13748  20748930.809    20748937.8894
  20747849.775   -20225677.692 9 -15740812.63048  20747852.614    20747860.5764
  22551812.269    -2324332.482 8  -1794329.30446  22551816.360    22551825.4204
  22242964.736   -13362938.725 8 -10398731.31646  22242967.624    22242975.4444
 00  4 29  1 59  0.0000000  0  7 17 15 26 23 09 21 29
  21418709.780   -18000342.148 8 -14011669.90447  21418714.819    21418724.4054
  23964999.308    -2841627.454 8  -1943364.51245  23965003.517    23965014.5294
  23827010.512    -4230234.799 8  -3269480.33745  23827018.382    23827028.4274
  20745449.337   -22076293.737 9 -17003171.83048  20745452.275    20745459.5824
  20749727.943   -20215805.418 9 -15733119.92548  20749731.224    20749739.3924
  22537104.772    -2401629.027 8  -1854560.30946  22537107.652    22537116.0974
  22230859.278   -13426535.813 8 -10448287.42046  22230864.967    22230872.8364
 00  4 29  1 59 30.0000000  0  7 17 15 26 23 09 21 29
  21435644.409   -17911369.931 9 -13942340.95347  21435645.968    21435655.0774
  23945398.443    -2944638.237 8  -2023632.55245  23945399.339    23945411.3424
  23845045.639    -4135514.828 8  -3195672.65745  23845043.714    23845053.5404
  20742017.319   -22094336.102 9 -17017230.74948  20742019.001    20742026.2784
  20751723.372   -20205322.214 9 -15724951.17748  20751726.742    20751734.4084
  22522410.877    -2478850.311 8  -1914732.66846  22522412.546    22522421.4354
  22218811.658   -13489870.871 8 -10497639.31946  22218812.498    22218820.4274
 00  4 29  2  0  0.0000000  0  7 17 15 26 23 09 21 29
  21452654.738   -17821964.606 8 -13872674.52347  21452658.979    21452668.7054
  23925838.991    -3047411.567 8  -2103715.51845  23925844.174    23925854.6414
  23863060.812    -4040811.158 8  -3121877.65545  23863064.891    23863074.6284
  20738634.201   -22112114.731 9 -17031084.18848  20738635.658    20738643.3384
  20753834.114   -20194225.927 9 -15716304.70548  20753838.239    20753846.1994
  22507728.802    -2555999.024 8  -1974848.41146  22507731.264    22507740.5424
  22206803.662   -13552965.443 8 -10546803.83046  22206805.845    22206814.1634
 00  4 29  2  0 30.0000000  0  7 17 15 26 23 09 21 29
  21469751.548   -17732121.214 8 -13802666.73947  21469755.692    21469765.4984
  23906329.378    -3149944.377 8  -2183611.09845  23906332.230    23906342.8474
  23881074.234    -3946132.105 8  -3048101.81445  23881080.678    23881091.0894
  20735306.154   -22129605.255 9 -17044713.07348  20735307.016    20735314.9784
  20756066.162   -20182496.655 9 -15707164.99948  20756070.213    20756078.2004
  22493057.196    -2633094.805 8  -2034922.93446  22493060.262    22493070.1164
  22194839.458   -13615833.065 8 -10595791.48447  22194842.884    22194851.1614
 00  4 29  2  1  0.0000000  0  7 17 15 26 23 09 21 29
  21486933.270   -17641844.819 8 -13732321.55247  21486934.488    21486944.0964
  23886863.253    -3252233.824 7  -2263317.01845  23886867.392    23886877.0164
  23899073.501    -3851487.393 8  -2974352.77945  23899090.604    23899101.5934
  20732027.559   -22146815.902 9 -17058123.92748  20732031.939    20732039.8304
  20758426.047   -20170111.733 9 -15697514.38948  20758426.936    20758434.6504
  22478396.282    -2710139.844 8  -2094957.87347  22478399.378    22478409.1534
  22182918.996   -13678487.929 8 -10644613.37647  22182920.106    22182927.9684
 00  4 29  2  1 30.0000000  0  7 17 15 26 23 09 21 29
  21504193.706   -17551146.214 8 -13661647.36047  21504194.277    21504203.6364
  23867447.747    -3354277.210 8  -2342831.20645  23867449.789    23867458.2994
  23917101.335    -3756880.900 8  -2900633.50245  23917096.098    23917104.1944
  20728806.009   -22163751.062 9 -17071320.05048  20728809.341    20728817.2114
  20760904.375   -20157063.378 9 -15687346.81848  20760909.591    20760917.5194
  22463746.253    -2787123.305 8  -2154944.81447  22463749.809    22463759.2494
  22171037.908   -13740924.855 8 -10693265.42747  22171038.117    22171046.0104
 00  4 29  2  2  0.0000000  0  7 17 15 26 23 09 21 29
  21521524.212   -17460037.450 8 -13590653.56747  21521531.703    21521541.0244
  23848078.051    -3456071.445 8  -2422151.26245  23848078.369    23848088.4554
  23935097.898    -3662295.216 8  -2826930.45445  23935095.574    23935104.7714
  20725636.381   -22180410.194 9 -17084301.10448  20725638.916    20725647.4484
  20763518.461   -20143348.417 9 -15676659.83048  20763519.187    20763527.2014
  22449109.135    -2864053.590 8  -2214890.38547  22449110.252    22449119.3794
  22159198.359   -13803127.508 8 -10741734.94047  22159201.837    22159209.6774
 00  4 29  2  2 30.0000000  0  7 17 15 26 23 09 21 29
  21538944.073   -17368517.179 8 -13519339.13547  21538947.155    21538956.5814
  23828744.913    -3557613.629 7  -2501274.95945  23828755.252    23828766.2164
  23953086.995    -3567721.320 8  -2753236.55445  23953091.031    23953101.7244
  20722515.902   -22196803.403 9 -17097074.90248  20722519.478    20722527.3304
  20766250.869   -20128969.568 9 -15665455.50948  20766255.678    20766263.6084
  22434477.117    -2940924.024 8  -2274789.33847  22434481.810    22434491.7654
  22147410.867   -13865081.349 8 -10790010.59647  22147412.997    22147419.1244
 00  4 29  2  3  0.0000000  0  7 17 15 26 23 09 21 29
  21556437.245   -17276597.387 8 -13447713.37947  21556439.466    21556448.4144
  23809475.653    -3658900.880 8  -2580199.93945  23809480.938    23809492.0134
  23971087.080    -3473151.598 8  -2679545.85745  23971087.394    23971097.5204
  20719446.049   -22212953.289 9 -17109659.11948  20719446.760    20719453.8574
  20769110.774   -20113955.345 9 -15653756.09348  20769112.688    20769120.7464
  22419869.629    -3017715.374 8  -2334626.66947  22419869.255    22419878.3684
  22135668.256   -13926786.492 8 -10838092.47147  22135670.529    22135677.1014
 00  4 29  2  3 30.0000000  0  7 17 15 26 23 09 21 29
  21574004.305   -17184284.903 8 -13375781.62947  21574005.964    21574015.0554
  23790256.748    -3759930.421 8  -2658924.13845  23790255.525    23790266.1074
  23989083.999    -3378576.040 8  -2605850.67845  23989085.201    23989095.4004
  20716420.705   -22228848.471 9 -17122044.85048  20716422.057    20716429.0454
  20772084.560   -20098323.747 9 -15641575.61448  20772087.161    20772095.5584
  22405269.684    -3094425.342 8  -2394400.57847  22405271.443    22405281.3164
  22123970.088   -13988252.236 8 -10885987.78446  22123972.773    22123980.4164
 00  4 29  2  4  0.0000000  0  7 17 15 26 23 09 21 29
  21591646.071   -17091564.392 8 -13303531.95847  21591649.555    21591658.8664
  23771074.799    -3860699.392 7  -2737445.29145  23771077.179    23771089.7094
  24007078.310    -3283991.919 8  -2532148.81045  24007084.262    24007093.3454
  20713445.712   -22244479.262 9 -17134224.63748  20713447.403    20713454.6584
  20775175.324   -20082069.896 9 -15628910.26148  20775180.317    20775188.2394
  22390685.634    -3171059.274 8  -2454115.29147  22390689.121    22390697.0964
  22112316.996   -14049489.063 8 -10933704.72047  22112320.736    22112327.3754
 00  4 29  2  4 30.0000000  0  7 17 15 26 23 09 21 29
  21609368.719   -16998427.981 8 -13230958.19247  21609373.459    21609382.3554
  23751946.998    -3961204.868 7  -2815761.09845  23751953.192    23751964.8164
  24025075.802    -3189414.249 8  -2458452.02345  24025080.751    24025091.0644
  20710517.976   -22259855.010 9 -17146205.75348  20710521.595    20710528.7334
  20778388.781   -20065196.202 9 -15615761.91448  20778391.322    20778398.9414
  22376117.094    -3247601.524 8  -2513758.55247  22376123.137    22376132.6044
  22100703.513   -14110506.995 8 -10981251.10347  22100709.077    22100716.6684
 00  4 29  2  5  0.0000000  0  7 17 15 26 23 09 21 29
  21627171.602   -16904875.442 8 -13158060.16547  21627176.126    21627184.5594
  23732877.719    -4061443.942 8  -2893869.32645  23732879.383    23732889.6804
  24043079.449    -3094845.189 8  -2384761.94745  24043076.839    24043087.1754
  20707644.375   -22274970.874 9 -17157984.34848  20707645.024    20707652.2914
  20781717.891   -20047693.823 9 -15602123.67848  20781721.778    20781729.6804
  22361575.373    -3324054.842 8  -2573332.49047  22361575.092    22361583.5534
  22089133.728   -14171318.145 8 -11028636.33747  22089137.047    22089145.5954
 00  4 29  2  5 30.0000000  0  7 17 15 26 23 09 21 29
  21645056.016   -16810903.731 8 -13084835.50747  21645058.094    21645067.8214
  23713853.723    -4161413.753 7  -2971767.70645  23713854.082    23713866.4894
  24061067.920    -3000283.825 8  -2311077.82145  24061071.568    24061081.1454
  20704819.972   -22289813.698 9 -17169550.19848  20704820.330    20704827.7394
  20785174.261   -20029537.730 9 -15587976.06147  20785176.631    20785184.6254
  22347038.166    -3400426.179 8  -2632842.49047  22347041.220    22347050.4204
  22077601.415   -14231911.925 8 -11075852.19647  22077605.936    22077614.1554
 00  4 29  2  6  0.0000000  0  7 17 15 26 23 09 21 29
  21663018.327   -16716501.452 8 -13011275.35247  21663022.347    21663031.4274
  23694872.694    -4261111.527 8  -3049454.14645  23694881.476    23694893.9604
  24079052.810    -2905748.813 8  -2237414.22045  24079060.546    24079070.8484
  20702041.563   -22304404.752 9 -17180920.00148  20702043.888    20702051.3304
  20788752.596   -20010730.861 9 -15573321.35248  20788755.498    20788763.8324
  22332522.643    -3476708.077 8  -2692282.87847  22332525.435    22332533.8274
  22066116.070   -14292266.352 8 -11122881.55747  22066121.317    22066128.7204
 00  4 29  2  6 30.0000000  0  7 17 15 26 23 09 21 29
  21681063.707   -16621685.505 8 -12937392.87047  21681065.067    21681074.9684
  23675966.311    -4360534.451 8  -3126926.49545  23675963.755    23675975.1374
  24097039.063    -2811250.635 7  -2163779.34545  24097043.566    24097053.3704
  20699311.967   -22318752.844 9 -17192100.25148  20699313.364    20699320.7934
  20792454.840   -19991285.324 9 -15558168.97048  20792456.196    20792464.2104
  22318022.731    -3552894.334 8  -2751648.71447  22318028.197    22318036.4124
  22054680.792   -14352375.461 8 -11169719.76847  22054682.194    22054689.7174
 00  4 29  2  7  0.0000000  0  7 17 15 26 23 09 21 29
  21699182.134   -16526456.613 8 -12863188.59547  21699186.570    21699196.1124
  23657089.135    -4459679.369 8  -3204182.12745  23657096.307    23657108.2314
  24115017.659    -2716787.068 8  -2090171.45445  24115019.270    24115028.8354
  20696628.184   -22332850.863 9 -17203085.73448  20696630.811    20696638.2474
  20796273.656   -19971199.054 9 -15542517.31548  20796278.076    20796286.8574
  22303547.683    -3628984.424 8  -2810939.61547  22303548.723    22303557.4394
  22043289.237   -14412228.668 8 -11216358.55547  22043292.471    22043300.7764
 00  4 29  2  7 30.0000000  0  7 17 15 26 23 09 21 29
  21717389.841   -16430803.803 9 -12788654.00947  21717389.821    21717398.3014
  23638283.415    -4558543.565 8  -3281218.97145  23638282.976    23638294.5994
  24132986.971    -2622369.360 8  -2016599.26945  24132987.334    24132995.5104
  20693992.273   -22346705.626 9 -17213881.69948  20693994.180    20694001.4884
  20800218.451   -19950479.470 9 -15526372.18548  20800220.941    20800229.1814
  22289088.414    -3704974.361 9  -2870152.42247  22289088.205    22289097.0564
  22031951.229   -14471809.696 8 -11262785.25747  22031954.876    22031963.3354
 00  4 29  2  8  0.0000000  0  7 17 15 26 23 09 21 29
  21735669.211   -16334725.990 8 -12713788.24247  21735672.001    21735681.0754
  23619518.469    -4657124.098 8  -3358034.84545  23619524.024    23619534.8864
  24150930.801    -2528001.893 7  -1943066.23045  24150944.463    24150953.9654
  20691400.232   -22360321.451 9 -17224491.41348  20691402.893    20691410.1724
  20804281.117   -19929144.281 9 -15509747.35948  20804281.442    20804288.9904
  22274641.989    -3780861.230 8  -2929284.89347  22274647.122    22274655.5454
  22020663.826   -14531127.895 8 -11309007.14247  22020666.238    22020674.8044
 00  4 29  2  8 30.0000000  0  7 17 15 26 23 09 21 29
  21754027.118   -16238236.538 8 -12638601.72647  21754032.880    21754042.3934
  23600814.174    -4755417.946 8  -3434627.34645  23600818.704    23600829.6274
  24168886.646    -2433670.692 8  -1869561.46545  24168894.836    24168904.4714
  20688858.081   -22373677.848 9 -17234898.99548  20688861.563    20688868.7054
  20808457.250   -19907189.902 9 -15492640.03748  20808459.291    20808466.5794
  22260223.795    -3856653.294 8  -2988343.54747  22260224.806    22260232.9024
  22009426.292   -14590194.150 8 -11355032.73047  22009427.191    22009434.3764
 00  4 29  2  9  0.0000000  0  7 17 15 26 23 09 21 29
  21772471.188   -16141318.944 8 -12563081.59147  21772475.607    21772485.4934
  23582169.061    -4853422.292 8  -3510994.21445  23582169.252    23582180.3994
  24186840.874    -2339369.210 8  -1796079.84645  24186839.467    24186848.1374
  20686364.811   -22386781.119 9 -17245109.42048  20686368.117    20686375.4364
  20812755.372   -19884608.974 9 -15475044.49848  20812756.340    20812763.6914
  22245813.573    -3932363.533 8  -3047338.48447  22245817.518    22245825.7594
  21998231.421   -14649012.659 8 -11400865.28247  21998234.221    21998241.6304
 00  4 29  2  9 30.0000000  0  7 17 15 26 23 09 21 29
  21790989.455   -16043993.539 8 -12487243.68147  21790996.068    21791006.6804
  23563568.009    -4951134.139 8  -3587133.18645  23563575.667    23563587.2064
  24204780.696    -2245090.260 8  -1722615.79145  24204780.709    24204789.9974
  20683919.666   -22399640.402 9 -17255129.90248  20683921.466    20683928.7734
  20817170.382   -19861405.874 9 -15456964.15248  20817171.195    20817179.1394
  22231420.959    -4008001.348 8  -3106277.01547  22231423.821    22231432.0844
  21987082.748   -14707595.144 8 -11446513.91447  21987086.964    21987094.1444
 00  4 29  2 10  0.0000000  0  7 17 15 26 23 09 21 29
  21809583.942   -15946296.719 8 -12411116.36147  21809587.051    21809597.7104
  23545041.595    -5048550.726 8  -3663042.09045  23545037.881    23545049.8364
  24222709.449    -2150820.217 8  -1649158.66945  24222719.254    24222728.7704
  20681521.417   -22412239.551 9 -17264947.51548  20681523.858    20681530.9244
  20821698.871   -19837589.843 9 -15438406.19348  20821703.208    20821711.0994
  22217040.363    -4083564.095 8  -3165157.05047  22217044.171    22217053.2564
  21975976.477   -14765962.814 8 -11491995.15247  21975979.013    21975987.5554
 00  4 29  2 10 30.0000000  0  7 17 15 26 23 09 21 29
  21828243.708   -15848234.240 8 -12334704.11947  21828248.390    21828258.3804
  23526550.570    -5145669.080 8  -3738718.62845  23526556.089    23526567.3314
  24240648.887    -2056560.309 8  -1575709.41445  24240656.951    24240664.9404
  20679173.949   -22424576.713 9 -17274560.90048  20679176.148    20679183.6224
  20826350.828   -19813153.606 9 -15419364.96848  20826353.459    20826360.7624
  22202675.423    -4159049.010 8  -3223976.51547  22202679.990    22202688.7374
  21964910.691   -14824113.664 8 -11537307.44147  21964912.453    21964921.6834
 00  4 29  2 11  0.0000000  0  7 17 15 26 23 09 21 29
  21846974.747   -15749813.535 8 -12258012.71847  21846977.852    21846987.1484
  23508132.373    -5242486.248 8  -3814160.48145  23508132.260    23508143.5764
  24258587.657    -1962315.512 8  -1502271.97445  24258591.419    24258600.8994
  20676875.881   -22436651.385 9 -17283969.72448  20676878.504    20676885.7514
  20831118.481   -19788107.488 9 -15399848.49648  20831119.604    20831127.1754
  22188332.657    -4234444.043 8  -3282725.91947  22188333.122    22188341.4124
  21953882.839   -14882057.053 8 -11582458.05547  21953887.265    21953895.6164
 00  4 29  2 11 30.0000000  0  7 17 15 26 23 09 21 29
  21865770.137   -15651055.020 8 -12181058.10347  21865770.959    21865780.4004
  23489768.595    -5338999.584 8  -3889365.51645  23489767.086    23489778.2074
  24276514.388    -1868085.903 8  -1428846.33945  24276522.649    24276530.9274
  20674631.432   -22448437.990 9 -17293153.96348  20674635.098    20674642.5914
  20835994.630   -19762463.054 9 -15379865.81248  20835999.667    20836007.4274
  22174003.155    -4309730.690 8  -3341390.67747  22174005.892    22174014.4864
  21942897.031   -14939797.031 8 -11627450.17547  21942899.919    21942908.1784
 00  4 29  2 12  0.0000000  0  7 17 15 26 23 09 21 29
  21884626.967   -15551952.623 8 -12103835.54047  21884629.703    21884638.7454
  23471454.763    -5435206.060 8  -3964331.49545  23471460.682    23471470.4124
  24294441.651    -1773883.394 8  -1355441.81245  24294448.082    24294458.1994
  20672444.431   -22459928.451 9 -17302107.56648  20672448.640    20672456.2324
  20840989.541   -19736223.782 9 -15359419.61648  20840993.104    20841000.9384
  22159699.527    -4384909.020 8  -3399971.07547  22159699.957    22159708.6284
  21931950.437   -14997320.888 8 -11672273.89747  21931952.762    21931961.0084
 00  4 29  2 12 30.0000000  0  7 17 15 26 23 09 21 29
  21903553.448   -15452486.864 8 -12026329.83046  21903556.699    21903566.1644
  23453208.969    -5531102.645 8  -4039056.02745  23453210.221    23453219.9574
  24312362.131    -1679721.232 8  -1282068.74845  24312367.216    24312376.6584
  20670311.919   -22471138.604 9 -17310842.72248  20670315.765    20670322.8244
  20846099.429   -19709375.826 9 -15338499.12248  20846102.411    20846110.0334
  22145407.789    -4459981.915 8  -3458469.27747  22145413.527    22145422.9704
  21921050.950   -15054606.581 8 -11716912.03047  21921052.176    21921059.9434
 00  4 29  2 13  0.0000000  0  7 17 15 26 23 09 21 29
  21922550.811   -15352669.127 8 -11948549.87246  21922551.656    21922561.7824
  23435016.645    -5626686.467 8  -4113536.81145  23435021.313    23435031.0174
  24330269.701    -1585606.043 8  -1208732.30645  24330277.202    24330286.5454
  20668234.213   -22482063.861 9 -17319355.89648  20668236.654    20668243.8984
  20851323.510   -19681920.271 9 -15317105.17748  20851326.581    20851334.0784
  22131146.116    -4534964.560 8  -3516897.29647  22131145.274    22131154.1464
  21910192.933   -15111652.644 8 -11761363.43547  21910196.410    21910203.8454
 00  4 29  2 13 30.0000000  0  7 17 15 26 23 09 21 29
  21941611.391   -15252497.040 8 -11870493.77747  21941614.427    21941623.5544
  23416888.251    -5721954.859 8  -4187771.79145  23416891.224    23416901.4914
  24348172.126    -1491539.702 8  -1135433.89845  24348176.546    24348187.1924
  20666207.998   -22492712.775 9 -17327653.65248  20666209.902    20666217.7344
  20856666.079   -19653841.308 9 -15295225.45148  20856669.781    20856677.2964
  22116888.382    -4609863.584 8  -3575260.09847  22116892.601    22116901.3324
  21899386.959   -15168443.086 8 -11805615.67347  21899389.456    21899397.3164
 00  4 29  2 14  0.0000000  0  7 17 15 26 23 09 21 29
  21960739.396   -15151969.996 8 -11792161.09147  21960743.700    21960754.1334
  23398820.564    -5816904.673 8  -4261758.58445  23398824.095    23398833.1934
  24366066.707    -1397530.742 8  -1062180.21045  24366066.027    24366076.3194
  20664228.481   -22503102.947 9 -17335749.94448  20664232.917    20664240.3434
  20862128.241   -19625133.337 9 -15272855.59448  20862132.692    20862140.3734
  22102652.661    -4684676.595 8  -3633555.89947  22102656.196    22102664.4944
  21888629.384   -15224969.429 8 -11849662.11847  21888632.475    21888639.8284
 00  4 29  2 14 30.0000000  0  7 17 15 26 23 09 21 29
  21979942.451   -15051081.086 8 -11713546.42547  21979942.818    21979952.1924
  23380818.476    -5911533.201 8  -4335495.04846  23380817.923    23380826.9634
  24383941.354    -1303579.909 8   -988971.80245  24383944.584    24383954.5894
  20662304.517   -22513227.331 9 -17343639.24048  20662306.414    20662314.0404
  20867713.206   -19595781.927 9 -15249984.35948  20867717.979    20867725.9854
  22088434.242    -4759385.291 8  -3691770.43947  22088439.276    22088447.0284
  21877922.125   -15281247.140 8 -11893514.82047  21877923.451    21877931.0764
 00  4 29  2 15  0.0000000  0  7 17 15 26 23 09 21 29
  21999208.027   -14949834.615 8 -11634653.14347  21999208.686    21999218.8474
  23362868.102    -6005837.622 8  -4408978.90445  23362869.852    23362880.6824
  24401812.467    -1209678.677 7   -915802.07645  24401812.245    24401823.4614
  20660430.801   -22523071.859 9 -17351310.30748  20660432.824    20660440.6224
  20873421.011   -19565801.017 9 -15226622.60348  20873423.506    20873430.9464
  22074241.452    -4833976.154 8  -3749893.22047  22074244.530    22074253.0394
  21867253.571   -15337293.672 8 -11937187.39747  21867258.060    21867265.4374
 00  4 29  2 15 30.0000000  0  7 17 15 26 23 09 21 29
  22018543.543   -14848226.057 8 -11555477.73946  22018544.467    22018554.2464
  23344983.045    -6099814.730 8  -4482207.72245  23344987.077    23344996.5714
  24419671.270    -1115821.461 7   -842666.65445  24419672.635    24419683.4204
  20658613.408   -22532628.721 9 -17358757.18748  20658614.637    20658621.9054
  20879243.743   -19535202.516 9 -15202779.61048  20879246.299    20879253.3434
  22060075.303    -4908421.737 8  -3807902.71247  22060077.799    22060086.7654
  21856633.024   -15393108.082 8 -11980679.08747  21856636.996    21856644.0274
 00  4 29  2 16  0.0000000  0  7 17 15 26 23 09 21 29
  22037944.719   -14746255.727 8 -11476020.40546  22037949.085    22037958.4754
  23327161.295    -6193461.745 8  -4555179.36545  23327166.985    23327176.6264
  24437521.993    -1022009.562 7   -769566.50245  24437524.847    24437535.6464
  20656850.939   -22541884.172 9 -17365969.15348  20656853.159    20656860.6774
  20885181.476   -19503994.441 9 -15178461.62148  20885184.591    20885192.4534
  22045940.166    -4982710.531 8  -3865789.93447  22045941.616    22045950.3054
  21846056.844   -15448696.008 8 -12023994.30747  21846058.778    21846065.9424
 00  4 29  2 16 30.0000000  0  7 17 15 26 23 09 21 29
  22057414.149   -14643924.806 8 -11396282.12246  22057421.718    22057431.6844
  23309408.431    -6286775.734 8  -4627891.51745  23309410.352    23309419.6724
  24455373.738     -928231.743 7   -696492.93245  24455370.301    24455381.2034
  20655149.123   -22550828.345 9 -17372938.56248  20655150.852    20655158.4014
  20891234.757   -19472186.398 9 -15153676.11648  20891237.603    20891245.2834
  22031832.258    -5056854.622 8  -3923564.51647  22031833.045    22031841.6524
  21835520.800   -15504057.234 8 -12067132.87547  21835523.785    21835531.3494
 00  4 29  2 17  0.0000000  0  8 17 15 26 23 05 09 21 29
  22076959.154   -14541251.213 8 -11316276.81946  22076959.992    22076969.8084
  23291709.344    -6379753.816 8  -4700341.87045  23291715.402    23291726.5824
  24473212.393     -834481.436 7   -623440.79345  24473210.256    24473221.3404
  20653505.219   -22559464.988 9 -17379668.45948  20653507.543    20653514.9874
  24499606.012      -39522.28117
  20897399.251   -19439801.174 9 -15128440.86848  20897400.450    20897408.0174
  22017746.522    -5130871.071 8  -3981239.64947  22017747.366    22017756.1134
  21825032.191   -15559178.318 9 -12110084.31647  21825035.183    21825041.9994
 00  4 29  2 17 30.0000000  0  8 17 15 26 23 05 09 21 29
  22096558.215   -14438242.031 8 -11236010.01146  22096562.010    22096571.9094
  23274078.248    -6472393.128 8  -4772528.26845  23274086.487    23274097.6454
  24491038.163     -740760.217 7   -550411.32645  24491045.358    24491055.7184
  20651919.082   -22567805.528 9 -17386167.52948  20651920.589    20651927.9034
  24484318.309     -119859.357 7    -67360.85655                  24484341.4964
  20903672.900   -19406820.526 9 -15102741.64847  20903675.822    20903683.9214
  22003683.227    -5204766.505 8  -4038820.52647  22003685.672    22003693.8504
  21814589.751   -15614046.803 8 -12152838.90447  21814594.012    21814600.5284
 00  4 29  2 18  0.0000000  0  8 17 15 26 23 05 09 21 29
  22116230.092   -14334899.172 8 -11155483.22946  22116227.429    22116237.8084
  23256523.451    -6564690.898 8  -4844448.55645  23256524.237    23256532.9994
  24508868.651     -647063.876 7   -477401.24345  24508874.562    24508885.8964
  20650382.472   -22575868.418 9 -17392450.34848  20650386.142    20650393.9184
  24469045.252     -200142.784 7   -129918.99945  24469048.150    24469062.4504
  20910064.017   -19373231.107 9 -15076568.07147  20910067.826    20910075.8664
  21989640.788    -5278557.574 8  -4096320.02847  21989643.479    21989651.9774
  21804199.110   -15668656.159 8 -12195391.59147  21804202.079    21804208.9564
 00  4 29  2 18 30.0000000  0  8 17 15 26 23 05 09 21 29
  22135949.260   -14231233.745 8 -11074705.06446  22135954.678    22135963.3404
  23239019.951    -6656644.147 8  -4916100.30545  23239024.251    23239033.8994
  24526696.432     -553392.777 7   -404410.80445  24526701.154    24526710.4924
  20648899.304   -22583663.285 9 -17398524.45948  20648902.891    20648910.2034
  24453774.810     -280363.698 7   -192428.45745  24453782.699    24453795.8144
  20916570.386   -19339041.696 9 -15049926.95847  20916573.652    20916581.7854
  21975615.213    -5352261.463 8  -4153751.56147  21975618.355    21975627.4794
  21793858.586   -15723005.663 8 -12237741.77047  21793859.818    21793866.0924
 00  4 29  2 19  0.0000000  0  8 17 15 26 23 05 09 21 29
  22155739.650   -14127244.232 8 -10993674.36046  22155743.244    22155753.1374
  23221592.665    -6748250.117 8  -4987481.46445  23221592.270    23221604.3154
  24544522.255     -459761.404 8   -331451.33145  24544519.379    24544528.6884
  20647464.446   -22591198.906 9 -17404396.37248  20647468.766    20647476.0084
  24438536.014     -360496.916 7   -254869.65845  24438532.200    24438547.8284
  20923192.286   -19304245.747 9 -15022813.21647  20923195.087    20923202.9224
  21961608.245    -5425879.474 8  -4211116.24847  21961609.744    21961618.4794
  21783559.884   -15777103.787 8 -12279896.11747  21783564.338    21783571.7214
 00  4 29  2 19 30.0000000  0  8 17 15 26 23 05 09 21 29
  22175592.391   -14022927.618 8 -10912388.78446  22175593.821    22175604.4044
  23204222.930    -6839505.819 8  -5058589.66746  23204229.077    23204238.7984
  24562324.039     -366173.605 7   -258525.82145  24562327.971    24562337.9644
  20646082.990   -22598470.394 9 -17410062.44348  20646085.128    20646092.8014
  24423298.196     -440537.054 7   -317238.32445  24423302.653    24423317.3494
  20929932.738   -19268833.158 9 -14995218.98447  20929934.205    20929941.6544
  21947616.358    -5499404.747 8  -4268408.57647  21947617.661    21947627.4444
  21773312.725   -15830958.764 8 -12321860.98447  21773315.957    21773324.3754
 00  4 29  2 20  0.0000000  0  8 17 15 26 23 05 09 21 29
  22195496.608   -13918287.497 8 -10830851.13246  22195506.308    22195516.8094
  23186928.698    -6930408.443 8  -5129422.83345  23186928.100    23186938.1244
  24580121.313     -272639.486 7   -185642.10445  24580125.976    24580137.3434
  20644755.180   -22605453.684 9 -17415503.93548  20644756.413    20644763.6994
  24408085.521     -520492.175 7   -379540.63145  24408086.119    24408101.9234
  20936782.425   -19232831.391 9 -14967165.64847  20936784.841    20936792.6414
  21933640.802    -5572837.121 8  -4325628.52647  21933643.944    21933653.0044
  21763109.283   -15884585.852 8 -12363648.25847  21763111.389    21763118.4884
 00  4 29  2 20 30.0000000  0  8 17 15 26 23 05 09 21 29
  22215483.294   -13813326.698 8 -10749063.59546  22215479.986    22215489.2454
  23169697.811    -7020955.112 8  -5199978.52446  23169699.656    23169711.3144
  24597907.866     -179170.698 7   -112809.36045  24597912.478    24597923.6764
  20643481.055   -22612140.650 9 -17420714.56148  20643483.764    20643491.4114
  24392880.647     -600356.151 7   -441771.98545  24392889.842    24392902.3754
  20943742.381   -19196248.407 9 -14938659.42947  20943746.446    20943754.3994
  21919687.497    -5646163.198 9  -4382765.58347  21919691.045    21919698.8904
  21752941.095   -15938010.745 8 -12405277.92147  21752944.947    21752951.5334
 00  4 29  2 21  0.0000000  0  8 17 15 26 23 05 09 21 29
  22235509.942   -13708044.373 8 -10667025.50746  22235514.695    22235524.1044
  23152533.076    -7111143.031 8  -5270254.67046  23152536.844    23152547.3574
  24615679.811      -85762.466 7    -40023.75145  24615687.026    24615698.4404
  20642268.001   -22618519.758 9 -17425685.26548  20642269.819    20642277.4514
  24377704.226     -680144.551 7   -503944.53345  24377704.412    24377719.5954
  20950816.686   -19159074.708 9 -14909692.89847  20950819.854    20950828.3494
  21905762.545    -5719353.275 9  -4439796.65347  21905763.165    21905770.9894
  21742814.443   -15991237.795 8 -12446753.40547  21742816.807    21742822.7914
 00  4 29  2 21 30.0000000  0  8 17 15 26 23 05 09 21 29
  22255601.902   -13602450.106 8 -10584744.38446  22255608.700    22255618.6714
  23135440.698    -7200969.201 8  -5340248.98145  23135444.524    23135450.8554
  24633452.560        7592.287 7     32720.13845  24633452.489    24633463.5064
  20641114.333   -22624577.934 9 -17430405.90248  20641117.142    20641124.7384
  24362526.722     -759881.162 7   -566076.69845  24362529.040    24362544.8664
  20958003.505   -19121316.681 9 -14880271.04947  20958005.610    20958013.1434
  21891861.680    -5792387.188 8  -4496706.08847  21891864.902    21891873.1604
  21732723.972   -16044259.761 8 -12488069.14047  21732726.275    21732733.0314
 00  4 29  2 22  0.0000000  0  8 17 15 26 23 05 09 21 29
  22275763.510   -13496529.821 8 -10502209.20046  22275764.749    22275774.7174
  23118418.057    -7290430.718 8  -5409959.12745  23118420.065    23118430.0914
  24651206.116      100897.495 7    105425.47745  24651208.055    24651218.3954
  20640019.044   -22630327.543 9 -17434886.06348  20640022.856    20640030.6224
  24347369.963     -839568.829 7   -628170.72145  24347368.401    24347381.3784
  20965296.163   -19082983.865 9 -14850401.31347  20965299.804    20965307.7854
  21877996.220    -5865262.842 9  -4553492.20447  21877997.102    21878005.6344
  21722673.467   -16097071.831 8 -12529221.31847  21722675.566    21722683.3484
 00  4 29  2 22 30.0000000  0  8 17 15 26 23 05 09 21 29
  22295978.295   -13390275.920 8 -10419414.06946  22295983.815    22295994.7734
  23101465.370    -7379524.936 8  -5479383.00046  23101466.265    23101476.3304
  24668958.820      194159.642 7    178097.21045  24668954.893    24668966.3674
  20638983.673   -22635781.941 9 -17439136.16548  20638985.031    20638992.5274
  24332208.298     -919195.080 7   -690216.86545  24332214.439    24332225.9784
  20972703.111   -19044067.183 9 -14820076.62647  20972705.459    20972713.1044
  21864156.320    -5937975.209 8  -4610151.21947  21864160.569    21864168.8994
  21712666.350   -16149655.012 8 -12570195.16747  21712669.366    21712677.2144
 00  4 29  2 23  0.0000000  0  8 17 15 26 23 05 09 21 29
  22316263.621   -13283687.151 8 -10336358.01446  22316266.759    22316277.6084
  23084578.922    -7468248.872 8  -5548518.37846  23084581.988    23084590.8014
  24686689.751      287379.990 7    250736.37545  24686694.419    24686704.7014
  20638003.186   -22640933.404 9 -17443150.26048  20638004.780    20638012.0554
  24317073.235     -998754.916 7   -752211.33445  24317073.509    24317090.5644
  20980221.323   -19004577.512 9 -14789305.44447  20980220.718    20980227.5944
  21850347.072    -6010533.476 9  -4666690.10547  21850353.394    21850361.1674
  21702709.835   -16201981.817 8 -12610969.20347  21702711.938    21702719.3984
 00  4 29  2 23 30.0000000  0  8 17 15 26 23 05 09 21 29
  22336615.374   -13176756.988 8 -10253035.92146  22336615.420    22336625.6484
  23067772.059    -7556599.763 8  -5617363.04846  23067768.503    23067779.1184
  24704420.912      380554.651 7    323339.97045  24704425.489    24704435.3984
  20637079.059   -22645787.196 9 -17446932.44848  20637081.217    20637088.4764
  24301959.554    -1078219.989 7   -814131.91745  24301953.153    24301966.0724
  20987839.033   -18964527.994 9 -14758098.01847  20987841.585    20987849.2904
  21836571.039    -6082955.715 9  -4723122.93447  21836572.211    21836579.9894
  21692803.588   -16254039.966 8 -12651533.88847  21692806.353    21692812.6914
 00  4 29  2 24  0.0000000  0  8 17 15 26 23 05 09 21 29
  22357023.906   -13069485.273 8 -10169447.67446  22357029.195    22357038.4294
  23051020.935    -7644574.709 8  -5685914.82746  23051028.476    23051038.6304
  24722145.355      473682.822 7    395907.31645  24722147.920    24722156.4984
  20636212.030   -22650344.671 9 -17450483.75548  20636213.898    20636221.1204
  24286848.655    -1157567.285 7   -875960.69345  24286852.702    24286866.6224
  20995566.277   -18923921.257 9 -14726456.38447  20995568.426    20995576.2424
  21822812.012    -6155250.120 9  -4779456.24547  21822815.241    21822822.8294
  21682947.932   -16305832.502 8 -12691891.65747  21682949.890    21682957.4014
 00  4 29  2 24 30.0000000  0  8 17 15 26 23 05 09 21 29
  22377497.318   -12961897.108 8 -10085612.85146  22377502.394    22377512.5114
  23034362.816    -7732171.047 8  -5754171.59246  23034360.058    23034368.9344
  24739846.301      566755.402 7    468431.34045  24739858.544    24739867.7734
  20635400.400   -22654598.796 9 -17453798.67248  20635404.181    20635411.4324
  24271774.301    -1236788.093 7   -937691.01245  24271777.127    24271790.0534
  21003400.018   -18882755.374 9 -14694379.06847  21003402.464    21003410.1114
  21809080.367    -6227408.741 9  -4835683.77447  21809083.394    21809091.1734
  21673140.942   -16357359.061 8 -12732042.16647  21673144.421    21673152.4004
 00  4 29  2 25  0.0000000  0  8 17 15 26 23 05 09 21 29
  22398032.991   -12854009.994 8 -10001545.09246  22398032.713    22398042.4744
  23017756.976    -7819385.734 8  -5822130.95446  23017762.348    23017772.7774
  24757559.219      659780.850 7    540918.66545  24757561.021    24757569.8894
  20634650.760   -22658549.370 9 -17456877.04148  20634652.336    20634659.4694
  24256720.687    -1315887.978 7   -999327.02545  24256724.921    24256738.3924
  21011340.597   -18841026.185 9 -14661862.81147  21011343.160    21011350.5674
  21795375.673    -6299433.803 9  -4891807.10947  21795377.778    21795385.4554
  21663386.471   -16408633.285 9 -12771996.02247  21663387.276    21663395.2784
 00  4 29  2 25 30.0000000  0  8 17 15 26 23 05 09 21 29
  22418612.621   -12745836.480 8  -9917254.18246  22418617.228    22418626.7004
  23001235.080    -7906215.798 8  -5889790.53046  23001239.600    23001249.5414
  24775255.433      752764.219 7    613373.21645  24775254.111    24775264.5304
  20633955.047   -22662195.200 9 -17459717.85048  20633958.518    20633965.8594
  24241695.820    -1394865.992 7  -1060868.10245  24241696.460    24241709.6474
  21019391.907   -18798716.289 9 -14628894.05047  21019394.499    21019402.1994
  21781698.837    -6371313.412 9  -4947817.17247  21781698.922    21781707.5224
  21653672.620   -16459669.617 8 -12811764.55847  21653675.321    21653683.1584
 00  4 29  2 26  0.0000000  0  8 17 15 26 23 05 09 21 29
  22439255.587   -12637395.967 8  -9832755.17146  22439252.573    22439263.7534
  22984788.405    -7992658.667 8  -5957148.48546  22984790.593    22984798.6874
  24792940.138      845703.158 7    685793.14545  24792940.266    24792949.7434
  20633319.073   -22665542.389 9 -17462325.99448  20633321.456    20633328.9114
  24226687.152    -1473730.144 7  -1122320.45345  24226689.703    24226703.5174
  21027556.291   -18755813.398 9 -14595463.21947  21027558.945    21027566.3174
  21768043.562    -6443045.940 9  -5003712.72947  21768048.595    21768057.1824
  21644003.461   -16510482.321 8 -12851358.86947  21644006.458    21644014.0014
 00  4 29  2 26 30.0000000  0  7 17 15 23 05 09 21 29
  22459932.069   -12528702.112 8  -9748058.81746  22459936.822    22459947.6444
  22968415.404    -8078711.484 8  -6024202.49246  22968413.576    22968423.5784
  20632738.668   -22668589.497 9 -17464700.29148  20632741.479    20632749.0424
  24211696.659    -1552488.204 7  -1183690.14145  24211702.251    24211715.4864
  21035833.865   -18712302.843 9 -14561558.89347  21035838.705    21035845.8744
  21754422.883    -6514631.924 9  -5059494.04747  21754426.035    21754434.6614
  21634373.556   -16561078.122 8 -12890784.16847  21634378.432    21634385.9974
 00  4 29  2 27  0.0000000  0  7 17 15 23 05 09 21 29
  22480662.507   -12419747.817 8  -9663159.48146  22480669.953    22480680.0474
  22952104.906    -8164371.540 8  -6090950.41846  22952113.286    22952124.3884
  20632219.829   -22671319.659 9 -17466827.67148  20632221.996    20632229.4354
  24196729.507    -1631149.241 7  -1244984.26245  24196731.720    24196744.3784
  21044233.644   -18668176.191 9 -14527174.48647  21044235.862    21044243.1674
  21740826.437    -6586080.900 9  -5115168.48447  21740829.849    21740838.6194
  21624786.857   -16611469.339 8 -12930050.02747  21624789.387    21624797.7904
 00  4 29  2 27 30.0000000  0  7 17 15 23 05 09 21 29
  22501455.007   -12310528.467 8  -9578053.59346  22501453.738    22501464.4974
  22935889.973    -8249635.910 8  -6157390.08246  22935888.613    22935897.5394
  20631762.297   -22673726.438 9 -17468703.09948  20631764.189    20631771.4374
  24181787.738    -1709705.508 7  -1306196.77545  24181785.080    24181797.3214
  21052748.394   -18623437.670 9 -14492313.29147  21052749.266    21052756.5264
  21727255.112    -6657392.090 9  -5170735.62847  21727259.596    21727268.3024
  21615235.398   -16661659.781 8 -12969159.42047  21615237.465    21615245.7894
 00  4 29  2 28  0.0000000  0  7 17 15 23 05 09 21 29
  22522288.604   -12201042.902 8  -9492740.26646  22522288.677    22522299.2004
  22919728.380    -8334501.850 8  -6223519.28146  22919737.979    22919748.3624
  20631364.258   -22675814.137 9 -17470329.99748  20631366.576    20631374.4024
  24166859.880    -1788154.941 7  -1367325.99345  24166855.417    24166866.7874
  21061371.903   -18578102.587 9 -14456987.24647  21061376.076    21061383.7334
  21713715.631    -6728566.493 9  -5226196.03047  21713715.767    21713724.4814
  21605724.272   -16711648.693 8 -13008111.80747  21605725.331    21605733.4054
 00  4 29  2 28 30.0000000  0  7 17 15 23 05 09 21 29
  22543174.863   -12091276.846 8  -9407208.39346  22543176.304    22543187.2144
  22903665.616    -8418966.575 8  -6289335.82046  22903664.347    22903674.0144
  20631029.450   -22677564.946 9 -17471694.13048  20631033.418    20631040.6774
  24151942.131    -1866496.764 7  -1428371.35045  24151947.215    24151961.3104
  21070113.235   -18532185.470 9 -14421207.66647  21070113.933    21070121.1804
  21700195.080    -6799598.691 9  -5281545.71347  21700198.472    21700207.1564
  21596249.295   -16761433.259 8 -13046904.96247  21596251.973    21596260.2234
 00  4 29  2 29  0.0000000  0  7 17 15 23 05 09 21 29
  22564116.497   -11981223.116 8  -9321452.38846  22564119.059    22564129.2064
  22887664.602    -8503027.196 8  -6354837.49546  22887668.177    22887679.4694
  20630761.561   -22678985.168 9 -17472800.76748  20630763.491    20630770.7854
  24137051.297    -1944724.837 7  -1489328.10245  24137061.426    24137074.2904
  21078956.015   -18485707.995 9 -14384991.45347  21078957.784    21078965.2184
  21686708.025    -6870472.220 9  -5336771.66147  21686711.061    21686719.9054
  21586818.564   -16810998.635 9 -13085527.35247  21586820.141    21586827.9424
 00  4 29  2 29 30.0000000  0  7 17 15 23 05 09 21 29
  22585113.634   -11870902.527 8  -9235488.41446  22585112.951    22585122.2774
  22871743.139    -8586681.006 8  -6420022.20846  22871750.198    22871760.3244
  20630547.595   -22680102.411 9 -17473671.38348  20630550.834    20630558.3604
  24122202.378    -2022829.789 7  -1550188.92545  24122198.505    24122209.0784
  21087901.782   -18438687.578 9 -14348352.17347  21087906.027    21087913.3534
  21673251.542    -6941167.663 9  -5391858.85247  21673257.976    21673266.7674
  21577427.973   -16860319.100 8 -13123958.86747  21577434.504    21577442.3064
 00  4 29  2 30  0.0000000  0  7 17 15 23 05 09 21 29
  22606152.481   -11760317.824 8  -9149318.65746  22606156.963    22606166.7774
  22855909.526    -8669925.119 8  -6484887.66646  22855909.054    22855918.4074
  20630390.185   -22680926.725 9 -17474313.75448  20630393.616    20630401.6254
  24107351.870    -2100807.840 7  -1610950.87045  24107359.186    24107371.9114
  21096955.330   -18391130.203 9 -14311294.47047  21096955.756    21096962.8704
  21659838.187    -7011680.956 9  -5446804.21047  21659840.015    21659848.8744
  21568095.863   -16909375.506 9 -13162184.57247  21568099.490    21568107.2614
 00  4 29  2 30 30.0000000  0  7 17 15 23 05 09 21 29
  22627244.227   -11649478.701 8  -9062950.62446  22627248.971    22627258.8674
  22840141.175    -8752756.921 8  -6549431.89545  22840145.589    22840154.2604
  20630291.633   -22681455.770 9 -17474726.01448  20630293.180    20630300.8214
  24092542.478    -2178652.954 8  -1671609.20945  24092545.633    24092557.7694
  21106103.951   -18343033.130 9 -14273816.23147  21106108.088    21106115.0394
  21646452.530    -7082011.638 9  -5501607.27147  21646456.256    21646464.5064
  21558812.148   -16958157.004 9 -13200196.09547  21558817.173    21558823.6624
 00  4 29  2 31  0.0000000  0  7 17 15 23 05 09 21 29
  22648381.084   -11538400.581 8  -8976396.37646  22648385.392    22648396.5354
  22824458.885    -8835173.548 8  -6613652.57646  22824462.408    22824472.8924
  20630244.387   -22681703.176 9 -17474918.75548  20630246.287    20630253.9284
  24077755.899    -2256356.012 8  -1732156.83345  24077759.711    24077772.2724
  21115359.131   -18294397.534 9 -14235918.36447  21115362.620    21115370.4494
  21633102.716    -7152162.129 9  -5556269.93747  21633106.991    21633115.4024
  21549586.673   -17006654.862 9 -13237986.60247  21549588.057    21549595.2874
 00  4 29  2 31 30.0000000  0  7 17 15 23 05 09 21 29
  22669564.503   -11427081.946 8  -8889654.73046  22669568.475    22669580.9094
  22808856.514    -8917172.054 8  -6677547.40246  22808860.405    22808867.6764
  20630253.049   -22681660.653 9 -17474885.60648  20630254.541    20630262.0284
  24062995.900    -2333916.186 7  -1792593.15845  24062999.569    24063011.5484
  21124718.921   -18245218.870 9 -14197597.32947  21124720.910    21124728.6464
  21619785.817    -7222149.609 9  -5610805.59847  21619788.789    21619797.3064
  21540407.057   -17054878.984 9 -13275563.78447  21540411.333    21540417.9984
 00  4 29  2 32  0.0000000  0  7 17 15 23 05 09 21 29
  22690791.697   -11315503.204 8  -8802710.41946  22690801.383    22690813.3354
  22793330.810    -8998750.159 8  -6741114.67946  22793333.399    22793343.7214
  20630321.403   -22681298.850 9 -17474603.69248  20630323.321    20630330.6234
  24048262.565    -2411323.941 8  -1852910.69245  24048269.724    24048281.6114
  21134181.123   -18195480.853 9 -14158840.42047  21134186.022    21134193.8374
  21606497.658    -7291979.922 9  -5665218.82747  21606501.234    21606509.6024
  21531277.544   -17102855.902 9 -13312948.27747  21531281.020    21531288.8234
 00  4 29  2 32 30.0000000  0  7 17 15 23 05 09 21 29
  22712082.816   -11203661.698 8  -8715561.33746  22712084.945    22712095.0904
  22777889.334    -9079904.926 8  -6804352.06046  22777893.161    22777900.5814
  20630453.468   -22680598.815 9 -17474058.14948  20630456.044    20630463.8004
  24033569.230    -2488585.708 8  -1913114.49945  24033565.815    24033578.3844
  21143754.657   -18145188.661 9 -14119651.71147  21143756.565    21143764.2314
  21593241.632    -7361647.050 9  -5719504.96847  21593244.437    21593252.7014
  21522192.827   -17150608.538 9 -13350157.96847  21522194.388    21522201.2474
 00  4 29  2 33  0.0000000  0  7 17 15 23 05 09 21 29
  22733417.524   -11091548.686 8  -8628200.69546  22733418.874    22733430.5174
  22762526.220    -9160633.650 8  -6867257.54546  22762529.343    22762535.7044
  20630651.395   -22679555.381 9 -17473245.04848  20630654.670    20630662.2804
  24018897.395    -2565699.732 7  -1973203.18545  24018892.389    24018905.3784
  21153427.739   -18094348.782 9 -14080036.21747  21153431.183    21153438.8114
  21580016.595    -7431147.508 9  -5773661.13347  21580018.456    21580026.3254
  21513141.783   -17198154.379 9 -13387206.58547  21513146.742    21513153.4524
 00  4 29  2 33 30.0000000  0  7 17 15 23 05 09 21 29
  22754799.890   -10979157.160 8  -8540623.01546  22754807.339    22754817.4164
  22747243.379    -9240933.614 8  -6929828.87246  22747248.569    22747257.9874
  20630918.387   -22678156.278 9 -17472154.80648  20630920.946    20630928.2684
  24004242.505    -2642653.212 8  -2033166.75645  24004248.971    24004260.7414
  21163206.304   -18042957.109 9 -14039990.74747  21163210.359    21163218.2054
  21566822.004    -7500477.077 9  -5827684.03047  21566825.691    21566833.7694
  21504134.178   -17245511.310 9 -13424108.03747  21504134.810    21504141.6864
 00  4 29  2 34  0.0000000  0  7 17 15 23 05 09 21 29
  22776249.745   -10866487.151 8  -8452828.32046  22776247.475    22776258.6324
  22732051.699    -9320801.803 8  -6992063.78546  22732050.975    22732060.5014
  20631253.536   -22676395.968 9 -17470783.10548  20631255.814    20631263.3754
  23989637.774    -2719428.635 8  -2092991.56945  23989637.693    23989650.0394
  21173088.741   -17991022.806 9 -13999522.46847  21173093.309    21173101.6284
  21553662.422    -7569632.755 9  -5881571.57747  21553665.428    21553673.3884
  21495156.109   -17292678.646 9 -13460861.69747  21495158.962    21495164.7184
 00  4 29  2 34 30.0000000  0  7 17 15 23 05 09 21 29
  22797729.204   -10753557.655 8  -8364831.47546  22797737.202    22797748.2614
  22716931.595    -9400235.844 8  -7053960.33946  22716934.584    22716941.6334
  20631652.986   -22674290.812 9 -17469142.83248  20631656.420    20631664.0784
  23975060.966    -2796026.311 8  -2152677.90745  23975061.696    23975073.6414
  21183071.338   -17938576.014 9 -13958654.84947  21183073.560    21183081.2044
  21540533.901    -7638631.556 9  -5935337.01247  21540535.416    21540543.0764
  21486221.670   -17339636.974 9 -13497452.49147  21486222.785    21486229.3424
 00  4 29  2 35  0.0000000  0  7 17 15 23 05 09 21 29
  22819276.297   -10640385.604 8  -8276645.61146  22819273.981    22819284.5834
  22701905.541    -9479232.871 8  -7115516.42346  22701903.341    22701909.6114
  20632119.031   -22671852.277 9 -17467242.76648  20632120.655    20632128.4174
  23960518.418    -2872438.791 8  -2212219.93745  23960522.196    23960533.4174
  21193148.736   -17885610.487 9 -13917383.00847  21193151.976    21193160.1934
  21527429.697    -7707479.858 9  -5988985.13447  21527434.196    21527442.3454
  21477324.885   -17386372.025 9 -13533869.36047  21477329.469    21477336.8964
 00  4 29  2 35 30.0000000  0  7 17 15 23 05 09 21 29
  22840855.703   -10526983.762 8  -8188280.68646  22840853.150    22840864.2404
  22686948.949    -9557790.219 8  -7176729.86546  22686952.489    22686962.1524
  20632646.721   -22669073.644 9 -17465077.69748  20632649.405    20632657.2024
  23946011.728    -2948674.280 8  -2271624.02945  23946014.461    23946025.7974
  21203326.188   -17832128.611 9 -13875708.81847  21203329.121    21203337.2204
  21514358.049    -7776182.327 9  -6042519.54647  21514360.874    21514368.6164
  21468482.077   -17432867.565 9 -13570099.45247  21468481.455    21468488.7274
 00  4 29  2 36  0.0000000  0  7 17 15 23 05 09 21 29
  22862474.018   -10413373.765 8  -8099753.57746  22862473.036    22862483.7534
  22672085.625    -9635905.347 8  -7237598.69846  22672088.982    22672096.8604
  20633237.121   -22665969.676 9 -17462659.04348  20633240.184    20633248.2594
  23931535.612    -3024759.486 8  -2330910.99945  23931535.365    23931546.6904
  21213601.486   -17778133.214 9 -13833634.48947  21213605.049    21213612.7794
  21501310.784    -7844736.444 9  -6095938.28047  21501315.037    21501323.3454
  21459678.819   -17479109.866 9 -13606132.42947  21459681.764    21459689.2224
 00  4 29  2 36 30.0000000  0  7 17 15 23 05 09 21 29
  22884121.597   -10299575.351 8  -8011079.63746  22884127.662    22884138.8914
  22657304.714    -9713575.488 8  -7298120.82146  22657308.162    22657318.4274
  20633887.297   -22662555.013 9 -17459998.27548  20633890.264    20633897.8204
  23917081.885    -3100710.836 8  -2390093.69745  23917081.438    23917093.5304
  21223978.630   -17723606.598 9 -13791146.21647  21223980.800    21223988.4284
  21488299.230    -7913123.064 9  -6149226.52847  21488301.280    21488309.4404
  21450928.247   -17525098.304 9 -13641967.59147  21450930.310    21450937.5554
 00  4 29  2 37  0.0000000  0  7 17 15 23 05 09 21 29
  22905815.682   -10185582.726 8  -7922254.38946  22905819.380    22905830.8444
  22642612.321    -9790798.158 8  -7358294.23446  22642614.930    22642622.2954
  20634597.566   -22658821.837 9 -17457089.32948  20634600.526    20634608.0764
  23902650.981    -3176523.525 8  -2449168.34045  23902655.124    23902666.6484
  21234460.942   -17668521.268 9 -13748222.59047  21234463.526    21234471.1894
  21475319.942    -7981311.398 9  -6202360.32147  21475325.335    21475333.8444
  21442222.103   -17570853.144 9 -13677620.71747  21442223.600    21442230.4284
 00  4 29  2 37 30.0000000  0  7 17 15 23 05 09 21 29
  22927548.976   -10071386.511 8  -7833270.46846  22927551.123    22927561.5904
  22628000.429    -9867570.414 8  -7418116.72546  22628003.944    22628014.6064
  20635367.802   -22654774.940 9 -17453935.91948  20635370.709    20635378.3744
  23888253.310    -3252185.368 7  -2508125.47645  23888257.431    23888269.2094
  21245046.694   -17612877.502 9 -13704863.81547  21245052.014    21245059.9434
  21462388.522    -8049286.349 9  -6255327.77147  21462390.421    21462398.2974
  21433555.604   -17616379.383 9 -13713095.65647  21433560.136    21433567.2564
 00  4 29  2 38  0.0000000  0  7 17 15 23 05 09 21 29
  22949319.072    -9956980.068 8  -7744122.74246  22949322.493    22949332.9544
  22613481.810    -9943889.777 8  -7477586.26346  22613480.877    22613489.2214
  20636194.313   -22650431.332 9 -17450551.29548  20636197.289    20636204.8134
  23873891.190    -3327683.208 8  -2566954.78745  23873889.397    23873902.9054
  21255745.645   -17556664.652 9 -13661061.59347  21255748.238    21255756.7354
  21449496.557    -8117023.802 9  -6308110.17847  21449500.426    21449508.4444
  21424937.950   -17661682.041 8 -13748396.45547  21424939.175    21424946.6934
 00  4 29  2 38 30.0000000  0  7 17 15 23 05 09 21 29
  22971135.787    -9842346.887 8  -7654798.30746  22971136.405    22971146.8604
  22599042.766   -10019753.538 8  -7536700.83646  22599044.528    22599052.9994
  20637082.469   -22645770.907 9 -17446919.78348  20637084.052    20637091.5884
  23859557.420    -3402992.613 8  -2625637.27545  23859560.046    23859571.6634
  21266545.290   -17499895.903 9 -13616826.21147  21266551.453    21266559.2734
  21436652.976    -8184521.988 9  -6360706.19047  21436655.862    21436664.0594
  21416355.659   -17706763.595 9 -13783525.00047  21416360.312    21416368.2064
 00  4 29  2 39  0.0000000  0  7 17 15 23 05 09 21 29
  22992996.327    -9727469.950 8  -7565284.00946  22992997.013    22993008.3564
  22584696.288   -10095158.999 8  -7595458.21846  22584696.460    22584704.4654
  20638031.014   -22640780.960 9 -17443031.51248  20638033.735    20638041.2864
  23845260.837    -3478100.914 8  -2684163.06445  23845267.694    23845277.5314
  21277452.601   -17442601.255 9 -13572181.03847  21277454.372    21277462.4274
  21423852.951    -8251799.435 9  -6413130.17647  21423853.254    21423861.6934
  21407817.528   -17751624.310 8 -13818481.48447  21407823.639    21407831.1944
 00  4 29  2 39 30.0000000  0  7 17 15 23 05 09 21 29
  23014896.386    -9612354.706 8  -7475583.98846  23014902.289    23014913.3454
  22570428.052   -10170103.779 8  -7653856.62046  22570434.382    22570443.3984
  20639043.213   -22635458.293 9 -17438883.97348  20639046.352    20639054.0584
  23831007.838    -3553009.129 8  -2742532.96545  23831011.559    23831023.7184
  21288444.804   -17384801.102 9 -13527141.95547  21288453.002    21288461.0164
  21411086.491    -8318871.917 9  -6465394.44247  21411089.698    21411097.7484
  21399331.535   -17796245.615 9 -13853251.34247  21399332.597    21399340.2964
 00  4 29  2 40  0.0000000  0  7 17 15 23 05 09 21 29
  23036847.122    -9497007.706 8  -7385703.35246  23036851.788    23036862.9514
  22556253.749   -10244585.125 8  -7711893.96446  22556261.184    22556269.6124
  20640124.084   -22629788.124 9 -17434465.65948  20640125.630    20640132.8924
  23816784.583    -3627719.766 8  -2800748.87145  23816794.626    23816806.6364
  21299541.753   -17326513.343 9 -13481722.92147  21299545.177    21299553.2434
  21398360.616    -8385748.236 9  -6517505.69047  21398363.709    21398371.5744
  21390885.009   -17840623.538 9 -13887831.57047  21390888.179    21390895.3474
 00  4 29  2 40 30.0000000  0  7 17 15 23 05 09 21 29
  23058846.337    -9381440.793 8  -7295651.39946  23058843.653    23058855.7074
  22542173.434   -10318600.314 8  -7769568.03146  22542176.319    22542186.7784
  20641272.550   -22623762.380 9 -17429770.27748  20641272.706    20641279.7054
  23802612.318    -3702218.894 8  -2858799.98145  23802617.427    23802629.7164
  21310724.557   -17267752.766 9 -13435935.44847  21310727.172    21310735.1154
  21385666.654    -8452453.640 9  -6569483.57947  21385669.733    21385677.3294
  21382486.483   -17884767.082 9 -13922228.98647  21382488.326    21382494.7704
 00  4 29  2 41  0.0000000  0  7 17 15 23 05 09 21 29
  23080871.314    -9265662.812 8  -7205434.96346  23080876.187    23080887.3314
  22528178.984   -10392147.069 8  -7826877.06246  22528180.416    22528190.0024
  20642482.072   -22617387.568 9 -17424802.92048  20642485.429    20642492.6264
  23788485.513    -3776504.950 8  -2916685.05245  23788482.190    23788493.3094
  21321996.681   -17208501.745 9 -13389765.83647  21322001.920    21322010.2374
  21373006.556    -8518983.614 9  -6621324.86647  21373009.133    21373017.1474
  21374131.163   -17928673.120 9 -13956441.41447  21374133.203    21374140.5344
 00  4 29  2 41 30.0000000  0  7 17 15 23 05 09 21 29
  23102942.032    -9149690.947 8  -7115067.45946  23102945.170    23102956.1334
  22514272.056   -10465222.749 8  -7883819.08846  22514275.357    22514284.7134
  20643761.670   -22610668.755 9 -17419567.51448  20643763.841    20643771.3114
  23774382.411    -3850577.977 8  -2974404.15445  23774386.275    23774396.6804
  21333373.944   -17148737.204 9 -13343196.06647  21333375.488    21333382.7674
  21360382.552    -8585315.682 9  -6673011.97547  21360386.697    21360394.3484
  21365819.824   -17972336.968 9 -13990465.23647  21365824.116    21365831.4434
 00  4 29  2 42  0.0000000  0  7 17 15 23 05 09 21 29
  23125051.204    -9033527.913 8  -7024550.99546  23125050.356    23125060.8284
  22500455.632   -10537824.939 8  -7940392.09646  22500458.439    22500468.7834
  20645104.377   -22603617.733 9 -17414073.22348  20645105.583    20645113.7324
  23760332.714    -3924435.948 8  -3031955.68945  23760331.494    23760341.6884
  21344843.108   -17088460.118 9 -13296226.90547  21344845.053    21344852.5824
  21347800.391    -8651438.555 9  -6724536.16347  21347804.028    21347811.5624
  21357555.972   -18015769.371 9 -14024308.72847  21357558.880    21357566.1484
 00  4 29  2 42 30.0000000  0  7 17 15 23 05 09 21 29
  23147184.685    -8917181.713 8  -6933891.79646  23147189.541    23147201.2264
  22486730.967   -10609950.899 8  -7996594.09446  22486733.510    22486741.7534
  20646508.062   -22596237.192 9 -17408322.20148  20646510.316    20646518.0314
  23746302.577    -3998079.512 8  -3089340.11745  23746317.198    23746328.8234
  21356411.045   -17027665.834 9 -13248854.75447  21356413.992    21356421.2844
  21335259.858    -8717344.751 9  -6775891.66647  21335263.106    21335269.9114
  21349332.989   -18058975.429 9 -14057975.77347  21349336.713    21349344.1794
 00  4 29  2 43  0.0000000  0  7 17 15 23 05 09 21 29
  23169363.144    -8800658.864 8  -6843094.91845  23169363.395    23169373.7454
  22473096.641   -10681598.249 8  -8052423.14946  22473099.437    22473109.3824
  20647972.960   -22588521.310 9 -17402309.84048  20647978.369    20647986.3314
  23732340.930    -4071525.592 8  -3146570.68845  23732340.946    23732352.0664
  21368079.961   -16966360.256 9 -13201084.17847  21368079.670    21368087.0374
  21322765.237    -8783013.050 9  -6827061.74947  21322766.560    21322773.8174
  21341155.356   -18101944.839 9 -14091458.32247  21341159.315    21341167.2414
 00  4 29  2 43 30.0000000  0  7 17 15 23 05 09 21 29
  23191566.357    -8683967.020 8  -6752166.36645  23191568.782    23191579.6944
  22459556.541   -10752764.299 8  -8107877.13546  22459556.846    22459565.8934
  20649507.985   -22580474.279 9 -17396039.44148  20649509.811    20649517.4504
  23718402.015    -4144777.400 8  -3203649.88145  23718401.614    23718413.1294
  21379836.663   -16904565.822 9 -13152932.67247  21379838.921    21379846.2914
  21310308.998    -8848455.490 9  -6878055.87947  21310312.986    21310320.1494
  21333024.095   -18144688.782 9 -14124765.29547  21333026.066    21333033.1524
 00  4 29  2 44  0.0000000  0  7 17 15 23 05 09 21 29
  23213792.493    -8567103.268 8  -6661103.87645  23213806.711    23213819.3994
  22446096.844   -10823446.421 8  -8162954.07646  22446105.844    22446114.9294
  20651104.568   -22572088.245 9 -17389504.87548  20651105.643    20651113.1064
  23704496.037    -4217827.190 8  -3260571.65545  23704500.216    23704512.2214
  21391685.889   -16842299.189 9 -13104413.22747  21391687.415    21391695.9064
  21297897.723    -8913690.518 9  -6928888.30247  21297899.367    21297906.9464
  21324929.273   -18187215.596 9 -14157903.05647  21324933.608    21324941.1574
 00  4 29  2 44 30.0000000  0  7 17 15 23 05 09 21 29
  23236081.490    -8450069.103 8  -6569908.58945  23236078.905    23236090.7904
  22432743.676   -10893642.166 8  -8217652.00446  22432748.948    22432757.6164
  20652767.341   -22563343.921 9 -17382691.13748  20652769.391    20652777.2134
  23690641.891    -4290671.015 8  -3317332.94445  23690638.014    23690649.7654
  21403623.791   -16779555.909 9 -13055522.36247  21403627.411    21403635.2564
  21285521.809    -8978726.625 9  -6979565.76747  21285523.380    21285530.8014
  21316880.632   -18229522.163 9 -14190869.21947  21316883.518    21316890.3154
 00  4 29  2 45  0.0000000  0  7 17 15 23 05 09 21 29
  23258380.432    -8332855.245 8  -6478573.28745  23258384.232    23258395.1644
  22419481.528   -10963349.405 8  -8271969.28146  22419483.455    22419491.3924
  20654499.816   -22554242.012 9 -17375598.73148  20654501.641    20654509.2314
  23676812.833    -4363300.399 8  -3373927.11145  23676817.445    23676828.5384
  21415655.937   -16716326.905 9 -13006253.01147  21415659.875    21415668.0994
  21273180.238    -9043572.148 9  -7030094.71147  21273183.642    21273190.9934
  21308873.166   -18271607.354 9 -14223662.89447  21308874.778    21308881.6134
 00  4 29  2 45 30.0000000  0  7 17 15 23 05 09 21 29
  23280717.813    -8215456.492 8  -6387093.88445  23280724.321    23280737.1264
  22406308.443   -11032565.659 8  -8325903.96146  22406311.898    22406320.6084
  20656301.228   -22544777.828 9 -17368224.01048  20656302.749    20656310.2904
  23663042.316    -4435700.988 8  -3430343.02945  23663040.818    23663051.2264
  21427784.947   -16652598.954 9 -12956594.86547  21427786.290    21427793.9994
  21260876.266    -9108230.022 9  -7080477.42247  21260879.592    21260887.0894
  21300906.039   -18313479.214 9 -14256290.29747  21300906.408    21300914.0304
 00  4 29  2 46  0.0000000  0  7 17 15 23 05 09 21 29
  23303098.825    -8097873.248 8  -6295470.76046  23303100.460    23303112.8894
  22393230.487   -11101288.216 8  -8379453.94746  22393234.491    22393244.2354
  20658170.526   -22534945.536 9 -17360562.52148  20658173.625    20658181.2584
  23649305.527    -4507869.947 8  -3486578.47345  23649305.892    23649317.3034
  21440008.809   -16588357.670 9 -12906536.72747  21440011.633    21440019.6274
  21248613.128    -9172681.477 9  -7130699.41647  21248614.864    21248621.9304
  21292976.683   -18355122.843 9 -14288739.88547  21292981.994    21292989.2374
 00  4 29  2 46 30.0000000  0  7 17 15 23 05 09 21 29
  23325505.828    -7980115.814 8  -6203711.89046  23325509.159    23325520.8934
  22380248.470   -11169514.642 8  -8432617.31346  22380251.975    22380260.5924
  20660115.666   -22524736.277 9 -17352607.28848  20660116.425    20660123.7734
  23635607.643    -4579806.882 8  -3542633.07446  23635617.138    23635629.5704
  21452331.035   -16523602.261 9 -12856077.98147  21452334.173    21452341.5784
  21236391.916    -9236902.365 9  -7180741.70747  21236394.372    21236401.4254
  21285100.704   -18396529.318 9 -14321004.67647  21285102.357    21285109.5624
 00  4 29  2 47  0.0000000  0  7 17 15 23 05 09 21 29
  23347943.944    -7862196.217 8  -6111826.64645  23347949.031    23347960.1504
  22367357.913   -11237242.655 8  -8485392.42846  22367363.224    22367373.1744
  20662126.729   -22514161.663 9 -17344367.33048  20662128.612    20662136.2944
  23621976.100    -4651503.279 8  -3598500.26846  23621973.516    23621984.6284
  21464751.094   -16458346.419 9 -12805229.26947  21464751.497    21464760.0164
  21224220.680    -9300872.788 9  -7230588.65147  21224221.127    21224228.4414
  21277266.273   -18437696.102 9 -14353082.68547  21277268.487    21277276.1214
 00  4 29  2 47 30.0000000  0  7 17 15 23 05 09 21 29
  23370414.424    -7744124.698 8  -6019823.02645  23370417.330    23370428.3334
  22354570.410   -11304469.622 8  -8537776.96546  22354569.593    22354578.5764
  20664206.548   -22503230.661 9 -17335849.66848  20664208.672    20664216.3114
  23608377.486    -4722961.654 8  -3654181.98845  23608376.124    23608385.8734
  21477259.563   -16392597.334 9 -12753996.22647  21477263.475    21477270.8104
  21212094.782    -9364582.556 9  -7280232.59947  21212097.494    21212105.4154
  21269477.376   -18478624.471 9 -14384974.95847  21269480.674    21269487.8354
 00  4 29  2 48  0.0000000  0  7 17 15 23 05 09 21 29
  23392906.267    -7625903.951 8  -5927703.13445  23392913.668    23392925.2904
  22341869.916   -11371193.484 8  -8589769.55446  22341872.616    22341880.7924
  20666353.421   -22491948.650 9 -17327058.49948  20666355.770    20666363.0474
  23594819.978    -4794177.974 8  -3709675.10046  23594824.341    23594835.1154
  21489862.147   -16326378.598 9 -12702397.20947  21489864.031    21489872.5234
  21200019.391    -9428034.773 9  -7329675.85547  21200022.974    21200030.2404
  21261734.505   -18519315.854 9 -14416682.43547  21261737.439    21261744.9314
 00  4 29  2 48 30.0000000  0  7 17 15 23 05 09 21 29
  23415431.280    -7507535.325 8  -5835468.01445  23415438.779    23415450.5114
  22329270.787   -11437411.750 8  -8641368.17546  22329270.758    22329281.6804
  20668568.079   -22480317.904 9 -17317995.59548  20668568.902    20668576.4964
  23581311.768    -4865148.156 8  -3764976.41346  23581317.160    23581330.1334
  21502551.354   -16259701.027 9 -12650440.67347  21502553.037    21502560.4424
  21187991.603    -9491242.033 9  -7378928.29947  21187994.593    21188001.9884
  21254034.053   -18559796.308 9 -14448225.60047  21254034.101    21254041.0854
 00  4 29  2 49  0.0000000  0  7 17 15 23 05 09 21 29
  23437992.818    -7389003.833 8  -5743105.98645  23437994.551    23438005.5814
  22316765.609   -11503121.812 8  -8692570.73846  22316767.951    22316776.6094
  20670840.765   -22468361.441 9 -17308678.88148  20670843.941    20670851.7914
  23567861.627    -4935875.474 8  -3820088.47845  23567859.591    23567869.4524
  21515327.224   -16192552.629 9 -12598117.25847  21515330.767    21515338.3674
  21176003.336    -9554231.008 9  -7428010.69947  21176007.492    21176015.6164
  21246364.386   -18600080.703 9 -14479615.97847  21246367.852    21246375.1784
 00  4 29  2 49 30.0000000  0  7 17 15 23 05 09 21 29
  23460576.408    -7270299.888 8  -5650609.57345  23460582.912    23460593.9264
  22304354.593   -11568321.529 8  -8743375.63646  22304360.573    22304368.7574
  20673181.458   -22456070.754 9 -17299101.74248  20673182.953    20673190.6814
  23554446.641    -5006360.928 8  -3875012.10945  23554446.248    23554456.7214
  21528198.056   -16124923.916 9 -12545419.56447  21528199.819    21528207.5604
  21164059.460    -9617011.745 9  -7476930.75947  21164060.857    21164069.0594
  21238738.087   -18640172.878 9 -14510856.62147  21238739.224    21238746.4094
 00  4 29  2 50  0.0000000  0  7 17 15 23 05 09 21 29
  23483199.526    -7151430.115 8  -5557983.94745  23483203.676    23483214.5974
  22292050.739   -11633008.517 8  -8793781.00146  22292051.145    22292059.2874
  20675585.977   -22443424.173 9 -17289247.26248  20675589.676    20675597.3134
  23541078.889    -5076595.155 8  -3929739.97046  23541082.035    23541092.1844
  21541155.259   -16056827.826 8 -12492357.67147  21541158.194    21541166.3884
  21152152.184    -9679582.188 9  -7525686.97347  21152154.712    21152162.4814
  21231142.106   -18680071.398 9 -14541946.20547  21231146.246    21231153.1634
 00  4 29  2 50 30.0000000  0  7 17 15 23 05 09 21 29
  23505856.895    -7032397.490 8  -5465231.43345  23505854.717    23505866.3604
  22279831.567   -11697180.447 8  -8843785.03146  22279838.206    22279847.0024
  20678063.415   -22430421.409 9 -17279115.24948  20678063.910    20678071.6464
  23527761.582    -5146577.650 8  -3984271.67446  23527763.806    23527774.4254
  21554210.856   -15988251.203 9 -12438921.35547  21554207.985    21554216.1794
  21140285.543    -9741940.158 9  -7574277.71847  21140288.344    21140296.2904
  21223589.481   -18719761.216 9 -14572873.30447  21223593.368    21223600.8364
 00  4 29  2 51  0.0000000  0  7 17 15 23 05 09 21 29
  23528530.275    -6913213.864 8  -5372361.23445  23528534.561    23528546.5834
  22267725.625   -11760835.214 8  -8893386.08746  22267726.107    22267733.6504
  20680602.184   -22417060.139 9 -17268703.88348  20680606.489    20680614.0234
  23514493.989    -5216296.046 8  -4038597.57146  23514496.032    23514507.5514
  21567344.835   -15919208.442 9 -12385121.80947  21567346.117    21567354.2874
  21128463.013    -9804070.100 9  -7622690.80847  21128465.479    21128473.3544
  21216080.265   -18759217.927 9 -14603618.76847  21216084.915    21216092.3164
 00  4 29  2 51 30.0000000  0  7 17 15 23 05 09 21 29
  23551235.527    -6793900.771 7  -5279390.20145  23551238.567    23551250.9554
  22255706.451   -11823970.415 8  -8942582.27146  22255710.983    22255720.4294
  20683220.977   -22403319.646 9 -17257997.01048  20683220.978    20683228.7434
  23501277.726    -5285729.009 8  -4092701.04746  23501282.824    23501295.0844
  21580560.631   -15849736.314 8 -12330987.69447  21580566.037    21580574.4024
  21116687.983    -9865953.353 9  -7670911.45447  21116689.344    21116696.7734
  21208621.717   -18798424.999 9 -14634169.54147  21208623.567    21208630.8804
 00  4 29  2 52  0.0000000  0  7 17 15 23 05 09 21 29
  23573953.831    -6674477.003 7  -5186332.88845  23573964.065    23573977.2614
  22243796.973   -11886583.691 8  -8991371.76446  22243797.681    22243805.4504
  20685906.673   -22389196.598 9 -17246992.03848  20685908.381    20685916.3854
  23488125.334    -5354871.887 8  -4146578.51846  23488126.621    23488137.1644
  21593865.653   -15779847.036 9 -12276528.52647  21593866.285    21593874.1864
  21104955.857    -9927589.441 9  -7718939.31347  21104960.201    21104967.9014
  21201208.262   -18837378.835 9 -14664523.07647  21201211.353    21201218.5754
 00  4 29  2 52 30.0000000  0  7 17 15 23 05 09 21 29
  23596716.485    -6554951.808 8  -5093196.57045  23596710.061    23596723.1364
  22231981.314   -11948672.613 8  -9039752.69846  22231981.784    22231990.0114
  20688664.933   -22374703.422 9 -17235698.66848  20688666.562    20688674.6874
  23475021.338    -5423720.661 8  -4200226.79246  23475025.631    23475034.8264
  21607239.874   -15709534.267 9 -12221739.35847  21607245.866    21607253.3634
  21093275.133    -9988976.956 9  -7766773.55747  21093279.056    21093286.3114
  21193844.937   -18876073.612 9 -14694674.77747  21193847.792    21193854.4324
 00  4 29  2 53  0.0000000  0  7 17 15 23 05 09 21 29
  23619476.318    -6435334.114 8  -4999988.13745  23619472.267    23619485.7554
  22220265.172   -12010235.076 8  -9087723.38646  22220267.062    22220275.7684
  20691491.177   -22359843.188 9 -17224119.28348  20691494.743    20691502.3524
  23461976.657    -5492271.452 8  -4253642.89045  23461979.778    23461990.1714
  21620702.142   -15638802.193 9 -12166623.45547  21620706.160    21620714.3184
  21081643.525   -10050103.036 9  -7814404.28747  21081646.805    21081654.0394
  21186529.116   -18914521.637 9 -14724634.14347  21186531.192    21186537.7864
 00  4 29  2 53 30.0000000  0  7 17 15 23 05 09 21 29
  23642247.840    -6315620.347 8  -4906704.84145  23642253.396    23642266.8384
  22208648.093   -12071268.917 8  -9135282.20046  22208651.982    22208661.2954
  20694389.747   -22344614.540 9 -17212252.80948  20694392.407    20694400.0224
  23448986.279    -5560538.558 8  -4306837.93545  23448988.539    23448998.8414
  21634247.787   -15567626.030 9 -12111161.50947  21634250.800    21634258.4254
  21070061.667   -10110964.496 9  -7861828.68847  21070064.338    21070072.4514
  21179256.832   -18952735.627 9 -14754411.26247  21179259.362    21179266.0994
 00  4 29  2 54  0.0000000  0  7 17 15 23 05 09 21 29
  23665048.423    -6195801.101 8  -4813339.35845  23665054.828    23665067.5754
  22197137.304   -12131771.815 8  -9182427.26146  22197138.685    22197148.8194
  20697356.842   -22329026.847 9 -17200106.56648  20697358.617    20697366.0274
  23436045.250    -5628536.083 8  -4359822.89046  23436049.469    23436061.5234
  21647877.796   -15495977.859 8 -12055331.77547  21647884.931    21647893.1704
  21058531.625   -10171559.091 9  -7909045.22947  21058534.094    21058541.8414
  21172025.547   -18990732.034 9 -14784018.86847  21172029.055    21172035.8564
 00  4 29  2 54 30.0000000  0  7 17 15 23 05 09 21 29
  23687871.143    -6075863.670 8  -4719881.80445  23687877.936    23687890.5544
  22185727.448   -12191741.657 8  -9229157.04246  22185727.288    22185736.8754
  20700390.620   -22313090.830 9 -17187688.90148  20700391.306    20700398.7354
  23423161.313    -5696270.570 8  -4412602.90146  23423159.852    23423171.0434
  21661608.762   -15423851.396 8 -11999129.36047  21661609.436    21661617.5654
  21047053.206   -10231878.758 9  -7956047.50747  21047055.576    21047063.4044
  21164836.732   -19028516.056 9 -14813461.07647  21164839.439    21164845.8464
 00  4 29  2 55  0.0000000  0  7 17 15 23 05 09 21 29
  23710722.218    -5955797.437 8  -4626323.87345  23710726.265    23710737.9794
  22174413.171   -12251176.315 8  -9275469.71746  22174415.730    22174426.2394
  20703488.143   -22296801.639 9 -17174996.03248  20703491.084    20703498.5474
  23410320.420    -5763745.424 8  -4465180.62846  23410320.926    23410330.7204
  21675421.672   -15351253.641 9 -11942559.69247  21675424.913    21675432.0834
  21035627.602   -10291927.662 9  -8002838.87447  21035628.716    21035636.5464
  21157683.284   -19066097.199 9 -14842745.15747  21157687.695    21157694.5594
 00  4 29  2 55 30.0000000  0  7 17 15 23 05 09 21 29
  23733596.226    -5835599.103 8  -4532662.99045  23733599.144    23733610.5884
  22163204.084   -12310073.536 8  -9321363.62346  22163207.960    22163217.9074
  20706657.573   -22280139.907 9 -17162012.87248  20706661.429    20706669.2304
  23397529.082    -5830956.742 8  -4517552.97046  23397529.652    23397541.6354
  21689326.101   -15278195.318 9 -11885631.13147  21689327.642    21689334.7384
  21024247.797   -10351712.391 9  -8049424.42947  21024251.806    21024259.7174
  21150570.688   -19103480.372 9 -14871874.82047  21150573.658    21150580.4384
 00  4 29  2 56  0.0000000  0  7 17 15 23 05 09 21 29
  23756504.029    -5715272.513 8  -4438902.17245  23756497.297    23756509.0164
  22152102.270   -12368431.340 8  -9366837.18546  22152103.664    22152112.3564
  20709901.621   -22263104.578 9 -17148738.59248  20709903.373    20709910.9034
  23384783.468    -5897892.009 8  -4569710.21846  23384792.456    23384803.6364
  21703312.678   -15204699.445 9 -11828361.64647  21703313.064    21703321.0654
  21012921.087   -10411235.021 9  -8095805.65647  21012925.387    21012933.0884
  21143494.892   -19140654.760 9 -14900841.72647  21143498.953    21143506.2914
 00  4 29  2 56 30.0000000  0  7 17 15 23 05 09 21 29
  23779411.750    -5594822.087 8  -4345044.86146  23779417.782    23779430.3094
  22141101.786   -12426247.398 8  -9411888.59346  22141102.306    22141110.7534
  20713215.015   -22245688.889 9 -17135167.93748  20713217.407    20713224.7324
  23372106.938    -5964544.713 8  -4621647.29146  23372108.104    23372119.6814
  21717378.549   -15130775.257 8 -11770758.39747  21717380.231    21717387.7114
  21001647.159   -10470488.386 9  -8141977.03047  21001649.554    21001657.3224
  21136464.556   -19177611.121 9 -14929638.80147  21136466.454    21136474.0964
 00  4 29  2 57  0.0000000  0  7 17 15 23 05 09 21 29
  23802358.530    -5474250.544 8  -4251093.18546  23802362.007    23802373.9304
  22130200.992   -12483519.637 8  -9456516.25246  22130203.546    22130212.6644
  20716603.900   -22227885.826 9 -17121295.43948  20716605.509    20716613.0174
  23359475.614    -6030908.395 8  -4673359.15346  23359479.442    23359490.8234
  21731527.041   -15056430.728 8 -11712827.60647  21731527.866    21731535.1604
  20990423.184   -10529474.019 9  -8187939.65847  20990425.200    20990432.4694
  21129471.538   -19214349.098 9 -14958265.74847  21129475.614    21129483.5494
 00  4 29  2 57 30.0000000  0  7 17 15 23 05 09 21 29
  23825334.650    -5353558.642 8  -4157047.71746  23825329.110    23825341.3294
  22119408.055   -12540246.046 8  -9500718.58246  22119409.332    22119417.3734
  20720063.962   -22209696.876 9 -17107122.24548  20720066.814    20720074.2784
  23346908.884    -6096981.613 8  -4724844.67246  23346907.049    23346917.7154
  21745753.092   -14981661.709 8 -11654566.04747  21745755.807    21745763.7454
  20979251.665   -10588181.352 9  -8233685.49047  20979253.479    20979260.9244
  21122526.927   -19250864.070 9 -14986719.02647  21122527.044    21122534.2324
 00  4 29  2 58  0.0000000  0  7 17 15 23 05 09 21 29
  23848314.223    -5232752.505 8  -4062913.21846  23848318.117    23848330.7844
  22108715.914   -12596424.645 8  -9544494.05746  22108717.400    22108726.9384
  20723595.474   -22191143.404 9 -17092665.00248  20723597.186    20723604.8554
  23334381.775    -6162764.163 8  -4776103.70246  23334388.525    23334398.8204
  21760061.630   -14906454.755 8 -11595963.25847  21760067.041    21760075.1814
  20968130.295   -10646613.444 9  -8279216.77947  20968134.245    20968141.5784
  21115622.629   -19287146.707 9 -15014991.18147  21115622.741    21115630.0904
 00  4 29  2 58 30.0000000  0  7 17 15 23 05 09 21 29
  23871330.919    -5111841.660 8  -3968697.14345  23871325.960    23871339.3984
  22098129.905   -12652053.386 8  -9587841.06746  22098131.987    22098141.6404
  20727195.912   -22172221.439 9 -17077920.62248  20727197.972    20727205.5594
  23321922.526    -6228260.323 8  -4827139.58346  23321924.309    23321935.2404
  21774456.113   -14830810.263 8 -11537019.51147  21774461.828    21774470.3244
  20957064.884   -10704775.675 9  -8324538.01947  20957066.465    20957073.2244
  21108759.073   -19323204.363 9 -15043088.09247  21108761.609    21108768.2894
 00  4 29  2 59  0.0000000  0  7 17 15 23 05 09 21 29
  23894349.600    -4990848.259 8  -3874416.75245  23894351.189    23894362.8454
  22087648.071   -12707130.052 8  -9630757.90446  22087651.975    22087660.4464
  20730867.603   -22152933.512 9 -17062891.08648  20730868.213    20730875.8394
  23309517.538    -6293461.953 8  -4877945.97346  23309517.789    23309527.7274
  21788934.647   -14754741.857 8 -11477745.43447  21788937.122    21788945.4594
  20946047.074   -10762678.414 9  -8369656.95747  20946048.034    20946054.6764
  21101940.308   -19359037.516 9 -15071009.96047  21101942.727    21101948.8924
 00  4 29  2 59 30.0000000  0  7 17 15 23 05 09 21 29
  23917387.105    -4869782.215 8  -3780079.73945  23917389.161    23917401.2944
  22077272.759   -12761652.732 8  -9673243.06846  22077275.700    22077285.6454
  20734605.440   -22133276.034 9 -17047573.58448  20734608.786    20734616.5914
  23297168.974    -6358363.248 8  -4928518.30446  23297167.239    23297177.0184
  21803489.447   -14678253.342 8 -11418144.00347  21803492.875    21803500.9364
  20935076.636   -10820316.008 9  -8414569.38947  20935079.425    20935086.2734
  21095163.554   -19394647.584 9 -15098757.97047  21095166.202    21095172.5864
 00  4 29  3  0  0.0000000  0  7 17 15 23 05 09 21 29
  23940432.772    -4748650.995 8  -3685691.93145  23940439.792    23940452.5414
  22067001.112   -12815619.310 8  -9715294.89946  22067006.557    22067015.7864
  20738417.800   -22113241.687 9 -17031962.40948  20738421.244    20738429.0094
  23284869.883    -6422960.366 8  -4978853.60646  23284873.988    23284884.7274
  21818120.230   -14601368.438 8 -11358233.68447  21818123.244    21818131.3724
  20924158.813   -10877686.897 9  -8459273.95747  20924162.092    20924169.0244
  21088430.123   -19430037.927 9 -15126334.87447  21088431.793    21088438.2464
 00  4 29  3  0 30.0000000  0  7 17 15 23 05 09 21 29
  23963500.449    -4627453.928 8  -3591252.81745  23963503.049    23963515.6384
  22056840.946   -12869027.830 8  -9756911.87846  22056843.027    22056852.1064
  20742304.202   -22092819.903 9 -17016049.34548  20742307.314    20742315.4624
  23272637.998    -6487238.969 8  -5028940.74346  23272643.238    23272653.7154
  21832821.929   -14524104.798 8 -11298028.26247  21832825.384    21832834.1714
  20913294.251   -10934777.850 9  -8503760.36447  20913298.012    20913305.4724
  21081735.106   -19465214.210 9 -15153745.01447  21081738.045    21081744.8324
 00  4 29  3  1  0.0000000  0  7 17 15 23 05 09 21 29
  23986573.523    -4506177.921 8  -3496752.19545  23986580.903    23986594.3044
  22046783.615   -12921876.636 8  -9798092.70646  22046787.052    22046794.3804
  20746264.274   -22072018.516 9 -16999840.48148  20746265.673    20746273.8874
  23260469.891    -6551186.005 8  -5078769.51446  23260474.923    23260484.6884
  21847598.527   -14446459.086 8 -11237525.12047  21847601.808    21847608.7884
  20902487.495   -10991580.969 9  -8548022.37548  20902488.830    20902495.8604
  21075079.206   -19500173.492 9 -15180985.92947  21075085.400    21075092.4144
 00  4 29  3  1 30.0000000  0  7 17 15 23 05 09 21 29
  24009674.156    -4384805.881 8  -3402176.74345  24009677.514    24009690.2294
  22036833.775   -12974163.775 8  -9838835.88246  22036836.027    22036844.6914
  20750294.579   -22050833.982 9 -16983333.07148  20750296.528    20750305.0454
  23248370.893    -6614802.962 8  -5128341.07746  23248368.573    23248378.2344
  21862448.618   -14368418.569 8 -11176714.32147  21862451.987    21862459.6664
  20891733.451   -11048091.237 9  -8592056.19548  20891735.062    20891742.5184
  21068472.808   -19534910.623 9 -15208053.82047  21068475.413    21068481.9744
 00  4 29  3  2  0.0000000  0  7 17 15 23 05 09 21 29
  24032794.935    -4263345.127 8  -3307532.17245  24032789.489    24032803.4704
  22026993.065   -13025886.992 8  -9879139.62846  22026994.544    22027002.6284
  20754395.975   -22029275.618 9 -16966534.36547  20754399.270    20754406.8794
  23236327.093    -6678082.052 8  -5177649.37246  23236326.622    23236336.2334
  21877382.304   -14289967.607 9 -11115583.72347  21877382.295    21877389.2734
  20881033.990   -11104314.717 9  -8635866.68947  20881035.674    20881043.3464
  21061905.307   -19569414.833 9 -15234940.17047  21061909.195    21061916.0104
 00  4 29  3  2 30.0000000  0  7 17 15 23 05 09 21 29
  24055912.404    -4141809.628 8  -3212829.35145  24055917.245    24055930.9434
  22017255.948   -13077044.378 8  -9919002.47146  22017258.890    22017267.6294
  20758567.392   -22007358.280 9 -16949455.93148  20758570.390    20758577.9184
  23224352.251    -6741018.249 8  -5226690.45746  23224350.159    23224360.1104
  21892392.013   -14211081.128 8 -11054113.74747  21892392.730    21892400.4834
  20870387.110   -11160261.159 9  -8679461.52347  20870389.810    20870397.3044
  21055385.705   -19603681.032 9 -15261641.03647  21055388.012    21055395.6164
 00  4 29  3  3  0.0000000  0  7 17 15 23 05 09 21 29
  24079059.557    -4020202.087 8  -3118070.39145  24079059.885    24079072.8084
  22007627.281   -13127634.236 8  -9958423.05946  22007630.897    22007640.8204
  20762808.325   -21985078.885 9 -16932095.37548  20762810.180    20762817.6854
  23212434.162    -6803622.890 8  -5275473.20646  23212436.471    23212446.7104
  21907483.777   -14131755.856 9 -10992301.85747  21907488.707    21907495.3034
  20859793.434   -11215929.105 9  -8722839.34447  20859796.333    20859804.4444
  21048908.699   -19637707.153 9 -15288154.90347  21048913.226    21048920.3854
 00  4 29  3  3 30.0000000  0  7 17 15 23 05 09 21 29
  24102210.806    -3898542.825 8  -3023271.11445  24102210.534    24102225.4904
  21998108.496   -13177654.690 8  -9997399.96746  21998112.812    21998121.4664
  20767116.470   -21962433.104 9 -16914449.33048  20767119.596    20767127.1334
  23200580.330    -6865893.276 8  -5323995.50946  23200586.822    23200597.1514
  21922660.903   -14052000.564 8 -10930154.89647  21922664.561    21922672.3184
  20849256.140   -11271312.920 9  -8765995.63448  20849257.402    20849265.1114
  21042479.857   -19671504.352 9 -15314490.35847  21042482.089    21042488.5024
 00  4 29  3  4  0.0000000  0  7 17 15 23 05 09 21 29
  24125355.278    -3776844.015 7  -2928441.01845  24125369.116    24125382.7044
  21988701.921   -13227103.917 8 -10035931.76946  21988702.709    21988712.6584
  20771496.051   -21939422.563 9 -16896519.05448  20771498.125    20771505.8804
  23188798.470    -6927829.137 8  -5372257.12246  23188801.092    23188810.8464
  21937917.689   -13971848.108 8 -10867698.46547  21937917.507    21937925.3104
  20838773.981   -11326399.355 9  -8808920.12747  20838775.249    20838782.6974
  21036088.801   -19705089.968 9 -15340660.89547  21036090.902    21036097.3494
 00  4 29  3  4 30.0000000  0  7 17 15 23 05 09 21 29
  24148532.038    -3655103.621 7  -2833578.54445  24148536.417    24148548.9424
  21979397.873   -13275980.058 8 -10074017.00046  21979402.257    21979411.8424
  20775945.997   -21916031.837 9 -16878292.53447  20775948.959    20775956.8404
  23177072.627    -6989431.572 8  -5420258.91746  23177078.741    23177087.6124
  21953236.560   -13891336.289 8 -10804962.01347  21953237.386    21953244.5584
  20828350.622   -11381169.195 9  -8851597.90547  20828352.880    20828360.0204
  21029734.303   -19738480.957 9 -15366679.76247  21029736.895    21029743.1624
 00  4 29  3  5  0.0000000  0  7 17 15 23 05 09 21 29
  24171714.159    -3533315.501 7  -2738678.88845  24171711.867    24171726.1114
  21970206.255   -13324281.273 8 -10111654.25847  21970211.574    21970220.7924
  20780474.793   -21892243.612 9 -16859756.28247  20780475.958    20780483.5424
  23165413.895    -7050692.896 8  -5467994.92646  23165419.741    23165430.7324
  21968617.027   -13810488.751 8 -10741963.93447  21968623.185    21968629.7944
  20817989.251   -11435614.675 9  -8894022.87647  20817991.935    20817999.4174
  21023416.470   -19771683.845 9 -15392552.09147  21023418.776    21023424.5984
 00  4 29  3  5 30.0000000  0  7 17 15 23 05 09 21 29
  24194892.763    -3411488.917 7  -2643749.27545  24194893.923    24194908.4744
  21961125.585   -13372005.848 8 -10148842.18047  21961129.744    21961137.8894
  20785076.257   -21868061.737 9 -16840913.27547  20785077.591    20785085.0024
  23153825.506    -7111605.035 8  -5515458.82746  23153828.667    23153838.3734
  21984071.655   -13729310.901 8 -10678708.50047  21984070.534    21984077.6244
  20807689.859   -11489740.622 9  -8936198.96648  20807692.254    20807699.4674
  21017133.503   -19804697.611 9 -15418277.01547  21017136.096    21017142.3644
 00  4 29  3  6  0.0000000  0  7 17 15 23 05 09 21 29
  24218078.350    -3289616.809 7  -2548784.17444  24218085.146    24218098.8484
  21952154.450   -13419151.886 8 -10185579.28047  21952158.247    21952166.4914
  20789753.852   -21843476.484 9 -16821755.95947  20789755.928    20789763.6404
  23142300.129    -7172171.914 8  -5562653.70846  23142303.266    23142313.7294
  21999574.903   -13647803.414 8 -10615196.18647  21999580.803    21999587.6464
  20797448.284   -11543549.624 9  -8978128.03548  20797452.780    20797459.9554
  21010890.310   -19837513.106 9 -15443847.54847  21010891.419    21010897.9434
 00  4 29  3  6 30.0000000  0  7 17 15 23 05 09 21 29
  24241289.645    -3167701.692 7  -2453785.53245  24241287.073    24241299.3994
  21943293.174   -13465717.958 8 -10221864.48247  21943296.262    21943304.1824
  20794508.361   -21818488.698 9 -16802284.97047  20794510.700    20794518.6904
  23130843.482    -7232375.050 8  -5609565.13146  23130846.800    23130857.8704
  22015150.921   -13565932.374 8 -10551400.56447  22015160.238    22015168.2634
  20787267.986   -11597057.052 9  -9019822.05548  20787270.415    20787277.8324
  21004685.098   -19870106.909 9 -15469245.15447  21004688.599    21004695.8864
 00  4 29  3  7  0.0000000  0  8 17 15 23 05 09 30 21 29
  24264487.773    -3045736.626 7  -2358748.01644  24264495.155    24264508.8104
  21934541.362   -13511702.299 8 -10257696.40146  21934545.423    21934553.7064
  20799338.757   -21793107.627 9 -16782507.54047  20799340.682    20799348.5694
  23119455.933    -7292212.724 8  -5656191.78746  23119460.432    23119470.7494
  22030815.585   -13483666.655 8 -10487297.45747  22030815.337    22030822.6994
  24337923.198      -67439.45517
  20777141.264   -11650272.009 9  -9061288.34447  20777144.053    20777151.6184
  20998526.981   -19902472.633 9 -15494465.30247  20998529.770    20998536.6884
 00  4 29  3  7 30.0000000  0  8 17 15 23 05 09 30 21 29
  24287704.952    -2923724.442 7  -2263673.78344  24287712.240    24287725.5224
  21925905.464   -13557103.345 8 -10293073.77346  21925906.155    21925913.8334
  20804239.932   -21767349.309 9 -16762436.14447  20804242.467    20804250.3274
  23108132.966    -7351697.888 8  -5702543.76046  23108139.678    23108151.0254
  22046547.158   -13400994.858 8 -10422877.89547  22046546.946    22046555.1704
  24319952.444     -161882.163 7   -108599.09855  24319954.457    24319968.6274
  20767071.973   -11703184.604 9  -9102518.87947  20767074.893    20767082.0624
  20992410.924   -19934614.203 9 -15519510.80947  20992413.673    20992420.4134
 00  4 29  3  8  0.0000000  0  8 17 15 23 05 09 30 21 29
  24310950.014    -2801663.743 7  -2168561.74344  24310942.034    24310955.6884
  21917378.443   -13601919.119 8 -10327995.09847  21917378.807    21917387.5304
  20809212.380   -21741213.396 9 -16742070.52847  20809215.992    20809223.8074
  23096887.927    -7410831.375 8  -5748621.72446  23096887.844    23096897.4274
  22062346.970   -13317919.654 8 -10358143.98947  22062355.250    22062363.6624
  24301976.251     -256294.759 7   -182167.20545  24301991.739    24302004.5414
  20757061.802   -11755787.596 9  -9143508.25148  20757065.288    20757072.3694
  20986338.396   -19966528.314 9 -15544378.88147  20986340.595    20986347.3984
 00  4 29  3  8 30.0000000  0  8 17 15 23 05 09 30 21 29
  24334181.058    -2679553.950 7  -2073411.49845  24334178.149    24334191.5514
  21908959.612   -13646148.114 8 -10362459.20747  21908962.252    21908970.3954
  20814259.744   -21714709.196 9 -16721417.92247  20814259.791    20814267.4724
  23085698.465    -7469608.297 8  -5794421.84446  23085702.889    23085711.7514
  22078239.117   -13234439.281 8 -10293094.36547  22078240.932    22078249.3554
  24284020.647     -350672.674 7   -255708.16745  24284032.328    24284044.3594
  20747113.913   -11808068.566 9  -9184246.68547  20747116.307    20747123.1854
  20980304.595   -19998226.733 9 -15569078.87647  20980308.549    20980315.4014
 00  4 29  3  9  0.0000000  0  8 17 15 23 05 09 30 21 29
  24357413.855    -2557394.803 7  -1978222.76045  24357425.221    24357438.3374
  21900652.769   -13689788.942 8 -10396464.96647  21900656.877    21900665.8394
  20819372.905   -21687830.095 9 -16700473.18947  20819374.898    20819382.4604
  23074579.331    -7528041.172 8  -5839953.87846  23074582.754    23074592.8344
  22094196.423   -13150582.125 8 -10227751.14447  22094199.080    22094207.0134
  24266092.080     -445003.470 7   -329212.47045  24266081.406    24266093.2424
  20737228.710   -11860019.269 9  -9224727.80547  20737230.293    20737237.1304
  20974310.148   -20029729.597 9 -15593626.52747  20974313.426    20974320.1634
 00  4 29  3  9 30.0000000  0  9 17 15 23 05 09 30 21 29 25
  24380675.865    -2435206.880 7  -1883011.56744  24380676.941    24380689.0064
  21892462.248   -13732839.828 8 -10430011.07247  21892464.761    21892472.6084
  20824559.945   -21660569.751 9 -16679231.39047  20824561.996    20824569.9694
  23063529.429    -7586121.382 8  -5885211.10746  23063531.120    23063541.2724
  22110220.349   -13066376.135 8 -10162136.10647  22110222.940    22110231.1794
  24248122.915     -539291.439 7   -402683.36145  24248138.286    24248151.1394
  20727403.811   -11911643.967 9  -9264955.01547  20727406.669    20727413.5694
  20968355.671   -20061021.763 9 -15618009.91747  20968359.003    20968365.2854
  24724781.933    -3520660.79618  -2717579.29155  24724782.977    24724793.7654
 00  4 29  3 10  0.0000000  0  9 17 15 23 05 09 30 21 29 25
  24403946.116    -2312991.485 7  -1787779.05844  24403934.087    24403946.8884
  21884382.209   -13775299.184 8 -10463096.26447  21884384.822    21884392.9594
  20829822.519   -21632913.887 9 -16657681.38247  20829824.994    20829832.8204
  23052551.663    -7643823.662 8  -5930173.81646  23052551.160    23052561.0834
  22126307.920   -12981831.906 8 -10096257.52547  22126311.368    22126319.2494
  24230196.871     -633545.770 7   -476128.08845  24230201.827    24230214.4264
  20717641.493   -11962944.788 9  -9304929.72947  20717644.605    20717651.9174
  20962444.181   -20092098.372 9 -15642225.37547  20962445.571    20962452.1564
  24704955.292    -3624804.130 7  -2798729.83945  24704965.434    24704975.6434
 00  4 29  3 10 30.0000000  0  9 17 15 23 05 09 30 21 29 25
  24427191.992    -2190749.872 7  -1692526.11644  24427192.418    24427210.8464
  21876415.997   -13817165.413 8 -10495719.27747  21876418.482    21876426.3924
  20835159.526   -21604864.378 9 -16635824.64547  20835162.689    20835170.1734
  23041639.698    -7701140.940 8  -5974836.55246  23041644.266    23041654.0584
  22142458.609   -12896950.259 8 -10030115.99547  22142463.191    22142471.3214
  24212280.510     -727778.861 8   -549556.25745  24212271.006    24212280.5804
  20707940.633   -12013915.657 9  -9344647.28247  20707945.046    20707952.1964
  20956573.490   -20122953.234 9 -15666268.12147  20956574.002    20956580.7424
  24685166.867    -3728871.334 7  -2879821.00845  24685159.779    24685170.9194
 00  4 29  3 11  0.0000000  0  8 15 23 05 09 30 21 29 25
  21868563.069   -13858437.034 8 -10527878.95647  21868564.161    21868573.3274
  20840571.653   -21576426.922 9 -16613665.62447  20840574.525    20840581.8574
  23030807.850    -7758077.810 8  -6019202.87746  23030808.800    23030818.8274
  22158674.605   -12811730.993 8  -9963711.42847  22158680.338    22158688.8654
  24194328.343     -821991.546 8   -622968.58845  24194343.082    24194352.4544
  20698303.770   -12064570.054 9  -9384118.25747  20698305.765    20698312.9814
  20950747.712   -20153567.990 9 -15690123.95247  20950748.219    20950755.1144
  24665373.798    -3832844.618 7  -2960838.99645  24665374.147    24665385.5544
 00  4 29  3 11 30.0000000  0  8 15 23 05 09 30 21 29 25
  21860822.683   -13899112.423 8 -10559574.05446  21860823.853    21860832.2434
  20846055.182   -21547612.019 9 -16591212.46847  20846057.646    20846065.2874
  23020041.205    -7814640.747 8  -6063277.80646  23020045.251    23020054.6134
  22174961.559   -12726161.315 8  -9897033.80747  22174964.198    22174971.8924
  24176419.821     -916188.019 8   -696368.30245  24176417.478    24176428.9984
  20688727.835   -12114894.936 9  -9423332.38248  20688729.141    20688736.6484
  20944963.526   -20183942.324 9 -15713792.26647  20944968.224    20944974.6374
  24645588.527    -3936721.141 7  -3041781.60045  24645606.030    24645617.6164
 00  4 29  3 12  0.0000000  0  8 15 23 05 09 30 21 29 25
  21853194.368   -13939190.197 8 -10590803.45447  21853196.936    21853205.8954
  20851608.660   -21518423.365 9 -16568468.09347  20851611.696    20851619.8764
  23009352.217    -7870833.217 8  -6107064.07146  23009352.310    23009360.6834
  22191314.611   -12640230.096 8  -9830074.43847  22191316.449    22191323.8014
  24158503.117    -1010350.913 8   -769741.84645  24158498.142    24158510.7234
  20679213.907   -12164878.014 9  -9462280.18048  20679217.543    20679225.7034
  20939227.419   -20214093.109 9 -15737286.38647  20939230.450    20939237.2854
  24625866.618    -4040476.290 7  -3122629.63145  24625860.885    24625873.2354
 00  4 29  3 12 30.0000000  0  8 15 23 05 09 30 21 29 25
  21845681.163   -13978669.086 8 -10621566.14747  21845684.851    21845693.2304
  20857235.273   -21488863.299 9 -16545434.29947  20857236.948    20857244.8414
  22998722.996    -7926671.257 8  -6150574.15846  22998726.383    22998736.4664
  22207734.114   -12553939.398 8  -9762834.95447  22207736.810    22207744.3304
  24140592.436    -1104477.835 8   -843087.32645  24140586.199    24140597.1394
  20669769.188   -12214521.468 9  -9500963.46748  20669771.017    20669778.4394
  20933534.350   -20244019.173 9 -15760605.41347  20933536.032    20933542.1844
  24606148.823    -4144098.848 7  -3203374.33645  24606141.787    24606153.6594
 00  4 29  3 13  0.0000000  0  8 15 23 05 09 30 21 29 25
  21838286.065   -14017547.407 8 -10651860.90147  21838287.029    21838294.6884
  20862929.742   -21458920.766 9 -16522102.48747  20862934.698    20862942.8174
  22988163.309    -7982155.662 8  -6193808.66846  22988167.408    22988177.9144
  22224219.874   -12467293.469 8  -9695318.64846  22224224.608    22224232.4554
  24122681.721    -1198567.826 8   -916404.02545  24122681.004    24122693.7154
  20660385.136   -12263841.780 9  -9539394.76048  20660385.927    20660392.9844
  20927876.672   -20273743.692 9 -15783767.41247  20927879.550    20927885.8094
  24586439.778    -4247600.990 7  -3284025.21845  24586448.219    24586460.1284
 00  4 29  3 13 30.0000000  0  8 15 23 05 09 30 21 29 25
  21831000.129   -14055823.719 8 -10681686.54547  21831002.577    21831010.3894
  20868705.640   -21428577.304 9 -16498458.25547  20868709.219    20868716.9644
  22977678.434    -8037266.670 8  -6236752.23646  22977679.950    22977690.6474
  22240774.680   -12380304.417 8  -9627534.97646  22240779.057    22240785.3444
  24104785.172    -1292619.369 8   -989690.78045  24104784.719    24104795.5704
  20651060.374   -12312824.537 9  -9577563.26448  20651064.762    20651072.0024
  20922258.144   -20303274.664 9 -15806778.58047  20922259.573    20922266.2954
  24566774.174    -4350997.281 7  -3364593.57545  24566771.874    24566784.9184
 00  4 29  3 14  0.0000000  0  8 15 23 05 09 30 21 29 25
  21823828.901   -14093496.735 8 -10711042.07746  21823832.896    21823841.7514
  20874560.360   -21397820.456 9 -16474491.90847  20874561.994    20874569.7394
  22967265.007    -8091991.403 8  -6279394.79046  22967267.021    22967276.4634
  22257393.038   -12292977.004 8  -9559487.63446  22257396.665    22257403.5214
  24086887.611    -1386620.537 8  -1062938.27845  24086896.384    24086908.0284
  20641802.665   -12361479.079 9  -9615475.98748  20641805.770    20641813.6194
  20916676.930   -20332602.545 9 -15829631.42747  20916678.603    20916685.1954
  24547125.219    -4454290.376 8  -3445081.52345  24547117.294    24547127.8814
 00  4 29  3 14 30.0000000  0  8 15 23 05 09 30 21 29 25
  21816774.246   -14130565.132 8 -10739926.53947  21816779.330    21816788.1064
  20880491.248   -21366647.244 9 -16450201.12047  20880494.012    20880501.9374
  22956920.483    -8146331.696 8  -6321737.78846  22956926.019    22956936.1554
  22274074.023   -12205312.698 8  -9491177.83746  22274077.919    22274085.5094
  24069019.084    -1480570.860 8  -1136146.15045  24069017.824    24069029.3404
  20632607.506   -12409809.725 9  -9653136.23248  20632608.499    20632616.3984
  20911133.553   -20361722.768 9 -15852322.50447  20911137.295    20911143.9314
  24527477.141    -4557488.824 8  -3525495.75645  24527480.076    24527489.1604
 00  4 29  3 15  0.0000000  0  8 15 23 05 09 30 21 29 25
  21809839.245   -14167027.656 8 -10768338.87047  21809841.335    21809849.3974
  20886503.377   -21335058.694 9 -16425586.69047  20886504.870    20886512.9784
  22946658.000    -8200273.680 8  -6363770.43546  22946661.042    22946670.8744
  22290823.231   -12117312.668 8  -9422606.41846  22290824.442    22290831.5024
  24051154.368    -1574456.993 8  -1209304.01545  24051151.394    24051164.9264
  20623472.784   -12457804.275 9  -9690534.63048  20623476.170    20623483.4844
  20905632.287   -20390637.251 9 -15874853.22247  20905635.645    20905642.0484
  24507855.430    -4660593.185 8  -3605836.69145  24507858.575    24507868.7534
 00  4 29  3 15 30.0000000  0  8 15 23 05 09 30 21 29 25
  21803015.807   -14202882.708 8 -10796277.81547  21803017.510    21803026.0664
  20892592.579   -21303063.921 9 -16400655.72447  20892593.689    20892601.5194
  22936474.391    -8253817.836 8  -6405493.09446  22936471.676    22936481.9024
  22307624.222   -12028979.844 8  -9353775.67546  22307632.893    22307640.9754
  24033302.846    -1668265.283 8  -1282401.22645  24033302.129    24033312.9224
  20614406.665   -12505446.556 9  -9727658.58448  20614409.683    20614417.7514
  20900174.253   -20419320.955 9 -15897204.13647  20900177.474    20900183.8914
  24488257.673    -4763594.861 8  -3686097.60045  24488258.323    24488268.5684
 00  4 29  3 16  0.0000000  0  8 15 23 05 09 30 21 29 25
  21796307.220   -14238129.420 8 -10823742.77547  21796310.312    21796318.8774
  20898752.284   -21270682.863 9 -16375423.75347  20898755.640    20898763.5114
  22926349.280    -8306973.600 8  -6446913.09246  22926355.909    22926365.3294
  22324502.265   -11940314.599 8  -9284685.90446  22324505.592    22324513.3624
  24015465.313    -1761990.577 8  -1355433.75145  24015466.493    24015476.4544
  20605410.469   -12552735.969 9  -9764507.59948  20605411.450    20605418.9394
  20894760.156   -20447774.092 9 -15919375.35347  20894762.441    20894769.2564
  24468676.454    -4866481.289 7  -3766268.69745  24468678.617    24468689.4024
 00  4 29  3 16 30.0000000  0  8 15 23 05 09 30 21 29 25
  21789719.680   -14272766.522 8 -10850732.68247  21789719.572    21789728.0284
  20904987.871   -21237927.791 9 -16349900.34447  20904988.624    20904996.6994
  22916312.962    -8359728.874 8  -6488021.03446  22916317.776    22916327.6074
  22341435.504   -11851329.756 8  -9215347.07646  22341437.866    22341447.1384
  23997650.642    -1855630.529 8  -1428399.80945  23997646.536    23997656.5604
  20596479.108   -12599664.985 9  -9801075.64848  20596481.287    20596488.8664
  20889387.236   -20475995.056 9 -15941365.74647  20889391.488    20889399.3064
  24449116.744    -4969241.919 7  -3846341.76345  24449123.122    24449133.9094
 00  4 29  3 17  0.0000000  0  8 15 23 05 09 30 21 29 25
  21783243.281   -14306792.537 8 -10877246.41147  21783244.871    21783252.4414
  20911290.927   -21204798.249 9 -16324085.14747  20911292.852    20911301.0674
  22906354.087    -8412070.007 8  -6528806.24946  22906357.604    22906366.5514
  22358425.396   -11762036.360 8  -9145767.83046  22358430.358    22358438.2994
  23979840.234    -1949184.787 8  -1501299.06945  23979843.191    23979855.3404
  20587618.847   -12646224.173 9  -9837355.48448  20587621.622    20587628.8334
  20884060.919   -20503986.196 9 -15963176.89847  20884065.498    20884072.6774
  24429588.171    -5071874.785 7  -3926315.32345  24429593.074    24429604.6764
 00  4 29  3 17 30.0000000  0  8 15 23 05 09 30 21 29 25
  21776882.865   -14340206.174 8 -10903283.00747  21776886.252    21776894.4824
  20917668.050   -21171291.669 9 -16297976.15247  20917669.160    20917677.0144
  22896475.448    -8463995.875 8  -6569267.89546  22896475.846    22896485.9104
  22375478.892   -11672437.405 8  -9075950.45546  22375481.306    22375488.2524
  23962057.414    -2042657.018 8  -1574134.43245  23962055.703    23962067.0244
  20578829.046   -12692414.833 9  -9873348.15148  20578831.468    20578839.0204
  20878778.871   -20531752.161 9 -15984812.49748  20878781.900    20878788.8334
  24410088.502    -5174374.237 8  -4006184.87345  24410089.088    24410099.7604
 00  4 29  3 18  0.0000000  0  8 15 23 05 09 30 21 29 25
  21770639.656   -14373006.421 8 -10928841.61147  21770644.409    21770652.1204
  20924114.031   -21137402.141 9 -16271568.76647  20924117.951    20924126.0494
  22886676.227    -8515491.959 8  -6609394.66446  22886677.124    22886687.0194
  22392589.921   -11582532.564 8  -9005894.74646  22392589.124    22392597.2644
  23944283.941    -2136054.713 8  -1646911.70246  23944283.100    23944293.8994
  20570109.800   -12738233.064 9  -9909050.64148  20570112.455    20570119.9274
  20873535.156   -20559306.218 9 -16006283.20147  20873538.604    20873544.8154
  24390596.949    -5276734.836 7  -4085946.25845  24390609.785    24390620.4354
 00  4 29  3 18 30.0000000  0  8 15 23 05 09 30 21 29 25
  21764515.496   -14405192.009 8 -10953921.23647  21764518.945    21764526.8534
  20930640.903   -21103111.214 9 -16244848.59247  20930643.259    20930651.4894
  22876959.256    -8566543.132 8  -6649174.73046  22876962.254    22876971.1564
  22409746.046   -11492324.075 8  -8935602.42746  22409755.212    22409763.7104
  23926514.988    -2229376.517 8  -1719629.85646  23926523.970    23926535.2044
  20561461.650   -12783681.291 9  -9944464.84148  20561463.959    20561471.1334
  20868332.715   -20586658.737 9 -16027596.73047  20868333.172    20868339.4524
  24371157.680    -5378959.799 8  -4165601.95045  24371157.009    24371168.0924
 00  4 29  3 19  0.0000000  0  8 15 23 05 09 30 21 29 25
  21758510.405   -14436762.072 8 -10978521.28047  21758512.347    21758519.9414
  20937245.106   -21068406.056 9 -16217805.64047  20937247.656    20937255.7484
  22867330.273    -8617160.823 8  -6688617.02146  22867329.875    22867338.8374
  22426978.098   -11401800.933 8  -8865064.95446  22426982.021    22426990.1974
  23908777.818    -2322631.105 8  -1792295.62346  23908778.172    23908789.9244
  20552884.157   -12828753.378 9  -9979585.94448  20552886.907    20552894.3524
  20863161.416   -20613822.400 9 -16048763.03447  20863164.257    20863170.2144
  24351729.471    -5481052.794 8  -4245154.81645  24351729.370    24351740.5854
 00  4 29  3 19 30.0000000  0  8 15 23 05 09 30 21 29 25
  21752618.558   -14467715.327 8 -11002640.67547  21752621.942    21752629.3304
  20943929.429   -21033287.338 9 -16190440.43647  20943930.576    20943938.5464
  22857777.037    -8667348.623 8  -6727724.32446  22857778.915    22857788.0044
  22444260.590   -11310956.053 8  -8794276.77746  22444267.911    22444276.9844
  23891039.349    -2415807.121 8  -1864900.15446  23891046.934    23891058.4104
  20544376.761   -12873457.716 9 -10014420.45848  20544379.624    20544387.2844
  20858030.564   -20640792.709 9 -16069778.79147  20858031.902    20858038.2264
  24332321.836    -5583016.866 7  -4324607.19645  24332326.008    24332337.5724
 00  4 29  3 20  0.0000000  0  8 15 23 05 09 30 21 29 25
  21746847.642   -14498050.573 8 -11026278.51447  21746849.801    21746856.1824
  20950689.981   -20997754.766 9 -16162752.75047  20950692.206    20950700.2884
  22848311.044    -8717103.273 8  -6766494.12446  22848310.465    22848320.6684
  22461611.646   -11219792.529 8  -8723240.31746  22461615.826    22461624.9034
  23873335.023    -2508888.121 8  -1937430.68746  23873335.182    23873346.3054
  20535941.615   -12917798.887 9 -10048971.90848  20535941.697    20535949.4834
  20852936.081   -20667565.582 9 -16090640.70847  20852936.923    20852943.4254
  24312945.413    -5684856.770 8  -4403962.79345  24312946.859    24312957.4694
 00  4 29  3 20 30.0000000  0  8 15 23 05 09 30 21 29 25
  21741189.546   -14527766.953 8 -11049434.13047  21741194.631    21741201.8024
  20957530.137   -20961807.562 9 -16134741.97447  20957532.402    20957540.6104
  22838920.209    -8766435.112 8  -6804934.45046  22838923.801    22838932.7204
  22479023.117   -11128315.551 8  -8651959.61046  22479023.387    22479032.2134
  23855640.053    -2601863.171 8  -2009878.62746  23855642.030    23855653.6574
  20527570.853   -12961782.146 9 -10083244.45648  20527572.431    20527579.1104
  20847875.724   -20694145.784 9 -16111352.62047  20847878.671    20847884.9634
  24293592.560    -5786581.044 8  -4483228.32745  24293589.494    24293599.6634
 00  4 29  3 21  0.0000000  0  8 15 23 05 09 30 21 29 25
  21735655.795   -14556863.375 8 -11072106.64147  21735657.344    21735665.0504
  20964449.116   -20925447.573 9 -16106409.55247  20964451.874    20964459.5574
  22829615.697    -8815354.027 8  -6843053.01446  22829615.169    22829624.9054
  22496487.330   -11036532.834 8  -8580440.60046  22496489.714    22496497.1954
  23837968.885    -2694729.628 8  -2082241.95546  23837969.499    23837980.3944
  20519267.279   -13005403.478 9 -10117234.94748  20519271.278    20519278.3844
  20842857.461   -20720519.128 9 -16131903.08747  20842860.082    20842866.2774
  24274255.615    -5888185.291 8  -4562400.36745  24274255.124    24274264.6984
 00  4 29  3 21 30.0000000  0  8 15 23 05 09 30 21 29 25
  21730234.463   -14585338.771 8 -11094295.25246  21730238.825    21730246.0114
  20971447.086   -20888674.419 9 -16077755.18247  20971449.710    20971457.2474
  22820386.253    -8863847.844 8  -6880840.33246  22820386.822    22820396.6714
  22514001.715   -10944462.398 8  -8508697.42746  22514009.469    22514018.6974
  23820317.233    -2787481.494 8  -2154515.98446  23820319.585    23820330.9624
  20511035.975   -13048669.792 9 -10150948.85448  20511037.894    20511044.6474
  20837878.167   -20746677.010 9 -16152285.73048  20837882.750    20837888.8324
  24254938.683    -5989659.777 8  -4641471.30445  24254944.431    24254954.6244
 00  4 29  3 22  0.0000000  0  8 15 23 05 09 30 21 29 25
  21724935.334   -14613192.010 8 -11115999.07147  21724938.268    21724946.4804
  20978521.844   -20851494.051 9 -16048783.49547  20978524.896    20978532.6734
  22811234.110    -8911914.412 8  -6918294.72946  22811239.571    22811249.1044
  22531580.355   -10852109.021 8  -8436733.78346  22531583.556    22531591.8574
  23802689.361    -2880139.719 8  -2226717.05346  23802687.451    23802699.3624
  20502873.935   -13091562.764 9 -10184371.90748  20502875.849    20502882.9444
  20832942.852   -20772619.997 9 -16172501.19248  20832945.687    20832952.2924
  24235655.610    -6090987.796 8  -4720428.13445  24235662.471    24235672.1174
 00  4 29  3 22 30.0000000  0  8 15 23 05 09 30 21 29 25
  21719752.458   -14640422.330 8 -11137217.44947  21719756.621    21719764.5314
  20985672.840   -20813912.381 9 -16019499.10947  20985676.449    20985684.0584
  22802169.704    -8959556.645 8  -6955418.47646  22802173.146    22802183.1034
  22549209.836   -10759473.387 8  -8364550.18846  22549211.945    22549221.1064
  23785071.832    -2972719.764 8  -2298857.19446  23785069.959    23785081.9744
  20494784.100   -13134072.532 9 -10217496.44448  20494786.781    20494793.6694
  20828048.574   -20798343.698 9 -16192545.81448  20828051.091    20828057.0964
  24216401.991    -6192168.491 7  -4799270.10345  24216406.671    24216418.5104
 00  4 29  3 23  0.0000000  0  8 15 23 05 09 30 21 29 25
  21714691.857   -14667028.741 8 -11157949.71447  21714693.527    21714701.7994
  20992903.103   -20775932.999 9 -15989904.81047  20992903.571    20992911.6854
  22793182.557    -9006771.463 8  -6992209.16246  22793188.427    22793198.0144
  22566889.215   -10666555.446 8  -8292146.62746  22566893.000    22566901.7574
  23767460.288    -3065221.492 8  -2370936.34146  23767467.269    23767477.6634
  20486767.459   -13176197.743 9 -10250321.42248  20486769.787    20486777.2884
  20823196.298   -20823842.521 9 -16212414.96048  20823198.370    20823205.2974
  24197171.992    -6293197.713 7  -4877994.01945  24197180.793    24197193.5674
 00  4 29  3 23 30.0000000  0  8 15 23 05 09 30 21 29 25
  21709745.180   -14693010.609 8 -11178195.33747  21709750.333    21709756.9954
  21000200.683   -20737569.483 9 -15960011.20247  21000203.768    21000211.9944
  22784277.176    -9053565.042 8  -7028671.61346  22784283.688    22784293.7694
  22584626.796   -10573348.219 8  -8219517.63846  22584631.013    22584638.9234
  23749868.390    -3157645.237 8  -2442954.70045  23749879.309    23749889.8894
  20478826.107   -13217935.339 9 -10282844.10048  20478827.526    20478834.8514
  20818381.745   -20849131.960 9 -16232121.25548  20818386.013    20818392.7874
  24177986.281    -6394070.438 8  -4956596.00745  24177985.884    24177997.7324
 00  4 29  3 24  0.0000000  0  8 15 23 05 09 30 21 29 25
  21704919.773   -14718366.831 8 -11197953.44647  21704925.181    21704931.8134
  21007572.822   -20698830.600 9 -15929825.09147  21007575.757    21007583.7844
  22775453.676    -9099936.601 8  -7064805.22046  22775459.959    22775468.8694
  22602421.251   -10479850.633 8  -8146662.40146  22602423.088    22602431.3964
  23732305.034    -3249984.424 8  -2514907.19646  23732307.541    23732318.5204
  20470955.396   -13259287.565 9 -10315066.59148  20470958.692    20470966.0074
  20813611.838   -20874217.758 9 -16251668.83348  20813613.304    20813619.3654
  24158819.443    -6494795.378 8  -5035082.82945  24158819.764    24158830.0134
 00  4 29  3 24 30.0000000  0  8 15 23 05 09 30 21 29 25
  21700219.239   -14743096.603 9 -11217223.36447  21700219.467    21700225.6964
  21015018.199   -20659703.719 9 -15899336.64047  21015021.332    21015029.1924
  22766712.834    -9145882.894 8  -7100607.45346  22766716.847    22766726.4334
  22620257.945   -10386077.271 8  -8073592.27046  22620267.248    22620274.2864
  23714756.591    -3342209.057 8  -2586770.42746  23714758.628    23714768.8674
  20463157.851   -13300268.636 9 -10346999.87148  20463159.802    20463167.3744
  20808872.340   -20899113.437 9 -16271068.02648  20808875.542    20808882.4464
  24139678.579    -6595388.984 8  -5113467.31945  24139677.275    24139687.7244
 00  4 29  3 25  0.0000000  0  8 15 23 05 09 30 21 29 25
  21695627.777   -14767199.169 8 -11236004.57847  21695631.933    21695639.3664
  21022536.770   -20620189.406 9 -15868546.29747  21022540.402    21022548.4494
  22758056.358    -9191399.090 8  -7136074.54646  22758054.820    22758064.8634
  22638163.012   -10292035.862 8  -8000313.24846  22638162.452    22638171.0414
  23697229.933    -3434309.906 8  -2658537.17346  23697231.421    23697242.4444
  20455430.706   -13340878.498 9 -10378643.98748  20455432.364    20455439.6214
  20804170.347   -20923823.402 9 -16290322.43748  20804173.438    20804179.7484
  24120562.762    -6695832.313 8  -5191734.75845  24120563.334    24120573.6664
 00  4 29  3 25 30.0000000  0  8 15 23 05 09 30 21 29 25
  21691161.089   -14790673.724 8 -11254296.42247  21691164.397    21691172.1444
  21030133.566   -20580285.058 9 -15837452.03347  21030134.235    21030141.7964
  22749476.345    -9236476.977 8  -7171200.09446  22749476.789    22749486.7064
  22656098.340   -10197731.637 8  -7926829.45146  22656108.308    22656116.8174
  23679728.365    -3526284.908 8  -2730205.86546  23679727.942    23679740.0404
  20447775.341   -13381110.137 9 -10409993.28748  20447776.673    20447783.9594
  20799508.210   -20948330.455 9 -16309418.84248  20799509.976    20799516.0884
  24101476.152    -6796125.804 7  -5269885.43045  24101477.117    24101485.9834
 00  4 29  3 26  0.0000000  0  8 15 23 05 09 30 21 29 25
  21686818.429   -14813519.389 8 -11272098.24747  21686817.682    21686824.7914
  21037801.730   -20539977.377 9 -15806043.48147  21037804.859    21037812.2864
  22740979.090    -9281106.526 8  -7205976.29146  22740984.498    22740994.3044
  22674106.411   -10103169.329 8  -7853144.57546  22674103.512    22674111.8064
  23662249.056    -3618117.036 8  -2801763.20646  23662253.873    23662264.9394
  20440189.592   -13420962.687 9 -10441047.19948  20440192.424    20440200.6254
  20794885.845   -20972615.104 9 -16328341.87448  20794888.523    20794895.1094
  24082414.240    -6896286.862 7  -5347932.87945  24082415.984    24082426.8484
 00  4 29  3 26 30.0000000  0  8 15 23 05 09 30 21 29 25
  21682587.875   -14835735.556 8 -11289409.52747  21682589.628    21682598.1314
  21045547.366   -20499273.028 9 -15774325.84047  21045550.780    21045558.0854
  22732575.079    -9325291.589 8  -7240406.13146  22732576.174    22732585.7764
  22692145.701   -10008342.034 8  -7779253.18846  22692148.573    22692156.8944
  23644802.200    -3709804.558 8  -2873207.90846  23644805.958    23644816.6964
  20432684.793   -13460418.372 9 -10471791.97148  20432684.934    20432692.3334
  20790307.277   -20996677.771 9 -16347092.21948  20790309.182    20790315.8834
  24063377.468    -6996307.267 8  -5425870.72045  24063383.418    24063395.5464
 00  4 29  3 27  0.0000000  0  8 15 23 05 09 30 21 29 25
  21678477.322   -14857321.503 8 -11306229.72947  21678481.518    21678490.1904
  21053368.422   -20458177.909 9 -15742303.69747  21053370.942    21053378.6504
  22724251.163    -9369028.416 8  -7274486.72246  22724253.575    22724263.3244
  22710234.697    -9913241.669 8  -7705149.00746  22710245.406    22710252.7064
  23627373.217    -3801358.416 8  -2944548.43646  23627383.089    23627394.5984
  20425250.238   -13499470.775 9 -10502222.34648  20425253.316    20425260.6514
  20785771.629   -21020507.845 9 -16365661.12048  20785774.460    20785781.0044
  24044376.120    -7096182.577 8  -5503695.50446  24044378.771    24044389.9074
 00  4 29  3 27 30.0000000  0  8 15 23 05 09 30 21 29 25
  21674493.430   -14878276.656 8 -11322558.42347  21674494.820    21674502.6174
  21061265.309   -20416687.293 9 -15709973.37747  21061266.172    21061274.0274
  22716014.054    -9412315.043 8  -7308216.49046  22716016.327    22716025.8634
  22728392.380    -9817866.830 8  -7630830.96946  22728394.382    22728402.6734
  23609989.852    -3892773.692 8  -3015780.97846  23609988.110    23609999.1954
  20417895.220   -13538116.247 9 -10532335.64848  20417898.617    20417906.5714
  20781279.415   -21044108.080 9 -16384051.00748  20781283.693    20781290.5254
  24025393.269    -7195933.125 8  -5581423.09646  24025396.173    24025408.0734
 00  4 29  3 28  0.0000000  0  8 15 23 05 09 30 21 29 25
  21670625.255   -14898600.119 8 -11338394.84147  21670626.901    21670633.9344
  21069231.995   -20374812.200 9 -15677343.47747  21069234.118    21069242.3964
  22707865.144    -9455138.753 8  -7341585.55246  22707866.795    22707876.7574
  22746592.427    -9722220.775 8  -7556301.60546  22746595.184    22746602.8784
  23592618.168    -3984047.138 8  -3086903.00546  23592618.982    23592629.2634
  20410622.002   -13576349.571 9 -10562127.81248  20410623.465    20410631.1154
  20776826.255   -21067510.073 9 -16402286.33848  20776830.624    20776837.3154
  24006438.550    -7295546.293 8  -5659043.61746  24006441.177    24006451.5424
 00  4 29  3 28 30.0000000  0  8 15 23 05 09 30 21 29 25
  21666875.672   -14918291.377 8 -11353738.68247  21666879.528    21666887.0854
  21077274.361   -20332553.212 9 -15644414.43447  21077276.118    21077284.3374
  22699805.512    -9497484.621 8  -7374582.27146  22699808.527    22699817.0294
  22764839.870    -9626311.528 8  -7481567.15046  22764845.640    22764853.5994
  23575266.470    -4075189.263 8  -3157922.72646  23575275.516    23575285.8954
  20403424.456   -13614164.649 9 -10591594.11548  20403427.615    20403434.8954
  20772409.534   -21090731.885 9 -16420381.23048  20772411.908    20772418.1634
  23987518.038    -7394996.463 8  -5736537.13946  23987515.720    23987525.9184
 00  4 29  3 29  0.0000000  0  8 15 23 05 09 30 21 29 25
  21663251.316   -14937349.826 8 -11368589.37947  21663253.302    21663260.1584
  21085391.984   -20289889.162 9 -15611169.75147  21085395.172    21085403.0744
  22691844.579    -9539344.075 8  -7407199.96446  22691843.681    22691851.7974
  22783143.373    -9530153.105 8  -7406638.55046  22783144.372    22783153.0714
  23557959.560    -4166192.376 8  -3228834.08746  23557957.487    23557969.3264
  20396306.765   -13651569.742 9 -10620740.91348  20396309.351    20396317.0694
  20768025.140   -21113762.821 9 -16438327.51048  20768028.886    20768035.3914
  23968612.967    -7494284.008 7  -5813903.93345  23968620.916    23968631.9804
 00  4 29  3 29 30.0000000  0  8 15 23 05 09 30 21 29 25
  21659744.805   -14955775.106 8 -11382946.73947  21659746.970    21659754.7114
  21093591.761   -20246808.339 9 -15577600.31647  21093592.856    21093601.1244
  22683967.487    -9580717.460 8  -7439438.89146  22683969.534    22683979.3914
  22801484.393    -9433758.128 8  -7331525.64746  22801487.710    22801495.5234
  23540666.999    -4257047.555 8  -3299630.18946  23540668.712    23540678.7194
  20389271.047   -13688545.257 9 -10649553.05248  20389273.257    20389280.9854
  20763680.350   -21136605.523 9 -16456127.13348  20763682.501    20763688.5884
  23949758.917    -7593394.839 8  -5891133.01245  23949761.789    23949771.7144
 00  4 29  3 30  0.0000000  0  8 15 23 05 09 30 21 29 25
  21656358.637   -14973566.604 8 -11396810.20647  21656361.321    21656368.3394
  21101869.514   -20203300.952 9 -15543698.49547  21101871.621    21101880.3464
  22676188.479    -9621600.058 8  -7471295.38946  22676190.256    22676199.1994
  22819867.792    -9337135.874 8  -7256235.61646  22819873.858    22819882.3364
  23523410.022    -4347749.820 8  -3370307.15846  23523408.683    23523418.9734
  20382316.016   -13725088.018 9 -10678027.92948  20382319.213    20382326.9334
  20759366.609   -21159263.420 9 -16473782.70848  20759370.873    20759377.8364
  23930931.443    -7692312.297 8  -5968211.47945  23930937.982    23930946.9994
 00  4 29  3 30 30.0000000  0  8 15 23 05 09 30 21 29 25
  21653094.260   -14990723.727 8 -11410179.40547  21653096.246    21653104.1854
  21110232.445   -20159356.911 9 -15509456.42447  21110234.101    21110242.3264
  22668497.006    -9662001.426 8  -7502776.92646  22668501.582    22668510.3424
  22838296.059    -9240284.739 8  -7180767.29446  22838304.130    22838313.0414
  23506167.040    -4438292.417 8  -3440859.69545  23506178.272    23506189.1194
  20375447.501   -13761193.458 9 -10706161.89748  20375448.734    20375455.9554
  20755094.086   -21181714.651 9 -16491277.39848  20755098.385    20755105.0724
  23912152.890    -7791038.320 8  -6045140.74045  23912151.591    23912161.0974
 00  4 29  3 31  0.0000000  0  8 15 23 05 09 30 21 29 25
  21649951.018   -15007245.949 8 -11423053.93347  21649952.235    21649960.3504
  21118676.278   -20114972.644 9 -15474871.31047  21118680.586    21118688.4964
  22660896.269    -9701943.753 8  -7533900.75146  22660900.894    22660909.4044
  22856780.378    -9143201.037 8  -7105117.71946  22856778.977    22856787.6334
  23488975.167    -4528670.886 8  -3511284.32045  23488979.160    23488989.8374
  20368657.144   -13796863.987 9 -10733957.12448  20368660.827    20368668.3864
  20750865.294   -21203940.795 9 -16508596.44148  20750868.747    20750875.6944
  23893389.834    -7889588.265 8  -6121932.77746  23893398.306    23893407.6774
 00  4 29  3 31 30.0000000  0  8 15 23 05 09 30 21 29 25
  21646925.953   -15023132.947 9 -11435433.40447  21646929.047    21646936.7334
  21127205.333   -20070168.256 9 -15439958.84047  21127206.440    21127214.3104
  22653386.018    -9741433.229 8  -7564671.72046  22653386.761    22653395.1284
  22875297.206    -9045868.724 8  -7029274.33546  22875300.903    22875308.9244
  23471811.716    -4618884.308 8  -3581580.39445  23471812.512    23471822.2304
  20361953.288   -13832104.806 9 -10761417.58048  20361954.814    20361962.2874
  20746677.806   -21225953.828 9 -16525749.43448  20746679.929    20746686.5704
  23874683.490    -7987956.073 8  -6198582.90346  23874679.744    23874689.0234
 00  4 29  3 32  0.0000000  0  8 15 23 05 09 30 21 29 25
  21644026.581   -15038384.224 9 -11447317.47447  21644027.807    21644034.7534
  21135805.453   -20024965.472 9 -15404735.93047  21135807.967    21135816.3784
  22645956.728    -9780471.945 8  -7595091.44946  22645958.595    22645966.8594
  22893874.660    -8948272.007 8  -6953224.97346  22893873.203    22893882.0004
  23454676.710    -4708936.514 8  -3651750.78845  23454676.864    23454686.4334
  20355321.742   -13866945.378 9 -10788565.96448  20355324.691    20355332.0594
  20742532.120   -21247741.325 9 -16542726.62947  20742533.919    20742540.5654
  23855987.464    -8086142.802 8  -6275091.91145  23855994.675    23856004.9414
 00  4 29  3 32 30.0000000  0  8 15 23 05 09 30 21 29 25
  21641245.190   -15052999.395 9 -11458705.90747  21641246.635    21641253.3004
  21144480.751   -19979373.656 9 -15369209.88247  21144483.793    21144492.6454
  22638609.567    -9819072.539 8  -7625169.78646  22638613.013    22638620.8884
  22912491.140    -8850403.764 8  -6876964.06546  22912496.969    22912505.0234
  23437564.733    -4798832.859 8  -3721799.77645  23437568.262    23437579.8934
  20348765.532   -13901394.019 9 -10815409.07948  20348769.221    20348776.7414
  20738429.187   -21269292.166 9 -16559519.38047  20738432.270    20738439.0234
  23837345.961    -8184154.758 8  -6351464.74145  23837343.941    23837352.9134
 00  4 29  3 33  0.0000000  0  8 15 23 05 09 30 21 29 25
  21638580.160   -15066978.087 8 -11469598.36047  21638585.699    21638593.9384
  21153228.895   -19933397.445 9 -15333384.31647  21153233.317    21153241.2694
  22631346.721    -9857237.678 8  -7654908.78846  22631350.197    22631357.9754
  22931173.808    -8752276.351 8  -6800501.17546  22931170.157    22931178.0864
  23420483.261    -4888576.563 8  -3791729.81145  23420490.969    23420500.5364
  20342284.120   -13935462.908 9 -10841956.23448  20342286.266    20342293.6344
  20734371.401   -21290619.740 9 -16576138.05647  20734373.923    20734380.3584
  23818717.944    -8281993.166 8  -6427702.35745  23818724.687    23818734.5314
 00  4 29  3 33 30.0000000  0  8 15 23 05 09 30 21 29 25
  21636043.556   -15080319.880 9 -11479994.58947  21636047.429    21636054.6254
  21162051.530   -19887053.446 9 -15297272.13947  21162052.649    21162059.7144
  22624176.664    -9894938.563 8  -7684286.03546  22624175.667    22624184.4904
  22949876.586    -8653909.102 8  -6723851.40646  22949888.843    22949896.8924
  23403445.263    -4978158.546 8  -3861533.79646  23403445.344    23403455.4854
  20335873.634   -13969146.193 9 -10868202.96548  20335876.494    20335883.9724
  20730354.303   -21311734.272 9 -16592590.77747  20730355.902    20730362.6204
  23800142.390    -8379659.819 8  -6503806.12646  23800139.135    23800149.9714
 00  4 29  3 34  0.0000000  0  8 15 23 05 09 30 21 29 25
  21633627.731   -15093024.320 8 -11489894.16347  21633629.571    21633637.4904
  21170939.384   -19840332.359 9 -15260866.13047  21170942.773    21170951.0594
  22617089.373    -9932160.976 8  -7713290.46146  22617091.967    22617101.0394
  22968644.071    -8555329.502 8  -6647036.19046  22968647.281    22968656.5044
  23386428.891    -5067576.475 8  -3931209.95646  23386429.810    23386440.1244
  20329542.856   -14002414.270 9 -10894126.14348  20329545.851    20329553.5374
  20726377.982   -21332622.861 9 -16608867.54748  20726380.756    20726387.6754
  23781575.934    -8477166.832 8  -6579785.49946  23781584.233    23781594.1124
 00  4 29  3 34 30.0000000  0  8 15 23 05 09 30 21 29 25
  21631331.609   -15105091.226 8 -11499296.92747  21631332.984    21631341.5654
  21179904.089   -19793227.021 9 -15224160.71347  21179906.860    21179914.8754
  22610098.754    -9968883.918 8  -7741905.68946  22610103.878    22610113.2474
  22987442.869    -8456555.228 8  -6570069.21546  22987443.733    22987452.2314
  23369444.973    -5156817.149 8  -4000748.02146  23369446.497    23369456.9374
  20323297.018   -14035243.128 9 -10919707.15248  20323298.982    20323306.2164
  20722442.589   -21353300.043 9 -16624979.94348  20722446.470    20722453.1294
  23763056.391    -8574528.104 8  -6655651.31646  23763057.999    23763066.8384
 00  4 29  3 35  0.0000000  0  8 15 23 05 09 30 21 29 25
  21629157.682   -15116520.813 8 -11508203.09247  21629158.678    21629166.2364
  21188944.528   -19745736.547 9 -15187155.19947  21188944.482    21188952.2264
  22603212.245   -10005080.178 8  -7770110.52346  22603215.616    22603225.1414
  23006269.881    -8357601.988 8  -6492962.82146  23006273.496    23006282.1374
  23352499.612    -5245865.884 8  -4070136.54346  23352502.515    23352510.8094
  20317134.988   -14067621.966 9 -10944937.46548  20317137.449    20317144.6774
  20718546.537   -21373773.738 9 -16640933.30748  20718550.499    20718557.2804
  23744552.422    -8671750.423 8  -6731408.88746  23744556.417    23744566.4114
 00  4 29  3 35 30.0000000  0  8 15 23 05 09 30 21 29 25
  21627101.556   -15127312.497 8 -11516612.20547  21627104.196    21627112.8724
  21198054.758   -19697853.365 9 -15149843.67047  21198056.028    21198064.0074
  22596427.125   -10040736.054 8  -7797894.24846  22596430.661    22596439.2644
  23025135.664    -8258457.095 8  -6415707.12046  23025140.586    23025148.5504
  23335593.463    -5334712.921 8  -4139367.86846  23335594.930    23335604.8014
  20311065.087   -14099526.865 9 -10969798.59648  20311066.637    20311073.7904
  20714692.825   -21394032.385 9 -16656719.26248  20714695.648    20714702.0194
  23726077.584    -8768823.846 8  -6807050.38946  23726083.257    23726093.9504
 00  4 29  3 36  0.0000000  0  8 15 23 05 09 30 21 29 25
  21625171.217   -15137465.994 8 -11524523.95647  21625173.149    21625180.8304
  21207241.369   -19649570.902 9 -15112221.01047  21207243.644    21207251.9874
  22589746.403   -10075870.370 8  -7825271.57146  22589744.531    22589754.5884
  23044045.348    -8159100.968 8  -6338286.77346  23044047.386    23044055.5124
  23318719.048    -5423361.904 8  -4208444.85446  23318724.600    23318735.6604
  20305080.611   -14130968.524 9 -10994298.82048  20305083.169    20305090.6034
  20710877.850   -21414080.316 9 -16672340.98248  20710880.206    20710886.3564
  23707641.341    -8865722.191 8  -6882555.47146  23707644.590    23707654.8844
 00  4 29  3 36 30.0000000  0  8 15 23 05 09 30 21 29 25
  21623358.730   -15146981.104 8 -11531938.30947  21623361.735    21623369.9984
  21216503.658   -19600882.742 9 -15074282.22147  21216508.703    21216517.3534
  22583155.899   -10110496.200 8  -7852252.67346  22583155.142    22583165.0194
  23062994.260    -8059525.504 8  -6260695.55446  23062995.580    23063004.5024
  23301887.347    -5511814.217 8  -4277368.62346  23301893.759    23301903.2514
  20299179.313   -14161984.237 9 -11018466.86148  20299181.126    20299188.2224
  20707099.215   -21433939.275 9 -16687815.33848  20707101.263    20707107.8884
  23689241.598    -8962432.776 8  -6957914.27046  23689241.820    23689251.4224
 00  4 29  3 37  0.0000000  0  8 15 23 05 09 30 21 29 25
  21621671.445   -15155857.808 8 -11538855.21947  21621672.813    21621681.0904
  21225856.073   -19551779.799 9 -15036020.22847  21225853.163    21225861.3584
  22576654.276   -10144639.914 8  -7878858.11946  22576658.969    22576667.8594
  23081979.442    -7959727.948 8  -6182931.25746  23081986.182    23081995.2584
  23285100.651    -5600073.025 8  -4346141.60446  23285097.966    23285108.2434
  20293354.672   -14192581.755 9 -11042309.06048  20293358.246    20293366.0454
  20703355.906   -21453602.437 9 -16703137.17948  20703359.291    20703365.6244
  23670878.204    -9058935.007 8  -7033110.70846  23670878.386    23670887.9614
 00  4 29  3 37 30.0000000  0  8 15 23 05 09 30 21 29 25
  21620100.457   -15164096.049 8 -11545274.65447  21620104.577    21620113.8934
  21235273.627   -19502263.280 9 -14997435.97747  21235275.689    21235283.8924
  22570240.476   -10178330.753 8  -7905110.67046  22570247.279    22570256.5014
  23101020.735    -7859697.655 8  -6104985.63346  23101021.802    23101030.8014
  23268335.206    -5688136.360 8  -4414762.23046  23268339.109    23268350.7094
  20287611.733   -14222764.839 9 -11065828.34248  20287614.861    20287622.5094
  20699651.563   -21473064.999 9 -16718302.55948  20699655.221    20699661.8564
  23652557.202    -9155211.286 8  -7108131.06046  23652557.727    23652567.5854
 00  4 29  3 38  0.0000000  0  8 15 23 05 09 30 21 29 25
  21618656.204   -15171695.668 9 -11551196.40847  21618658.825    21618667.2824
  21244776.573   -19452328.041 9 -14958525.45447  21244778.090    21244786.3514
  22563918.924   -10211576.663 8  -7931016.52046  22563920.838    22563929.4254
  23120094.917    -7759451.424 8  -6026871.77546  23120098.264    23120106.9364
  23251616.029    -5776003.741 8  -4483230.18846  23251619.114    23251629.6754
  20281944.570   -14252555.314 9 -11089041.70748  20281946.153    20281953.5434
  20695986.248   -21492341.469 9 -16733323.15648  20695987.355    20695994.1424
  23634275.845    -9251272.518 8  -7182983.87245  23634275.895    23634286.0564
 00  4 29  3 38 30.0000000  0  8 15 23 05 09 30 21 29 25
  21617331.324   -15178656.610 8 -11556620.55447  21617333.883    21617343.0144
  21254359.775   -19401970.727 9 -14919286.03347  21254360.579    21254369.1744
  22557681.850   -10244359.043 8  -7956561.17546  22557682.304    22557691.5144
  23139213.851    -7659002.547 8  -5948599.96446  23139212.765    23139221.2254
  23234937.831    -5863665.925 8  -4551538.26646  23234937.990    23234947.7584
  20276354.578   -14281930.470 9 -11111931.47348  20276356.309    20276363.6474
  20692352.980   -21511429.589 9 -16748197.12648  20692355.159    20692361.6394
  23616035.933    -9347134.560 8  -7257681.44946  23616034.836    23616043.9444
 00  4 29  3 39  0.0000000  0  8 15 23 05 09 30 21 29 25
  21616128.311   -15184979.042 8 -11561547.17547  21616130.194    21616139.7574
  21264017.840   -19351205.780 9 -14879728.97147  21264020.833    21264029.3804
  22551536.192   -10276657.891 8  -7981729.05446  22551536.217    22551545.1594
  23158362.790    -7558350.335 8  -5870169.67546  23158365.873    23158375.0504
  23218293.473    -5951108.209 8  -4619674.98446  23218297.352    23218307.8794
  20270850.802   -14310854.332 9 -11134469.57748  20270852.271    20270859.5124
  20688760.625   -21530303.528 9 -16762904.15248  20688763.635    20688769.9534
  23597832.828    -9442785.016 8  -7332214.16646  23597831.756    23597842.4604
 00  4 29  3 39 30.0000000  0  8 15 23 05 09 30 21 29 25
  21615046.687   -15190662.689 8 -11565976.04547  21615048.780    21615057.9784
  21273752.030   -19300038.264 9 -14839858.22647  21273757.643    21273765.9614
  22545483.195   -10308438.962 8  -8006493.45646  22545488.280    22545497.7174
  23177548.553    -7457504.851 8  -5791588.81546  23177556.680    23177565.6584
  23201697.020    -6038330.431 8  -4687640.24146  23201700.291    23201709.6854
  20265433.069   -14339316.504 9 -11156647.85148  20265435.998    20265443.3714
  20685212.187   -21548963.100 9 -16777444.18548  20685213.068    20685219.2244
  23579675.868    -9538234.810 8  -7406590.52046  23579669.741    23579679.6244
 00  4 29  3 40  0.0000000  0  8 15 23 05 09 30 21 29 25
  21614086.500   -15195707.568 8 -11569907.10747  21614089.767    21614097.6164
  21283570.123   -19248471.484 9 -14799676.36747  21283570.820    21283579.0574
  22539541.561   -10339673.377 8  -8030831.91846  22539544.717    22539553.5724
  23196780.246    -7356471.099 8  -5712861.26546  23196782.968    23196792.2734
  23185140.952    -6125335.590 8  -4755436.33246  23185142.715    23185153.5534
  20260104.673   -14367311.300 9 -11178461.99948  20260108.501    20260116.1254
  20681701.824   -21567406.212 9 -16791815.46848  20681703.661    20681709.8434
  23561543.286    -9633486.542 8  -7480812.51046  23561543.047    23561553.2154
 00  4 29  3 40 30.0000000  0  8 15 23 05 09 30 21 29 25
  21613247.380   -15200114.048 8 -11573340.72647  21613251.183    21613259.3124
  21293453.900   -19196521.549 9 -14759195.93947  21293456.482    21293464.5714
  22533704.559   -10370356.549 8  -8054740.82946  22533705.622    22533715.1494
  23216050.162    -7255242.464 8  -5633981.79946  23216046.507    23216054.6854
  23168628.189    -6212116.204 8  -4823057.45746  23168628.772    23168639.8174
  20254872.636   -14394815.591 9 -11199893.95148  20254874.706    20254882.3544
  20678234.050   -21585623.969 9 -16806011.23748  20678236.717    20678242.9424
  23543450.964    -9728531.400 8  -7554873.36046  23543457.475    23543466.9084
 00  4 29  3 41  0.0000000  0  8 15 23 05 09 30 21 29 25
  21612533.335   -15203882.100 8 -11576276.84647  21612533.959    21612541.9074
  21303411.721   -19144183.451 9 -14718413.05247  21303416.233    21303424.3804
  22527960.905   -10400500.136 8  -8078229.28546  22527968.965    22527978.0514
  23235339.576    -7153821.529 8  -5554952.50446  23235345.894    23235354.9354
  23152154.104    -6298677.423 8  -4890507.64146  23152156.894    23152166.1244
  20249728.009   -14421843.679 9 -11220954.81048  20249731.672    20249739.1364
  20674808.527   -21603615.968 9 -16820030.71748  20674812.556    20674818.7314
  23525408.238    -9823370.326 8  -7628773.70346  23525408.778    23525419.2384
 00  4 29  3 41 30.0000000  0  8 15 23 05 09 30 21 29 25
  21611936.456   -15207011.883 8 -11578715.66147  21611938.104    21611946.2814
  21313449.867   -19091441.268 9 -14677315.29547  21313453.117    21313461.1934
  22522329.546   -10430116.095 8  -8101306.60146  22522333.511    22522342.9444
  23254683.153    -7052212.370 8  -5475776.55246  23254680.873    23254690.1904
  23135714.425    -6385026.970 8  -4957792.86546  23135724.873    23135735.6324
  20244674.878   -14448409.774 9 -11241655.65448  20244676.316    20244683.6074
  20671423.883   -21621408.647 9 -16833895.09348  20671426.715    20671433.5324
  23507398.716    -9918018.192 8  -7702525.15046  23507398.627    23507408.0534
 00  4 29  3 42  0.0000000  0  8 15 23 05 09 30 21 29 25
  21611458.213   -15209503.541 8 -11580657.27047  21611463.616    21611472.2874
  21323560.926   -19038306.358 9 -14635911.51147  21323564.087    21323572.4434
  22516794.003   -10459226.371 8  -8123989.87446  22516794.217    22516803.2664
  23274054.623    -6950408.963 8  -5396449.24346  23274053.777    23274062.4244
  23119336.977    -6471158.280 8  -5024908.07746  23119335.120    23119344.9114
  20239705.560   -14474520.999 9 -11262002.06848  20239707.420    20239714.9034
  20668075.012   -21639009.345 9 -16847609.92448  20668077.497    20668084.0364
  23489418.165   -10012461.267 8  -7776117.05046  23489426.427    23489436.6104
 00  4 29  3 42 30.0000000  0  8 15 23 05 09 30 21 29 25
  21611107.637   -15211357.254 8 -11582101.70847  21611111.556    21611119.3924
  21333748.240   -18984773.438 9 -14594197.60447  21333750.972    21333759.6354
  22511348.948   -10487844.864 8  -8146289.94646  22511348.726    22511357.3834
  23293454.645    -6848421.587 8  -5316978.57746  23293461.863    23293470.1604
  23102975.738    -6557066.240 8  -5091849.22546  23102987.597    23102996.3214
  20234821.681   -14500180.647 9 -11281996.59048  20234824.687    20234832.1434
  20664761.943   -21656421.037 9 -16861177.24948  20664763.984    20664770.2664
  23471492.319   -10106701.214 8  -7849550.64746  23471493.151    23471502.5544
 00  4 29  3 43  0.0000000  0  8 15 23 05 09 30 21 29 25
  21610877.620   -15212572.887 8 -11583048.91247  21610879.624    21610887.9184
  21344015.527   -18930828.084 9 -14552162.31047  21344016.413    21344025.2334
  22505990.200   -10515971.377 8  -8168206.66146  22505995.226    22506004.5914
  23312900.139    -6746262.825 8  -5237374.36046  23312901.801    23312910.0414
  23086680.643    -6642753.094 8  -5158618.08246  23086682.011    23086690.4344
  20230022.004   -14525405.269 9 -11301652.15948  20230024.257    20230032.1484
  20661484.329   -21673643.725 9 -16874597.66148  20661486.720    20661493.2294
  23453595.554   -10200737.325 8  -7922825.43746  23453598.885    23453608.7244
 00  4 29  3 43 30.0000000  0  8 15 23 05 09 30 21 29 25
  21610768.034   -15213150.898 8 -11583499.24147  21610770.210    21610778.1564
  21354353.040   -18876487.091 9 -14509818.71947  21354357.110    21354366.0274
  22500731.700   -10543608.768 8  -8189742.24646  22500736.380    22500745.3384
  23332363.605    -6643935.590 8  -5157638.88446  23332373.864    23332382.3914
  23070416.458    -6728201.793 8  -5225201.35246  23070421.478    23070429.6084
  20225306.670   -14550191.323 9 -11320965.97748  20225307.669    20225315.2074
  20658243.778   -21690672.620 9 -16887867.44248  20658246.468    20658252.6664
  23435747.604   -10294562.008 8  -7995935.47346  23435744.812    23435754.4764
 00  4 29  3 44  0.0000000  0  8 15 23 05 09 30 21 29 25
  21610779.500   -15213091.827 8 -11583453.19347  21610781.217    21610789.4774
  21364769.614   -18821753.125 9 -14467168.92447  21364773.071    21364781.3064
  22495569.874   -10570752.093 8  -8210892.86446  22495571.311    22495579.5364
  23351877.619    -6541447.703 8  -5077778.24146  23351875.987    23351885.3474
  23054206.192    -6813403.112 8  -5291591.88546  23054208.530    23054216.8204
  20220673.207   -14574525.920 9 -11339927.97548  20220676.850    20220684.3394
  20655042.105   -21707489.681 9 -16900971.72748  20655045.905    20655051.7724
  23417921.477   -10388176.748 8  -8068881.92646  23417930.492    23417939.7184
 00  4 29  3 44 30.0000000  0  8 15 23 05 09 30 21 29 25
  21610911.422   -15212395.830 8 -11582910.85947  21610914.133    21610921.9854
  21375266.298   -18766610.416 9 -14424200.62547  21375266.502    21375274.6364
  22490499.399   -10597389.920 8  -8231649.54546  22490502.475    22490509.9774
  23371403.193    -6438803.337 8  -4997795.64646  23371408.920    23371416.8624
  23038042.558    -6898350.224 8  -5357784.28146  23038043.117    23038052.7424
  20216132.686   -14598393.039 9 -11358525.69648  20216135.554    20216142.6204
  20651885.732   -21724091.532 9 -16913908.13548  20651887.166    20651893.2204
  23400149.799   -10481594.373 8  -8141674.79346  23400153.130    23400162.3454
 00  4 29  3 45  0.0000000  0  8 15 23 05 09 30 21 29 25
  21611163.920   -15211063.232 8 -11581872.42247  21611166.739    21611174.7054
  21385834.602   -18711060.477 9 -14380915.01147  21385837.078    21385845.6504
  22485528.974   -10623503.818 8  -8251997.99146  22485533.301    22485541.6104
  23390969.366    -6335991.093 8  -4917682.21845  23390973.070    23390981.0714
  23021922.506    -6983043.482 8  -5423778.88446  23021925.966    23021935.9464
  20211681.904   -14621784.649 9 -11376752.90548  20211684.009    20211691.3544
  20648767.233   -21740481.166 9 -16926679.33048  20648768.350    20648774.6694
  23382408.878   -10574813.635 8  -8214313.03846  23382413.733    23382422.6814
 00  4 29  3 45 30.0000000  0  8 15 23 05 09 30 21 29 25
  21611538.615   -15209094.261 8 -11580338.17947  21611542.410    21611549.3984
  21396483.731   -18655115.705 9 -14337321.73847  21396483.188    21396491.6804
  22480668.564   -10649079.110 8  -8271926.74546  22480665.393    22480675.1324
  23410572.226    -6233005.174 8  -4837433.49745  23410570.602    23410579.2954
  23005856.748    -7067484.751 8  -5489577.14746  23005857.038    23005866.9274
  20207325.440   -14644679.238 9 -11394592.83348  20207327.418    20207334.5954
  20645685.434   -21756663.894 9 -16939289.14948  20645688.912    20645695.1854
  23364708.460   -10667840.633 8  -8286801.48446  23364711.612    23364721.0404
 00  4 29  3 46  0.0000000  0  8 15 23 05 09 30 21 29 25
  21612035.551   -15206489.357 8 -11578308.31847  21612037.827    21612045.3234
  21407203.738   -18598762.745 9 -14293410.39647  21407206.657    21407214.8444
  22475899.984   -10674097.227 8  -8291421.33846  22475904.360    22475915.1914
  23430199.049    -6129841.123 8  -4757045.95245  23430202.100    23430210.7294
  22989832.474    -7151679.253 8  -5555183.11946  22989835.597    22989844.9394
  20203063.589   -14667073.805 9 -11412043.14448  20203065.973    20203072.8944
  20642647.518   -21772641.909 9 -16951739.61248  20642648.458    20642654.5914
  23347046.922   -10760679.993 8  -8359143.70246  23347046.066    23347054.0904
 00  4 29  3 46 30.0000000  0  8 15 23 05 09 30 21 29 25
  21612652.038   -15203249.130 8 -11575783.45147  21612654.125    21612662.4624
  21418000.587   -18542020.715 9 -14249195.87547  21418004.457    21418012.4454
  22471251.585   -10698566.497 8  -8310488.27146  22471249.095    22471258.2764
  23449868.617    -6026493.526 8  -4676515.40845  23449868.986    23449877.1304
  22973857.154    -7235622.576 8  -5620593.38746  22973861.662    22973870.8424
  20198895.512   -14688981.400 9 -11429113.99648  20198897.247    20198904.2644
  20639643.625   -21788415.321 9 -16964030.73448  20639646.667    20639653.3574
  23329414.762   -10853319.513 8  -8431330.29346  23329417.051    23329425.9104
 00  4 29  3 47  0.0000000  0  8 15 23 05 09 30 21 29 25
  21613387.439   -15199374.025 8 -11572763.93747  21613391.347    21613398.9204
  21428874.786   -18484902.041 9 -14204687.85947  21428873.798    21428881.9824
  22466696.163   -10722499.205 8  -8329137.08846  22466695.345    22466704.2604
  23469570.346    -5922971.054 8  -4595848.54246  23469569.318    23469577.2254
  22957931.502    -7319314.757 8  -5685807.95046  22957934.802    22957944.3124
  20194816.123   -14710416.054 9 -11445816.36748  20194818.171    20194825.2824
  20636678.929   -21803986.364 9 -16976163.99448  20636683.497    20636689.7924
  23311824.817   -10945751.633 8  -8503355.21346  23311827.433    23311836.4824
 00  4 29  3 47 30.0000000  0  8 15 23 05 09 30 21 29 25
  21614247.186   -15194864.342 8 -11569249.92447  21614249.923    21614257.0904
  21439812.118   -18427406.330 9 -14159886.06347  21439814.815    21439823.0974
  22462239.899   -10745914.468 8  -8347382.70046  22462239.720    22462247.6764
  23489289.626    -5819291.845 8  -4515059.55246  23489298.134    23489306.3214
  22942059.568    -7402739.211 8  -5750813.88346  22942060.458    22942069.2654
  20190828.208   -14731372.469 9 -11462146.03548  20190830.309    20190837.5444
  20633756.578   -21819358.077 9 -16988141.91348  20633758.499    20633765.6014
  23294277.272   -11037973.862 8  -8575216.58246  23294277.983    23294287.1444
 00  4 29  3 48  0.0000000  0  8 15 23 05 09 30 21 29 25
  21615222.859   -15189720.668 8 -11565241.94347  21615227.995    21615236.7804
  21450825.020   -18369529.449 9 -14114787.24847  21450828.547    21450837.3674
  22457879.578   -10768827.915 8  -8365237.29746  22457879.307    22457887.6054
  23509070.826    -5715461.940 8  -4434153.18446  23509056.444    23509065.3574
  22926238.572    -7485880.663 8  -5815599.32546  22926238.981    22926248.4474
  20186928.127   -14751862.195 9 -11478112.04548  20186931.378    20186938.3454
  20630869.409   -21834523.975 9 -16999959.54348  20630872.514    20630879.1194
  23276768.129   -11129977.586 8  -8646907.70446  23276770.050    23276778.9594
 00  4 29  3 48 30.0000000  0  8 15 23 05 09 30 21 29 25
  21616326.167   -15183943.214 8 -11560740.06847  21616328.290    21616336.5144
  21461912.631   -18311276.163 9 -14069395.12547  21461913.996    21461922.3524
  22453613.500   -10791245.583 8  -8382705.57646  22453613.428    22453620.8514
  23528839.481    -5611495.880 8  -4353140.72646  23528840.948    23528849.2974
  22910468.525    -7568741.720 8  -5880166.25646  22910470.725    22910479.4734
  20183117.864   -14771885.476 9 -11493714.60948  20183120.753    20183127.9684
  20628023.781   -21849485.817 9 -17011618.13148  20628025.492    20628032.2574
  23259304.422   -11221750.284 8  -8718418.80346  23259305.686    23259313.7044
 00  4 29  3 49  0.0000000  0  8 15 23 05 09 30 21 29 25
  21617543.441   -15177532.807 8 -11555744.94547  21617547.642    21617555.1094
  21473072.288   -18252623.270 9 -14023691.64347  21473075.276    21473084.0794
  22449441.843   -10813143.350 8  -8399768.73246  22449445.574    22449453.0674
  23548651.348    -5507397.122 8  -4272024.83046  23548650.123    23548658.9854
  22894745.235    -7651332.410 8  -5944522.50746  22894753.466    22894762.9184
  20179399.127   -14791431.968 9 -11508945.66848  20179401.038    20179408.7664
  20625212.507   -21864255.101 9 -17023126.64648  20625215.036    20625221.7644
  23241882.278   -11313289.099 8  -8789747.67546  23241886.301    23241894.3374
 00  4 29  3 49 30.0000000  0  8 15 23 05 09 30 21 29 25
  21618883.170   -15170489.968 8 -11550257.02347  21618887.743    21618895.5504
  21484313.348   -18193563.643 9 -13977671.22047  21484314.084    21484322.6464
  22445377.054   -10834503.242 8  -8416412.76446  22445380.675    22445389.3394
  23568472.596    -5403160.115 8  -4190801.20046  23568485.785    23568494.8824
  22879088.083    -7733654.563 8  -6008669.50946  22879088.694    22879098.0994
  20175771.758   -14810492.327 9 -11523797.90748  20175773.847    20175782.0144
  20622440.890   -21878818.867 9 -17034475.08748  20622443.566    20622450.5304
  23224508.075   -11404595.408 8  -8860895.36146  23224511.632    23224519.9774
 00  4 29  3 50  0.0000000  0  8 15 23 05 09 30 21 29 25
  21620345.093   -15162815.576 8 -11544276.92947  21620348.779    21620356.0424
  21495626.302   -18134101.527 9 -13931337.16447  21495629.390    21495637.5124
  22441419.028   -10855316.484 8  -8432630.84046  22441419.840    22441428.8064
  23588344.398    -5298778.122 8  -4109464.62245  23588349.671    23588357.8664
  22863469.372    -7815717.695 8  -6072614.71546  22863472.695    22863480.3974
  20172236.624   -14829076.266 9 -11538278.92148  20172238.141    20172245.6894
  20619708.822   -21893168.284 9 -17045656.47548  20619712.564    20619719.4214
  23207178.644   -11495665.649 8  -8931859.09146  23207181.119    23207190.4654
 00  4 29  3 50 30.0000000  0  8 15 23 05 09 30 21 29 25
  21621927.841   -15154510.292 8 -11537805.28447  21621929.236    21621937.3064
  21507018.979   -18074237.538 9 -13884689.94547  21507021.137    21507030.1514
  22437565.226   -10875572.926 8  -8448415.04346  22437565.752    22437574.0784
  23608237.080    -5194251.145 8  -4028015.03745  23608239.840    23608249.0424
  22847902.524    -7897525.696 8  -6136361.10646  22847904.286    22847912.9664
  20168789.661   -14847179.336 9 -11552385.22548  20168792.915    20168800.2894
  20617020.332   -21907306.238 9 -17056672.97948  20617022.378    20617029.1014
  23189893.855   -11586488.589 8  -9002630.11446  23189897.304    23189907.4164
 00  4 29  3 51  0.0000000  0  9 15 11 23 05 09 30 21 29 25
  21623627.375   -15145574.512 8 -11530842.32647  21623629.200    21623637.4194
  24596944.984    -1426856.94017  -1101311.04355  24596946.201    24596952.2354
  21518486.451   -18013968.863 9 -13837727.39847  21518489.585    21518498.6904
  22433811.270   -10895270.840 8  -8463764.02846  22433816.888    22433825.6404
  23628159.198    -5089575.215 8  -3946449.46245  23628157.837    23628168.2604
  22832387.005    -7979061.432 8  -6199895.29446  22832388.963    22832398.0624
  20165440.137   -14864791.832 9 -11566109.24948  20165441.106    20165448.7844
  20614371.166   -21921233.177 9 -17067525.00148  20614372.031    20614379.3924
  23172656.567   -11677077.543 8  -9073218.81646  23172658.877    23172668.3304
 00  4 29  3 51 30.0000000  0  9 15 11 23 05 09 30 21 29 25
  21625449.219   -15136008.954 8 -11523388.62447  21625450.112    21625457.8184
  24585046.553    -1489370.451 7  -1150022.98845  24585048.781    24585057.8384
  21530029.575   -17953308.124 8 -13790459.35047  21530032.782    21530041.8014
  22430169.992   -10914424.086 8  -8478688.60646  22430172.376    22430181.1924
  23648096.580    -4984760.741 8  -3864775.85045  23648104.655    23648113.1004
  22816932.008    -8060303.218 8  -6263200.50046  22816929.476    22816937.7504
  20162179.819   -14881916.609 9 -11579453.23948  20162182.612    20162189.9884
  20611761.926   -21934932.589 9 -17078199.79148  20611765.195    20611772.2034
  23155460.633   -11767437.134 8  -9143628.76646  23155463.860    23155473.8374
 00  4 29  3 52  0.0000000  0  9 15 11 23 05 09 30 21 29 25
  21627387.362   -15125814.394 8 -11515444.81347  21627389.508    21627397.2754
  24573232.559    -1551438.852 7  -1198388.08245  24573238.829    24573245.1474
  21541648.629   -17892251.122 8 -13742882.52347  21541651.446    21541660.1684
  22426626.178   -10933033.769 8  -8493189.62446  22426631.093    22426639.5754
  23668068.079    -4879812.652 7  -3782998.10445  23668075.550    23668084.4484
  22801516.561    -8141245.996 8  -6326272.69046  22801526.139    22801535.1594
  20159015.996   -14898543.284 9 -11592409.09648  20159018.573    20159026.2154
  20609198.386   -21948416.071 9 -17088706.44348  20609199.830    20609206.3264
  23138311.704   -11857558.249 8  -9213852.97546  23138314.650    23138323.5724
 00  4 29  3 52 30.0000000  0  9 15 11 23 05 09 30 21 29 25
  21629448.075   -15114991.487 8 -11507011.46047  21629449.107    21629456.7974
  24561506.440    -1613060.540 7  -1246405.05145  24561511.376    24561520.2194
  21553345.490   -17830796.331 9 -13694995.73647  21553346.269    21553354.5024
  22423191.011   -10951096.246 8  -8507264.22846  22423193.648    22423202.2334
  23688070.117    -4774737.570 8  -3701121.41945  23688070.399    23688079.2774
  22786180.949    -8221885.701 8  -6389108.71246  22786180.966    22786189.4624
  20155948.560   -14914660.092 9 -11604967.66448  20155951.749    20155959.2634
  20606669.211   -21961696.851 9 -17099055.19048  20606672.441    20606679.3394
  23121207.949   -11947442.675 8  -9283892.70746  23121210.936    23121218.5394
 00  4 29  3 53  0.0000000  0  9 15 11 23 05 09 30 21 29 25
  21631625.679   -15103541.057 8 -11498089.09847  21631628.117    21631636.3344
  24549866.077    -1674232.659 7  -1294071.74945  24549869.505    24549879.4694
  21565115.199   -17768942.448 9 -13646797.96847  21565116.733    21565125.2984
  22419857.908   -10968615.368 8  -8520915.46747  22419860.641    22419869.1204
  23708085.167    -4669542.465 8  -3619151.24045  23708088.357    23708097.0854
  22770891.840    -8302223.764 8  -6451709.71946  22770893.053    22770901.6084
  20152979.641   -14930267.451 9 -11617129.24148  20152981.859    20152989.1244
  20604180.860   -21974779.449 9 -17109249.40048  20604182.993    20604189.6424
  23104145.654   -12037106.334 8  -9353760.40246  23104148.486    23104156.9964
 00  4 29  3 53 30.0000000  0  9 15 11 23 05 09 30 21 29 25
  21633923.890   -15091463.867 8 -11488678.37647  21633926.678    21633934.6684
  24538316.353    -1734958.986 7  -1341390.95445  24538315.112    24538322.4974
  21576962.538   -17706694.292 9 -13598292.96847  21576962.545    21576970.6844
  22416623.642   -10985592.003 8  -8534143.98246  22416629.293    22416638.0974
  23728128.630    -4564227.937 8  -3537087.97945  23728128.736    23728137.8944
  22755654.135    -8382278.147 8  -6514089.63746  22755658.512    22755667.8254
  20150104.616   -14945370.648 9 -11628897.97148  20150107.727    20150115.1894
  20601729.052   -21987666.315 9 -17119291.07848  20601730.389    20601737.2734
  23087125.284   -12126538.214 8  -9423447.46246  23087128.922    23087138.1974
 00  4 29  3 54  0.0000000  0  9 15 11 23 05 09 30 21 29 25
  21636342.365   -15078760.907 8 -11478780.01047  21636343.437    21636352.2124
  24526837.328    -1795246.555 7  -1388368.38045  24526843.096    24526850.4644
  21588878.066   -17644057.858 9 -13549485.41647  21588881.699    21588890.6054
  22413497.826   -11002023.902 8  -8546948.02546  22413501.645    22413511.4874
  23748193.669    -4458786.617 8  -3454925.92345  23748193.810    23748202.6494
  22740470.325    -8462062.878 8  -6576259.49146  22740476.164    22740484.5924
  20147326.542   -14959972.531 9 -11640276.06848  20147329.110    20147336.5884
  20599309.842   -22000374.915 9 -17129193.86648  20599312.101    20599318.8044
  23070151.559   -12215733.039 8  -9492949.80746  23070156.368    23070165.2494
 00  4 29  3 54 30.0000000  0  9 15 11 23 05 09 30 21 29 25
  21638878.335   -15065433.002 8 -11468394.59047  21638879.906    21638888.4204
  24515452.806    -1855097.247 7  -1435005.35345  24515455.586    24515461.2154
  21600872.558   -17581044.018 9 -13500383.79347  21600872.603    21600881.3174
  22410476.646   -11017914.152 8  -8559329.99246  22410478.359    22410487.7864
  23768286.043    -4353220.803 8  -3372666.86245  23768282.898    23768290.9364
  22725342.520    -8541569.569 8  -6638212.65846  22725346.734    22725355.5294
  20144641.074   -14974092.581 9 -11651278.70848  20144642.165    20144649.5224
  20596924.851   -22012897.271 9 -17138951.58048  20596928.975    20596935.8664
  23053226.736   -12304691.566 8  -9562268.05746  23053227.667    23053236.1914
 00  4 29  3 55  0.0000000  0  9 15 11 23 05 09 30 21 29 25
  21641534.620   -15051481.127 8 -11457523.02447  21641534.652    21641543.5204
  24504148.101    -1914509.404 7  -1481300.66845  24504148.672    24504155.1704
  21612933.397   -17517653.935 9 -13450988.97047  21612935.743    21612943.9874
  22407558.200   -11033259.871 8  -8571287.65646  22407557.912    22407567.6154
  23788387.096    -4247521.332 8  -3290303.63445  23788396.544    23788405.1714
  22710271.838    -8620786.526 8  -6699940.06046  22710272.179    22710280.6424
  20142045.566   -14987725.140 9 -11661901.49148  20142048.260    20142055.4474
  20594581.994   -22025219.826 9 -17148553.60648  20594584.214    20594590.8364
  23036340.743   -12393412.620 8  -9631401.26946  23036344.682    23036353.0174
 00  4 29  3 55 30.0000000  0  9 15 11 23 05 09 30 21 29 25
  21644306.027   -15036906.173 8 -11446166.01647  21644308.472    21644317.2724
  24492933.047    -1973482.235 7  -1527253.48845  24492926.360    24492932.8674
  21625069.426   -17453889.191 9 -13401302.21147  21625070.165    21625078.0344
  22404738.415   -11048053.917 8  -8582815.42746  22404742.793    22404751.9694
  23808534.070    -4141680.044 8  -3207829.87545  23808537.046    23808546.4124
  22695251.262    -8699707.360 8  -6761436.74146  22695253.416    22695262.3954
  20139545.463   -15000866.636 9 -11672141.63448  20139547.124    20139554.8954
  20592277.636   -22037332.181 9 -17157991.87448  20592279.631    20592285.9414
  23019508.512   -12481880.908 8  -9700337.50346  23019509.449    23019518.9694
 00  4 29  3 56  0.0000000  0  9 15 11 23 05 09 30 21 29 25
  21647196.187   -15021709.047 8 -11434324.12647  21647199.936    21647208.4194
  24481782.027    -2032017.691 7  -1572865.47745  24481787.099    24481795.0114
  21637272.643   -17389748.835 9 -13351322.77447  21637275.416    21637283.9554
  22402030.612   -11062295.175 8  -8593912.47446  22402033.198    22402042.0744
  23828711.360    -4035698.450 8  -3125246.82845  23828704.762    23828714.2074
  22680290.763    -8778304.696 8  -6822681.32846  22680297.171    22680306.7144
  20137138.694   -15013510.375 9 -11681993.90248  20137140.869    20137148.9934
  20590014.401   -22049224.380 9 -17167258.56348  20590016.511    20590022.8594
  23002719.761   -12570094.707 8  -9769075.43046  23002722.257    23002732.5254
 00  4 29  3 56 30.0000000  0  9 15 11 23 05 09 30 21 29 25
  21650206.698   -15005890.725 8 -11421998.16147  21650209.960    21650218.4124
  24470723.615    -2090121.249 7  -1618140.88145  24470729.746    24470738.2274
  21649554.357   -17325221.279 9 -13301041.62447  21649554.496    21649563.1964
  22399430.115   -11075973.410 8  -8604570.79946  22399430.564    22399438.8874
  23848894.221    -3929580.888 8  -3042557.81945  23848898.216    23848907.4114
  22665408.168    -8856562.499 8  -6883661.32946  22665405.910    22665414.6934
  20134831.410   -15025646.583 9 -11691450.69248  20134831.886    20134839.5174
  20587793.589   -22060886.761 9 -17176346.16348  20587797.289    20587803.9444
  22985978.713   -12658062.098 8  -9837621.33346  22985983.212    22985992.9954
 00  4 29  3 57  0.0000000  0  9 15 11 23 05 09 30 21 29 25
  21653339.515   -14989452.391 8 -11409189.08947  21653338.359    21653347.1624
  24459753.413    -2147803.769 7  -1663088.32245  24459753.742    24459761.4094
  21661904.996   -17260306.080 9 -13250458.42447  21661907.557    21661916.1124
  22396935.428   -11089080.823 8  -8614784.33146  22396935.839    22396944.1714
  23869115.560    -3823327.391 8  -2959762.87745  23869118.476    23869126.4224
  22650572.599    -8934491.088 8  -6944384.84146  22650575.899    22650583.8734
  20132618.851   -15037260.127 9 -11700500.21448  20132621.779    20132629.7114
  20585618.906   -22072319.661 9 -17185254.93848  20585621.747    20585628.1834
  22969285.298   -12745791.637 8  -9905981.91446  22969288.681    22969298.3114
 00  4 29  3 57 30.0000000  0  9 15 11 23 05 09 30 21 29 25
  21656583.385   -14972395.025 8 -11395897.64947  21656584.715    21656593.3974
  24448855.563    -2205065.553 7  -1707707.88845  24448857.939    24448867.9204
  21674329.051   -17195008.598 8 -13199577.31947  21674333.043    21674342.0774
  22394551.026   -11101615.424 8  -8624551.52347  22394551.070    22394559.7574
  23889356.097    -3716953.041 8  -2876873.74645  23889360.203    23889368.7474
  22635804.732    -9012089.677 8  -7004851.16846  22635808.772    22635817.6224
  20130505.717   -15048364.621 9 -11709153.07148  20130508.575    20130516.4004
  20583488.723   -22083520.755 9 -17193983.03948  20583490.332    20583496.6594
  22952641.650   -12833278.462 8  -9974153.40946  22952640.543    22952649.8954
 00  4 29  3 58  0.0000000  0  9 15 11 23 05 09 30 21 29 25
  21659943.795   -14954719.504 8 -11382124.55347  21659947.214    21659957.1994
  24438039.529    -2261911.532 7  -1752003.44845  24438040.866    24438047.0084
  21686830.059   -17129329.912 9 -13148399.18547  21686831.779    21686840.0954
  22392272.009   -11113582.474 8  -8633876.46747  22392273.577    22392283.0724
  23909627.112    -3610477.283 8  -2793905.59845  23909621.765    23909630.5464
  22621103.373    -9089344.376 8  -7065049.55246  22621107.803    22621117.1004
  20128491.552   -15058953.240 9 -11717403.94148  20128493.634    20128501.3214
  20581398.195   -22094494.043 9 -17202533.68048  20581401.811    20581408.5174
  22936035.890   -12920530.793 8 -10042142.14846  22936036.946    22936045.7204
